<?xml version="1.0" encoding="UTF-8" standalone="no" ?>
<gpx xmlns="http://www.topografix.com/GPX/1/1" xmlns:xsi="http://www.w3.org/2001/XMLSchema-instance" xsi:schemaLocation="http://www.topografix.com/GPX/1/1 http://www.topografix.com/GPX/1/1/gpx.xsd" version="1.1" creator="VisuGPX - https://www.visugpx.com">
  <metadata>
    <name>Jasse de Miey</name>
  </metadata>
  <trk>
    <name><![CDATA[Jasse de Miey 12-JAN-16]]></name>
    <trkseg>
      <trkpt lat="42.65547" lon="1.84581">
        <ele>1185.44</ele>
        <time>2016-01-12T09:18:04Z</time>
      </trkpt>
      <trkpt lat="42.65546" lon="1.84582">
        <ele>1185.92</ele>
        <time>2016-01-12T09:18:33Z</time>
      </trkpt>
      <trkpt lat="42.65546" lon="1.84582">
        <ele>1185.92</ele>
        <time>2016-01-12T09:18:34Z</time>
      </trkpt>
      <trkpt lat="42.65546" lon="1.84581">
        <ele>1185.92</ele>
        <time>2016-01-12T09:18:43Z</time>
      </trkpt>
      <trkpt lat="42.65544" lon="1.84582">
        <ele>1185.44</ele>
        <time>2016-01-12T09:18:51Z</time>
      </trkpt>
      <trkpt lat="42.6554" lon="1.8458">
        <ele>1185.92</ele>
        <time>2016-01-12T09:19:00Z</time>
      </trkpt>
      <trkpt lat="42.65533" lon="1.84579">
        <ele>1186.4</ele>
        <time>2016-01-12T09:19:11Z</time>
      </trkpt>
      <trkpt lat="42.65531" lon="1.84579">
        <ele>1185.92</ele>
        <time>2016-01-12T09:19:13Z</time>
      </trkpt>
      <trkpt lat="42.65522" lon="1.84582">
        <ele>1185.44</ele>
        <time>2016-01-12T09:19:22Z</time>
      </trkpt>
      <trkpt lat="42.65511" lon="1.84588">
        <ele>1186.4</ele>
        <time>2016-01-12T09:19:33Z</time>
      </trkpt>
      <trkpt lat="42.65505" lon="1.84589">
        <ele>1186.4</ele>
        <time>2016-01-12T09:19:38Z</time>
      </trkpt>
      <trkpt lat="42.65502" lon="1.8459">
        <ele>1186.88</ele>
        <time>2016-01-12T09:19:41Z</time>
      </trkpt>
      <trkpt lat="42.655" lon="1.84589">
        <ele>1186.88</ele>
        <time>2016-01-12T09:19:43Z</time>
      </trkpt>
      <trkpt lat="42.6549" lon="1.84591">
        <ele>1186.88</ele>
        <time>2016-01-12T09:19:52Z</time>
      </trkpt>
      <trkpt lat="42.65477" lon="1.84591">
        <ele>1186.88</ele>
        <time>2016-01-12T09:20:02Z</time>
      </trkpt>
      <trkpt lat="42.65467" lon="1.84593">
        <ele>1186.4</ele>
        <time>2016-01-12T09:20:10Z</time>
      </trkpt>
      <trkpt lat="42.65461" lon="1.84598">
        <ele>1187.37</ele>
        <time>2016-01-12T09:20:16Z</time>
      </trkpt>
      <trkpt lat="42.65457" lon="1.84605">
        <ele>1186.88</ele>
        <time>2016-01-12T09:20:21Z</time>
      </trkpt>
      <trkpt lat="42.65456" lon="1.84608">
        <ele>1187.37</ele>
        <time>2016-01-12T09:20:23Z</time>
      </trkpt>
      <trkpt lat="42.65457" lon="1.8461">
        <ele>1187.37</ele>
        <time>2016-01-12T09:20:25Z</time>
      </trkpt>
      <trkpt lat="42.65459" lon="1.84613">
        <ele>1187.85</ele>
        <time>2016-01-12T09:20:28Z</time>
      </trkpt>
      <trkpt lat="42.65462" lon="1.84626">
        <ele>1189.77</ele>
        <time>2016-01-12T09:20:37Z</time>
      </trkpt>
      <trkpt lat="42.65464" lon="1.84631">
        <ele>1191.21</ele>
        <time>2016-01-12T09:20:44Z</time>
      </trkpt>
      <trkpt lat="42.65463" lon="1.84636">
        <ele>1191.21</ele>
        <time>2016-01-12T09:20:47Z</time>
      </trkpt>
      <trkpt lat="42.65458" lon="1.84646">
        <ele>1193.61</ele>
        <time>2016-01-12T09:20:57Z</time>
      </trkpt>
      <trkpt lat="42.65454" lon="1.84654">
        <ele>1195.06</ele>
        <time>2016-01-12T09:21:06Z</time>
      </trkpt>
      <trkpt lat="42.65452" lon="1.84658">
        <ele>1195.54</ele>
        <time>2016-01-12T09:21:14Z</time>
      </trkpt>
      <trkpt lat="42.6545" lon="1.84668">
        <ele>1196.98</ele>
        <time>2016-01-12T09:21:22Z</time>
      </trkpt>
      <trkpt lat="42.65445" lon="1.84681">
        <ele>1197.46</ele>
        <time>2016-01-12T09:21:32Z</time>
      </trkpt>
      <trkpt lat="42.65444" lon="1.84693">
        <ele>1198.42</ele>
        <time>2016-01-12T09:21:43Z</time>
      </trkpt>
      <trkpt lat="42.65444" lon="1.84695">
        <ele>1198.9</ele>
        <time>2016-01-12T09:21:44Z</time>
      </trkpt>
      <trkpt lat="42.65444" lon="1.84704">
        <ele>1200.34</ele>
        <time>2016-01-12T09:21:54Z</time>
      </trkpt>
      <trkpt lat="42.65444" lon="1.84712">
        <ele>1201.79</ele>
        <time>2016-01-12T09:22:03Z</time>
      </trkpt>
      <trkpt lat="42.65444" lon="1.84716">
        <ele>1202.27</ele>
        <time>2016-01-12T09:22:14Z</time>
      </trkpt>
      <trkpt lat="42.65446" lon="1.84725">
        <ele>1203.71</ele>
        <time>2016-01-12T09:22:25Z</time>
      </trkpt>
      <trkpt lat="42.65446" lon="1.84729">
        <ele>1204.19</ele>
        <time>2016-01-12T09:22:29Z</time>
      </trkpt>
      <trkpt lat="42.65446" lon="1.84732">
        <ele>1204.67</ele>
        <time>2016-01-12T09:22:32Z</time>
      </trkpt>
      <trkpt lat="42.65449" lon="1.84744">
        <ele>1206.11</ele>
        <time>2016-01-12T09:22:42Z</time>
      </trkpt>
      <trkpt lat="42.65445" lon="1.84757">
        <ele>1207.55</ele>
        <time>2016-01-12T09:22:53Z</time>
      </trkpt>
      <trkpt lat="42.65442" lon="1.84761">
        <ele>1207.55</ele>
        <time>2016-01-12T09:22:57Z</time>
      </trkpt>
      <trkpt lat="42.65439" lon="1.84768">
        <ele>1207.55</ele>
        <time>2016-01-12T09:23:02Z</time>
      </trkpt>
      <trkpt lat="42.6543" lon="1.8478">
        <ele>1207.55</ele>
        <time>2016-01-12T09:23:11Z</time>
      </trkpt>
      <trkpt lat="42.65424" lon="1.8479">
        <ele>1208.03</ele>
        <time>2016-01-12T09:23:20Z</time>
      </trkpt>
      <trkpt lat="42.65418" lon="1.84799">
        <ele>1206.11</ele>
        <time>2016-01-12T09:23:30Z</time>
      </trkpt>
      <trkpt lat="42.65415" lon="1.8481">
        <ele>1205.63</ele>
        <time>2016-01-12T09:23:38Z</time>
      </trkpt>
      <trkpt lat="42.65414" lon="1.84816">
        <ele>1205.63</ele>
        <time>2016-01-12T09:23:49Z</time>
      </trkpt>
      <trkpt lat="42.65413" lon="1.84819">
        <ele>1206.59</ele>
        <time>2016-01-12T09:23:51Z</time>
      </trkpt>
      <trkpt lat="42.65407" lon="1.84832">
        <ele>1207.07</ele>
        <time>2016-01-12T09:24:02Z</time>
      </trkpt>
      <trkpt lat="42.65403" lon="1.84846">
        <ele>1208.51</ele>
        <time>2016-01-12T09:24:12Z</time>
      </trkpt>
      <trkpt lat="42.65396" lon="1.84858">
        <ele>1209.96</ele>
        <time>2016-01-12T09:24:23Z</time>
      </trkpt>
      <trkpt lat="42.65388" lon="1.84869">
        <ele>1210.44</ele>
        <time>2016-01-12T09:24:33Z</time>
      </trkpt>
      <trkpt lat="42.65389" lon="1.84874">
        <ele>1211.4</ele>
        <time>2016-01-12T09:24:38Z</time>
      </trkpt>
      <trkpt lat="42.65383" lon="1.84888">
        <ele>1212.36</ele>
        <time>2016-01-12T09:24:49Z</time>
      </trkpt>
      <trkpt lat="42.65373" lon="1.84893">
        <ele>1214.28</ele>
        <time>2016-01-12T09:25:00Z</time>
      </trkpt>
      <trkpt lat="42.65362" lon="1.84902">
        <ele>1215.72</ele>
        <time>2016-01-12T09:25:12Z</time>
      </trkpt>
      <trkpt lat="42.65358" lon="1.84907">
        <ele>1217.65</ele>
        <time>2016-01-12T09:25:23Z</time>
      </trkpt>
      <trkpt lat="42.65353" lon="1.84911">
        <ele>1219.09</ele>
        <time>2016-01-12T09:25:32Z</time>
      </trkpt>
      <trkpt lat="42.65346" lon="1.84921">
        <ele>1220.53</ele>
        <time>2016-01-12T09:25:43Z</time>
      </trkpt>
      <trkpt lat="42.65344" lon="1.84924">
        <ele>1221.49</ele>
        <time>2016-01-12T09:25:47Z</time>
      </trkpt>
      <trkpt lat="42.6534" lon="1.8493">
        <ele>1221.97</ele>
        <time>2016-01-12T09:25:56Z</time>
      </trkpt>
      <trkpt lat="42.65334" lon="1.84934">
        <ele>1223.9</ele>
        <time>2016-01-12T09:26:06Z</time>
      </trkpt>
      <trkpt lat="42.65329" lon="1.8494">
        <ele>1225.34</ele>
        <time>2016-01-12T09:26:15Z</time>
      </trkpt>
      <trkpt lat="42.65325" lon="1.84948">
        <ele>1226.78</ele>
        <time>2016-01-12T09:26:24Z</time>
      </trkpt>
      <trkpt lat="42.65324" lon="1.8495">
        <ele>1227.26</ele>
        <time>2016-01-12T09:26:28Z</time>
      </trkpt>
      <trkpt lat="42.65322" lon="1.84956">
        <ele>1229.18</ele>
        <time>2016-01-12T09:26:37Z</time>
      </trkpt>
      <trkpt lat="42.65319" lon="1.84961">
        <ele>1230.62</ele>
        <time>2016-01-12T09:26:46Z</time>
      </trkpt>
      <trkpt lat="42.65313" lon="1.84969">
        <ele>1232.07</ele>
        <time>2016-01-12T09:26:56Z</time>
      </trkpt>
      <trkpt lat="42.6531" lon="1.84974">
        <ele>1233.51</ele>
        <time>2016-01-12T09:27:06Z</time>
      </trkpt>
      <trkpt lat="42.6531" lon="1.84978">
        <ele>1234.95</ele>
        <time>2016-01-12T09:27:15Z</time>
      </trkpt>
      <trkpt lat="42.65306" lon="1.84984">
        <ele>1236.39</ele>
        <time>2016-01-12T09:27:22Z</time>
      </trkpt>
      <trkpt lat="42.653" lon="1.8499">
        <ele>1238.32</ele>
        <time>2016-01-12T09:27:32Z</time>
      </trkpt>
      <trkpt lat="42.65293" lon="1.84998">
        <ele>1240.24</ele>
        <time>2016-01-12T09:27:43Z</time>
      </trkpt>
      <trkpt lat="42.65286" lon="1.85001">
        <ele>1240.24</ele>
        <time>2016-01-12T09:27:53Z</time>
      </trkpt>
      <trkpt lat="42.65279" lon="1.85007">
        <ele>1241.68</ele>
        <time>2016-01-12T09:28:05Z</time>
      </trkpt>
      <trkpt lat="42.65278" lon="1.85008">
        <ele>1242.16</ele>
        <time>2016-01-12T09:28:07Z</time>
      </trkpt>
      <trkpt lat="42.65273" lon="1.85016">
        <ele>1243.12</ele>
        <time>2016-01-12T09:28:17Z</time>
      </trkpt>
      <trkpt lat="42.65266" lon="1.85021">
        <ele>1245.53</ele>
        <time>2016-01-12T09:28:27Z</time>
      </trkpt>
      <trkpt lat="42.65259" lon="1.8503">
        <ele>1246.97</ele>
        <time>2016-01-12T09:28:36Z</time>
      </trkpt>
      <trkpt lat="42.65255" lon="1.85035">
        <ele>1247.93</ele>
        <time>2016-01-12T09:28:45Z</time>
      </trkpt>
      <trkpt lat="42.65253" lon="1.85035">
        <ele>1248.41</ele>
        <time>2016-01-12T09:28:48Z</time>
      </trkpt>
      <trkpt lat="42.65248" lon="1.85042">
        <ele>1249.85</ele>
        <time>2016-01-12T09:28:59Z</time>
      </trkpt>
      <trkpt lat="42.65243" lon="1.85051">
        <ele>1251.29</ele>
        <time>2016-01-12T09:29:08Z</time>
      </trkpt>
      <trkpt lat="42.65239" lon="1.85056">
        <ele>1252.74</ele>
        <time>2016-01-12T09:29:17Z</time>
      </trkpt>
      <trkpt lat="42.65233" lon="1.85061">
        <ele>1255.14</ele>
        <time>2016-01-12T09:29:28Z</time>
      </trkpt>
      <trkpt lat="42.65227" lon="1.85067">
        <ele>1256.58</ele>
        <time>2016-01-12T09:29:37Z</time>
      </trkpt>
      <trkpt lat="42.65227" lon="1.85067">
        <ele>1257.06</ele>
        <time>2016-01-12T09:29:39Z</time>
      </trkpt>
      <trkpt lat="42.65224" lon="1.8507">
        <ele>1258.5</ele>
        <time>2016-01-12T09:29:47Z</time>
      </trkpt>
      <trkpt lat="42.65221" lon="1.85074">
        <ele>1259.46</ele>
        <time>2016-01-12T09:29:57Z</time>
      </trkpt>
      <trkpt lat="42.6522" lon="1.85076">
        <ele>1260.91</ele>
        <time>2016-01-12T09:30:04Z</time>
      </trkpt>
      <trkpt lat="42.6522" lon="1.85082">
        <ele>1262.35</ele>
        <time>2016-01-12T09:30:14Z</time>
      </trkpt>
      <trkpt lat="42.6522" lon="1.85088">
        <ele>1263.79</ele>
        <time>2016-01-12T09:30:24Z</time>
      </trkpt>
      <trkpt lat="42.65219" lon="1.85094">
        <ele>1265.23</ele>
        <time>2016-01-12T09:30:32Z</time>
      </trkpt>
      <trkpt lat="42.65214" lon="1.85098">
        <ele>1267.16</ele>
        <time>2016-01-12T09:30:43Z</time>
      </trkpt>
      <trkpt lat="42.65217" lon="1.85099">
        <ele>1268.6</ele>
        <time>2016-01-12T09:30:53Z</time>
      </trkpt>
      <trkpt lat="42.65217" lon="1.85099">
        <ele>1268.6</ele>
        <time>2016-01-12T09:31:05Z</time>
      </trkpt>
      <trkpt lat="42.65216" lon="1.85099">
        <ele>1269.56</ele>
        <time>2016-01-12T09:31:16Z</time>
      </trkpt>
      <trkpt lat="42.65216" lon="1.851">
        <ele>1270.04</ele>
        <time>2016-01-12T09:31:30Z</time>
      </trkpt>
      <trkpt lat="42.65215" lon="1.85102">
        <ele>1269.56</ele>
        <time>2016-01-12T09:31:39Z</time>
      </trkpt>
      <trkpt lat="42.65215" lon="1.85102">
        <ele>1269.08</ele>
        <time>2016-01-12T09:31:42Z</time>
      </trkpt>
      <trkpt lat="42.65216" lon="1.85099">
        <ele>1268.6</ele>
        <time>2016-01-12T09:31:50Z</time>
      </trkpt>
      <trkpt lat="42.65217" lon="1.85098">
        <ele>1268.6</ele>
        <time>2016-01-12T09:31:59Z</time>
      </trkpt>
      <trkpt lat="42.65214" lon="1.851">
        <ele>1269.08</ele>
        <time>2016-01-12T09:32:10Z</time>
      </trkpt>
      <trkpt lat="42.65212" lon="1.85103">
        <ele>1270.52</ele>
        <time>2016-01-12T09:32:21Z</time>
      </trkpt>
      <trkpt lat="42.65212" lon="1.85104">
        <ele>1270.04</ele>
        <time>2016-01-12T09:32:34Z</time>
      </trkpt>
      <trkpt lat="42.65211" lon="1.85103">
        <ele>1266.19</ele>
        <time>2016-01-12T09:32:50Z</time>
      </trkpt>
      <trkpt lat="42.65211" lon="1.85103">
        <ele>1270.04</ele>
        <time>2016-01-12T09:32:51Z</time>
      </trkpt>
      <trkpt lat="42.65211" lon="1.85102">
        <ele>1269.56</ele>
        <time>2016-01-12T09:33:04Z</time>
      </trkpt>
      <trkpt lat="42.65211" lon="1.85103">
        <ele>1269.08</ele>
        <time>2016-01-12T09:33:21Z</time>
      </trkpt>
      <trkpt lat="42.6521" lon="1.85102">
        <ele>1270.04</ele>
        <time>2016-01-12T09:33:32Z</time>
      </trkpt>
      <trkpt lat="42.6521" lon="1.851">
        <ele>1269.56</ele>
        <time>2016-01-12T09:33:45Z</time>
      </trkpt>
      <trkpt lat="42.65209" lon="1.85101">
        <ele>1269.56</ele>
        <time>2016-01-12T09:33:58Z</time>
      </trkpt>
      <trkpt lat="42.65209" lon="1.85101">
        <ele>1270.04</ele>
        <time>2016-01-12T09:34:15Z</time>
      </trkpt>
      <trkpt lat="42.6521" lon="1.85103">
        <ele>1269.56</ele>
        <time>2016-01-12T09:34:26Z</time>
      </trkpt>
      <trkpt lat="42.65208" lon="1.85104">
        <ele>1270.04</ele>
        <time>2016-01-12T09:34:38Z</time>
      </trkpt>
      <trkpt lat="42.65209" lon="1.85109">
        <ele>1271.48</ele>
        <time>2016-01-12T09:34:46Z</time>
      </trkpt>
      <trkpt lat="42.65207" lon="1.85113">
        <ele>1272.92</ele>
        <time>2016-01-12T09:34:54Z</time>
      </trkpt>
      <trkpt lat="42.65205" lon="1.85114">
        <ele>1274.36</ele>
        <time>2016-01-12T09:35:01Z</time>
      </trkpt>
      <trkpt lat="42.65201" lon="1.85117">
        <ele>1275.81</ele>
        <time>2016-01-12T09:35:07Z</time>
      </trkpt>
      <trkpt lat="42.652" lon="1.85119">
        <ele>1277.25</ele>
        <time>2016-01-12T09:35:15Z</time>
      </trkpt>
      <trkpt lat="42.65195" lon="1.85121">
        <ele>1279.17</ele>
        <time>2016-01-12T09:35:24Z</time>
      </trkpt>
      <trkpt lat="42.65195" lon="1.85125">
        <ele>1281.09</ele>
        <time>2016-01-12T09:35:33Z</time>
      </trkpt>
      <trkpt lat="42.65193" lon="1.85126">
        <ele>1282.06</ele>
        <time>2016-01-12T09:35:37Z</time>
      </trkpt>
      <trkpt lat="42.65189" lon="1.85129">
        <ele>1283.98</ele>
        <time>2016-01-12T09:35:48Z</time>
      </trkpt>
      <trkpt lat="42.65189" lon="1.85129">
        <ele>1283.98</ele>
        <time>2016-01-12T09:35:50Z</time>
      </trkpt>
      <trkpt lat="42.65188" lon="1.85132">
        <ele>1285.9</ele>
        <time>2016-01-12T09:36:00Z</time>
      </trkpt>
      <trkpt lat="42.6519" lon="1.85138">
        <ele>1287.82</ele>
        <time>2016-01-12T09:36:10Z</time>
      </trkpt>
      <trkpt lat="42.65188" lon="1.85144">
        <ele>1289.27</ele>
        <time>2016-01-12T09:36:19Z</time>
      </trkpt>
      <trkpt lat="42.65193" lon="1.85149">
        <ele>1290.71</ele>
        <time>2016-01-12T09:36:28Z</time>
      </trkpt>
      <trkpt lat="42.65193" lon="1.85158">
        <ele>1292.63</ele>
        <time>2016-01-12T09:36:38Z</time>
      </trkpt>
      <trkpt lat="42.6519" lon="1.85164">
        <ele>1294.55</ele>
        <time>2016-01-12T09:36:48Z</time>
      </trkpt>
      <trkpt lat="42.65191" lon="1.8517">
        <ele>1295.51</ele>
        <time>2016-01-12T09:36:56Z</time>
      </trkpt>
      <trkpt lat="42.65191" lon="1.85176">
        <ele>1296.96</ele>
        <time>2016-01-12T09:37:06Z</time>
      </trkpt>
      <trkpt lat="42.65189" lon="1.85181">
        <ele>1298.4</ele>
        <time>2016-01-12T09:37:16Z</time>
      </trkpt>
      <trkpt lat="42.65185" lon="1.85187">
        <ele>1300.8</ele>
        <time>2016-01-12T09:37:26Z</time>
      </trkpt>
      <trkpt lat="42.65186" lon="1.85191">
        <ele>1302.24</ele>
        <time>2016-01-12T09:37:36Z</time>
      </trkpt>
      <trkpt lat="42.65186" lon="1.85191">
        <ele>1303.2</ele>
        <time>2016-01-12T09:37:46Z</time>
      </trkpt>
      <trkpt lat="42.65185" lon="1.8519">
        <ele>1302.72</ele>
        <time>2016-01-12T09:38:06Z</time>
      </trkpt>
      <trkpt lat="42.65186" lon="1.85189">
        <ele>1303.69</ele>
        <time>2016-01-12T09:38:17Z</time>
      </trkpt>
      <trkpt lat="42.65189" lon="1.85192">
        <ele>1304.65</ele>
        <time>2016-01-12T09:38:26Z</time>
      </trkpt>
      <trkpt lat="42.65188" lon="1.85199">
        <ele>1306.57</ele>
        <time>2016-01-12T09:38:34Z</time>
      </trkpt>
      <trkpt lat="42.65187" lon="1.85203">
        <ele>1308.01</ele>
        <time>2016-01-12T09:38:40Z</time>
      </trkpt>
      <trkpt lat="42.65186" lon="1.8521">
        <ele>1309.45</ele>
        <time>2016-01-12T09:38:49Z</time>
      </trkpt>
      <trkpt lat="42.65188" lon="1.85212">
        <ele>1310.9</ele>
        <time>2016-01-12T09:38:59Z</time>
      </trkpt>
      <trkpt lat="42.65193" lon="1.85219">
        <ele>1312.82</ele>
        <time>2016-01-12T09:39:10Z</time>
      </trkpt>
      <trkpt lat="42.6519" lon="1.85221">
        <ele>1313.78</ele>
        <time>2016-01-12T09:39:19Z</time>
      </trkpt>
      <trkpt lat="42.65185" lon="1.85224">
        <ele>1314.74</ele>
        <time>2016-01-12T09:39:30Z</time>
      </trkpt>
      <trkpt lat="42.65185" lon="1.85224">
        <ele>1314.26</ele>
        <time>2016-01-12T09:39:31Z</time>
      </trkpt>
      <trkpt lat="42.6518" lon="1.85229">
        <ele>1314.74</ele>
        <time>2016-01-12T09:39:40Z</time>
      </trkpt>
      <trkpt lat="42.65173" lon="1.85234">
        <ele>1316.18</ele>
        <time>2016-01-12T09:39:50Z</time>
      </trkpt>
      <trkpt lat="42.65168" lon="1.85234">
        <ele>1315.7</ele>
        <time>2016-01-12T09:39:56Z</time>
      </trkpt>
      <trkpt lat="42.65159" lon="1.85235">
        <ele>1317.14</ele>
        <time>2016-01-12T09:40:05Z</time>
      </trkpt>
      <trkpt lat="42.65154" lon="1.85235">
        <ele>1317.14</ele>
        <time>2016-01-12T09:40:11Z</time>
      </trkpt>
      <trkpt lat="42.65146" lon="1.85237">
        <ele>1318.59</ele>
        <time>2016-01-12T09:40:20Z</time>
      </trkpt>
      <trkpt lat="42.65135" lon="1.8524">
        <ele>1319.55</ele>
        <time>2016-01-12T09:40:29Z</time>
      </trkpt>
      <trkpt lat="42.6513" lon="1.85241">
        <ele>1320.03</ele>
        <time>2016-01-12T09:40:37Z</time>
      </trkpt>
      <trkpt lat="42.65122" lon="1.85246">
        <ele>1321.95</ele>
        <time>2016-01-12T09:40:48Z</time>
      </trkpt>
      <trkpt lat="42.65118" lon="1.8525">
        <ele>1322.91</ele>
        <time>2016-01-12T09:40:57Z</time>
      </trkpt>
      <trkpt lat="42.65114" lon="1.85254">
        <ele>1324.35</ele>
        <time>2016-01-12T09:41:07Z</time>
      </trkpt>
      <trkpt lat="42.65113" lon="1.85257">
        <ele>1325.8</ele>
        <time>2016-01-12T09:41:12Z</time>
      </trkpt>
      <trkpt lat="42.65111" lon="1.85265">
        <ele>1327.24</ele>
        <time>2016-01-12T09:41:21Z</time>
      </trkpt>
      <trkpt lat="42.65108" lon="1.85271">
        <ele>1328.2</ele>
        <time>2016-01-12T09:41:30Z</time>
      </trkpt>
      <trkpt lat="42.65104" lon="1.85276">
        <ele>1329.16</ele>
        <time>2016-01-12T09:41:38Z</time>
      </trkpt>
      <trkpt lat="42.65099" lon="1.85278">
        <ele>1331.08</ele>
        <time>2016-01-12T09:41:46Z</time>
      </trkpt>
      <trkpt lat="42.65091" lon="1.85279">
        <ele>1332.04</ele>
        <time>2016-01-12T09:41:55Z</time>
      </trkpt>
      <trkpt lat="42.65085" lon="1.85282">
        <ele>1332.52</ele>
        <time>2016-01-12T09:42:04Z</time>
      </trkpt>
      <trkpt lat="42.65079" lon="1.85286">
        <ele>1333.49</ele>
        <time>2016-01-12T09:42:12Z</time>
      </trkpt>
      <trkpt lat="42.65072" lon="1.85292">
        <ele>1335.41</ele>
        <time>2016-01-12T09:42:22Z</time>
      </trkpt>
      <trkpt lat="42.65066" lon="1.85301">
        <ele>1335.89</ele>
        <time>2016-01-12T09:42:31Z</time>
      </trkpt>
      <trkpt lat="42.65062" lon="1.85305">
        <ele>1336.85</ele>
        <time>2016-01-12T09:42:37Z</time>
      </trkpt>
      <trkpt lat="42.65058" lon="1.8531">
        <ele>1338.29</ele>
        <time>2016-01-12T09:42:47Z</time>
      </trkpt>
      <trkpt lat="42.65055" lon="1.8532">
        <ele>1339.73</ele>
        <time>2016-01-12T09:42:56Z</time>
      </trkpt>
      <trkpt lat="42.65054" lon="1.85325">
        <ele>1340.7</ele>
        <time>2016-01-12T09:43:03Z</time>
      </trkpt>
      <trkpt lat="42.65051" lon="1.85332">
        <ele>1342.14</ele>
        <time>2016-01-12T09:43:11Z</time>
      </trkpt>
      <trkpt lat="42.65048" lon="1.85337">
        <ele>1343.1</ele>
        <time>2016-01-12T09:43:19Z</time>
      </trkpt>
      <trkpt lat="42.65045" lon="1.8534">
        <ele>1343.58</ele>
        <time>2016-01-12T09:43:23Z</time>
      </trkpt>
      <trkpt lat="42.65041" lon="1.85349">
        <ele>1345.02</ele>
        <time>2016-01-12T09:43:33Z</time>
      </trkpt>
      <trkpt lat="42.65039" lon="1.85354">
        <ele>1346.46</ele>
        <time>2016-01-12T09:43:41Z</time>
      </trkpt>
      <trkpt lat="42.65035" lon="1.85363">
        <ele>1348.39</ele>
        <time>2016-01-12T09:43:51Z</time>
      </trkpt>
      <trkpt lat="42.65033" lon="1.85371">
        <ele>1349.83</ele>
        <time>2016-01-12T09:44:00Z</time>
      </trkpt>
      <trkpt lat="42.65032" lon="1.85381">
        <ele>1351.27</ele>
        <time>2016-01-12T09:44:08Z</time>
      </trkpt>
      <trkpt lat="42.65029" lon="1.85389">
        <ele>1352.23</ele>
        <time>2016-01-12T09:44:17Z</time>
      </trkpt>
      <trkpt lat="42.65025" lon="1.85396">
        <ele>1354.15</ele>
        <time>2016-01-12T09:44:27Z</time>
      </trkpt>
      <trkpt lat="42.65026" lon="1.85404">
        <ele>1355.12</ele>
        <time>2016-01-12T09:44:36Z</time>
      </trkpt>
      <trkpt lat="42.65023" lon="1.85413">
        <ele>1356.56</ele>
        <time>2016-01-12T09:44:45Z</time>
      </trkpt>
      <trkpt lat="42.65018" lon="1.85421">
        <ele>1358.48</ele>
        <time>2016-01-12T09:44:54Z</time>
      </trkpt>
      <trkpt lat="42.65015" lon="1.85427">
        <ele>1359.92</ele>
        <time>2016-01-12T09:45:02Z</time>
      </trkpt>
      <trkpt lat="42.65012" lon="1.85435">
        <ele>1360.4</ele>
        <time>2016-01-12T09:45:10Z</time>
      </trkpt>
      <trkpt lat="42.65011" lon="1.85441">
        <ele>1360.88</ele>
        <time>2016-01-12T09:45:23Z</time>
      </trkpt>
      <trkpt lat="42.65006" lon="1.8545">
        <ele>1362.81</ele>
        <time>2016-01-12T09:45:32Z</time>
      </trkpt>
      <trkpt lat="42.65005" lon="1.85455">
        <ele>1363.29</ele>
        <time>2016-01-12T09:45:40Z</time>
      </trkpt>
      <trkpt lat="42.65001" lon="1.85464">
        <ele>1365.21</ele>
        <time>2016-01-12T09:45:50Z</time>
      </trkpt>
      <trkpt lat="42.64998" lon="1.85468">
        <ele>1366.17</ele>
        <time>2016-01-12T09:45:59Z</time>
      </trkpt>
      <trkpt lat="42.64991" lon="1.85474">
        <ele>1367.61</ele>
        <time>2016-01-12T09:46:08Z</time>
      </trkpt>
      <trkpt lat="42.6499" lon="1.85474">
        <ele>1368.09</ele>
        <time>2016-01-12T09:46:09Z</time>
      </trkpt>
      <trkpt lat="42.64984" lon="1.85478">
        <ele>1368.09</ele>
        <time>2016-01-12T09:46:19Z</time>
      </trkpt>
      <trkpt lat="42.64984" lon="1.85477">
        <ele>1367.61</ele>
        <time>2016-01-12T09:46:33Z</time>
      </trkpt>
      <trkpt lat="42.64984" lon="1.85478">
        <ele>1367.61</ele>
        <time>2016-01-12T09:46:50Z</time>
      </trkpt>
      <trkpt lat="42.64982" lon="1.85481">
        <ele>1368.09</ele>
        <time>2016-01-12T09:47:00Z</time>
      </trkpt>
      <trkpt lat="42.64981" lon="1.85481">
        <ele>1368.09</ele>
        <time>2016-01-12T09:47:20Z</time>
      </trkpt>
      <trkpt lat="42.64981" lon="1.8548">
        <ele>1367.61</ele>
        <time>2016-01-12T09:47:31Z</time>
      </trkpt>
      <trkpt lat="42.64978" lon="1.85482">
        <ele>1368.09</ele>
        <time>2016-01-12T09:47:44Z</time>
      </trkpt>
      <trkpt lat="42.64972" lon="1.85487">
        <ele>1370.5</ele>
        <time>2016-01-12T09:47:50Z</time>
      </trkpt>
      <trkpt lat="42.64971" lon="1.85489">
        <ele>1368.09</ele>
        <time>2016-01-12T09:47:52Z</time>
      </trkpt>
      <trkpt lat="42.64968" lon="1.85493">
        <ele>1368.09</ele>
        <time>2016-01-12T09:47:56Z</time>
      </trkpt>
      <trkpt lat="42.64962" lon="1.85498">
        <ele>1370.02</ele>
        <time>2016-01-12T09:48:04Z</time>
      </trkpt>
      <trkpt lat="42.64954" lon="1.85506">
        <ele>1370.02</ele>
        <time>2016-01-12T09:48:14Z</time>
      </trkpt>
      <trkpt lat="42.64953" lon="1.85507">
        <ele>1370.02</ele>
        <time>2016-01-12T09:48:15Z</time>
      </trkpt>
      <trkpt lat="42.64949" lon="1.85519">
        <ele>1370.02</ele>
        <time>2016-01-12T09:48:25Z</time>
      </trkpt>
      <trkpt lat="42.64948" lon="1.85533">
        <ele>1370.98</ele>
        <time>2016-01-12T09:48:34Z</time>
      </trkpt>
      <trkpt lat="42.64948" lon="1.85537">
        <ele>1370.5</ele>
        <time>2016-01-12T09:48:38Z</time>
      </trkpt>
      <trkpt lat="42.64947" lon="1.85548">
        <ele>1371.46</ele>
        <time>2016-01-12T09:48:47Z</time>
      </trkpt>
      <trkpt lat="42.64945" lon="1.85557">
        <ele>1373.38</ele>
        <time>2016-01-12T09:48:55Z</time>
      </trkpt>
      <trkpt lat="42.64943" lon="1.85568">
        <ele>1374.34</ele>
        <time>2016-01-12T09:49:05Z</time>
      </trkpt>
      <trkpt lat="42.64939" lon="1.85576">
        <ele>1375.3</ele>
        <time>2016-01-12T09:49:13Z</time>
      </trkpt>
      <trkpt lat="42.64938" lon="1.85577">
        <ele>1375.3</ele>
        <time>2016-01-12T09:49:14Z</time>
      </trkpt>
      <trkpt lat="42.64931" lon="1.85588">
        <ele>1375.3</ele>
        <time>2016-01-12T09:49:25Z</time>
      </trkpt>
      <trkpt lat="42.6493" lon="1.85597">
        <ele>1376.26</ele>
        <time>2016-01-12T09:49:33Z</time>
      </trkpt>
      <trkpt lat="42.6493" lon="1.85599">
        <ele>1376.26</ele>
        <time>2016-01-12T09:49:35Z</time>
      </trkpt>
      <trkpt lat="42.64922" lon="1.85608">
        <ele>1378.67</ele>
        <time>2016-01-12T09:49:45Z</time>
      </trkpt>
      <trkpt lat="42.64914" lon="1.85615">
        <ele>1379.15</ele>
        <time>2016-01-12T09:49:56Z</time>
      </trkpt>
      <trkpt lat="42.64912" lon="1.85619">
        <ele>1380.11</ele>
        <time>2016-01-12T09:49:59Z</time>
      </trkpt>
      <trkpt lat="42.64909" lon="1.85626">
        <ele>1381.55</ele>
        <time>2016-01-12T09:50:08Z</time>
      </trkpt>
      <trkpt lat="42.64908" lon="1.85628">
        <ele>1381.55</ele>
        <time>2016-01-12T09:50:10Z</time>
      </trkpt>
      <trkpt lat="42.64905" lon="1.85634">
        <ele>1382.51</ele>
        <time>2016-01-12T09:50:15Z</time>
      </trkpt>
      <trkpt lat="42.649" lon="1.85639">
        <ele>1382.03</ele>
        <time>2016-01-12T09:50:20Z</time>
      </trkpt>
      <trkpt lat="42.64898" lon="1.85641">
        <ele>1382.03</ele>
        <time>2016-01-12T09:50:22Z</time>
      </trkpt>
      <trkpt lat="42.64893" lon="1.85651">
        <ele>1382.51</ele>
        <time>2016-01-12T09:50:32Z</time>
      </trkpt>
      <trkpt lat="42.64892" lon="1.85654">
        <ele>1382.99</ele>
        <time>2016-01-12T09:50:36Z</time>
      </trkpt>
      <trkpt lat="42.64887" lon="1.85664">
        <ele>1382.51</ele>
        <time>2016-01-12T09:50:46Z</time>
      </trkpt>
      <trkpt lat="42.64883" lon="1.8567">
        <ele>1383.47</ele>
        <time>2016-01-12T09:50:54Z</time>
      </trkpt>
      <trkpt lat="42.64879" lon="1.85679">
        <ele>1384.44</ele>
        <time>2016-01-12T09:51:03Z</time>
      </trkpt>
      <trkpt lat="42.64875" lon="1.85685">
        <ele>1383.96</ele>
        <time>2016-01-12T09:51:12Z</time>
      </trkpt>
      <trkpt lat="42.6487" lon="1.85694">
        <ele>1383.47</ele>
        <time>2016-01-12T09:51:22Z</time>
      </trkpt>
      <trkpt lat="42.64867" lon="1.85703">
        <ele>1384.44</ele>
        <time>2016-01-12T09:51:31Z</time>
      </trkpt>
      <trkpt lat="42.6486" lon="1.85713">
        <ele>1384.44</ele>
        <time>2016-01-12T09:51:40Z</time>
      </trkpt>
      <trkpt lat="42.64855" lon="1.85722">
        <ele>1384.44</ele>
        <time>2016-01-12T09:51:49Z</time>
      </trkpt>
      <trkpt lat="42.64854" lon="1.85723">
        <ele>1383.96</ele>
        <time>2016-01-12T09:51:51Z</time>
      </trkpt>
      <trkpt lat="42.64852" lon="1.85724">
        <ele>1383.47</ele>
        <time>2016-01-12T09:51:52Z</time>
      </trkpt>
      <trkpt lat="42.64847" lon="1.85727">
        <ele>1383.96</ele>
        <time>2016-01-12T09:51:57Z</time>
      </trkpt>
      <trkpt lat="42.64838" lon="1.85733">
        <ele>1384.92</ele>
        <time>2016-01-12T09:52:05Z</time>
      </trkpt>
      <trkpt lat="42.64832" lon="1.85741">
        <ele>1384.92</ele>
        <time>2016-01-12T09:52:14Z</time>
      </trkpt>
      <trkpt lat="42.64827" lon="1.85746">
        <ele>1384.92</ele>
        <time>2016-01-12T09:52:19Z</time>
      </trkpt>
      <trkpt lat="42.64819" lon="1.85753">
        <ele>1385.88</ele>
        <time>2016-01-12T09:52:29Z</time>
      </trkpt>
      <trkpt lat="42.64814" lon="1.85756">
        <ele>1386.84</ele>
        <time>2016-01-12T09:52:35Z</time>
      </trkpt>
      <trkpt lat="42.64811" lon="1.85758">
        <ele>1387.8</ele>
        <time>2016-01-12T09:52:39Z</time>
      </trkpt>
      <trkpt lat="42.64804" lon="1.85765">
        <ele>1388.76</ele>
        <time>2016-01-12T09:52:49Z</time>
      </trkpt>
      <trkpt lat="42.64799" lon="1.8577">
        <ele>1391.17</ele>
        <time>2016-01-12T09:52:59Z</time>
      </trkpt>
      <trkpt lat="42.64798" lon="1.85771">
        <ele>1391.17</ele>
        <time>2016-01-12T09:53:01Z</time>
      </trkpt>
      <trkpt lat="42.64795" lon="1.85776">
        <ele>1393.09</ele>
        <time>2016-01-12T09:53:09Z</time>
      </trkpt>
      <trkpt lat="42.64791" lon="1.85779">
        <ele>1392.61</ele>
        <time>2016-01-12T09:53:14Z</time>
      </trkpt>
      <trkpt lat="42.64787" lon="1.85788">
        <ele>1393.57</ele>
        <time>2016-01-12T09:53:23Z</time>
      </trkpt>
      <trkpt lat="42.64784" lon="1.85789">
        <ele>1394.05</ele>
        <time>2016-01-12T09:53:27Z</time>
      </trkpt>
      <trkpt lat="42.64782" lon="1.8579">
        <ele>1394.05</ele>
        <time>2016-01-12T09:53:30Z</time>
      </trkpt>
      <trkpt lat="42.64773" lon="1.85797">
        <ele>1394.53</ele>
        <time>2016-01-12T09:53:39Z</time>
      </trkpt>
      <trkpt lat="42.6477" lon="1.85803">
        <ele>1396.45</ele>
        <time>2016-01-12T09:53:47Z</time>
      </trkpt>
      <trkpt lat="42.64765" lon="1.8581">
        <ele>1398.37</ele>
        <time>2016-01-12T09:53:56Z</time>
      </trkpt>
      <trkpt lat="42.64765" lon="1.85813">
        <ele>1399.34</ele>
        <time>2016-01-12T09:53:58Z</time>
      </trkpt>
      <trkpt lat="42.64763" lon="1.85815">
        <ele>1400.3</ele>
        <time>2016-01-12T09:54:01Z</time>
      </trkpt>
      <trkpt lat="42.64758" lon="1.85819">
        <ele>1399.82</ele>
        <time>2016-01-12T09:54:07Z</time>
      </trkpt>
      <trkpt lat="42.64752" lon="1.8583">
        <ele>1400.3</ele>
        <time>2016-01-12T09:54:17Z</time>
      </trkpt>
      <trkpt lat="42.64749" lon="1.85832">
        <ele>1401.26</ele>
        <time>2016-01-12T09:54:20Z</time>
      </trkpt>
      <trkpt lat="42.64743" lon="1.85835">
        <ele>1403.18</ele>
        <time>2016-01-12T09:54:29Z</time>
      </trkpt>
      <trkpt lat="42.64742" lon="1.85841">
        <ele>1403.18</ele>
        <time>2016-01-12T09:54:37Z</time>
      </trkpt>
      <trkpt lat="42.64741" lon="1.85844">
        <ele>1404.62</ele>
        <time>2016-01-12T09:54:45Z</time>
      </trkpt>
      <trkpt lat="42.64739" lon="1.85848">
        <ele>1405.58</ele>
        <time>2016-01-12T09:54:54Z</time>
      </trkpt>
      <trkpt lat="42.64736" lon="1.85853">
        <ele>1407.03</ele>
        <time>2016-01-12T09:55:03Z</time>
      </trkpt>
      <trkpt lat="42.64734" lon="1.8586">
        <ele>1408.95</ele>
        <time>2016-01-12T09:55:12Z</time>
      </trkpt>
      <trkpt lat="42.64731" lon="1.85865">
        <ele>1409.91</ele>
        <time>2016-01-12T09:55:21Z</time>
      </trkpt>
      <trkpt lat="42.64729" lon="1.85865">
        <ele>1410.39</ele>
        <time>2016-01-12T09:55:23Z</time>
      </trkpt>
      <trkpt lat="42.64727" lon="1.8587">
        <ele>1410.87</ele>
        <time>2016-01-12T09:55:30Z</time>
      </trkpt>
      <trkpt lat="42.64727" lon="1.85874">
        <ele>1411.83</ele>
        <time>2016-01-12T09:55:39Z</time>
      </trkpt>
      <trkpt lat="42.64727" lon="1.85875">
        <ele>1411.83</ele>
        <time>2016-01-12T09:55:51Z</time>
      </trkpt>
      <trkpt lat="42.64726" lon="1.85878">
        <ele>1411.83</ele>
        <time>2016-01-12T09:55:54Z</time>
      </trkpt>
      <trkpt lat="42.64726" lon="1.85881">
        <ele>1412.31</ele>
        <time>2016-01-12T09:55:57Z</time>
      </trkpt>
      <trkpt lat="42.64721" lon="1.85892">
        <ele>1413.76</ele>
        <time>2016-01-12T09:56:07Z</time>
      </trkpt>
      <trkpt lat="42.64717" lon="1.85902">
        <ele>1414.24</ele>
        <time>2016-01-12T09:56:16Z</time>
      </trkpt>
      <trkpt lat="42.64714" lon="1.85903">
        <ele>1413.76</ele>
        <time>2016-01-12T09:56:27Z</time>
      </trkpt>
      <trkpt lat="42.64708" lon="1.85908">
        <ele>1415.68</ele>
        <time>2016-01-12T09:56:36Z</time>
      </trkpt>
      <trkpt lat="42.64705" lon="1.85912">
        <ele>1417.6</ele>
        <time>2016-01-12T09:56:45Z</time>
      </trkpt>
      <trkpt lat="42.647" lon="1.85915">
        <ele>1418.56</ele>
        <time>2016-01-12T09:56:59Z</time>
      </trkpt>
      <trkpt lat="42.64695" lon="1.85919">
        <ele>1420</ele>
        <time>2016-01-12T09:57:07Z</time>
      </trkpt>
      <trkpt lat="42.64694" lon="1.8592">
        <ele>1420.49</ele>
        <time>2016-01-12T09:57:08Z</time>
      </trkpt>
      <trkpt lat="42.64693" lon="1.85921">
        <ele>1420.49</ele>
        <time>2016-01-12T09:57:11Z</time>
      </trkpt>
      <trkpt lat="42.64689" lon="1.85923">
        <ele>1422.41</ele>
        <time>2016-01-12T09:57:20Z</time>
      </trkpt>
      <trkpt lat="42.64685" lon="1.85925">
        <ele>1424.33</ele>
        <time>2016-01-12T09:57:28Z</time>
      </trkpt>
      <trkpt lat="42.64681" lon="1.85929">
        <ele>1425.77</ele>
        <time>2016-01-12T09:57:36Z</time>
      </trkpt>
      <trkpt lat="42.6468" lon="1.8593">
        <ele>1426.73</ele>
        <time>2016-01-12T09:57:39Z</time>
      </trkpt>
      <trkpt lat="42.64677" lon="1.85932">
        <ele>1428.18</ele>
        <time>2016-01-12T09:57:49Z</time>
      </trkpt>
      <trkpt lat="42.64675" lon="1.85932">
        <ele>1427.7</ele>
        <time>2016-01-12T09:58:08Z</time>
      </trkpt>
      <trkpt lat="42.64675" lon="1.85931">
        <ele>1427.7</ele>
        <time>2016-01-12T09:58:30Z</time>
      </trkpt>
      <trkpt lat="42.64675" lon="1.85931">
        <ele>1428.66</ele>
        <time>2016-01-12T09:58:43Z</time>
      </trkpt>
      <trkpt lat="42.64674" lon="1.85933">
        <ele>1428.18</ele>
        <time>2016-01-12T09:58:52Z</time>
      </trkpt>
      <trkpt lat="42.6467" lon="1.85939">
        <ele>1430.1</ele>
        <time>2016-01-12T09:58:59Z</time>
      </trkpt>
      <trkpt lat="42.64666" lon="1.85945">
        <ele>1431.54</ele>
        <time>2016-01-12T09:59:04Z</time>
      </trkpt>
      <trkpt lat="42.64662" lon="1.85952">
        <ele>1432.98</ele>
        <time>2016-01-12T09:59:11Z</time>
      </trkpt>
      <trkpt lat="42.6466" lon="1.85955">
        <ele>1433.94</ele>
        <time>2016-01-12T09:59:13Z</time>
      </trkpt>
      <trkpt lat="42.64659" lon="1.85957">
        <ele>1434.42</ele>
        <time>2016-01-12T09:59:16Z</time>
      </trkpt>
      <trkpt lat="42.64657" lon="1.85959">
        <ele>1435.39</ele>
        <time>2016-01-12T09:59:19Z</time>
      </trkpt>
      <trkpt lat="42.64654" lon="1.85962">
        <ele>1436.35</ele>
        <time>2016-01-12T09:59:23Z</time>
      </trkpt>
      <trkpt lat="42.6465" lon="1.85962">
        <ele>1436.35</ele>
        <time>2016-01-12T09:59:27Z</time>
      </trkpt>
      <trkpt lat="42.64647" lon="1.85965">
        <ele>1436.83</ele>
        <time>2016-01-12T09:59:32Z</time>
      </trkpt>
      <trkpt lat="42.64642" lon="1.8597">
        <ele>1438.27</ele>
        <time>2016-01-12T09:59:39Z</time>
      </trkpt>
      <trkpt lat="42.64642" lon="1.85972">
        <ele>1439.23</ele>
        <time>2016-01-12T09:59:41Z</time>
      </trkpt>
      <trkpt lat="42.64641" lon="1.85976">
        <ele>1441.15</ele>
        <time>2016-01-12T09:59:50Z</time>
      </trkpt>
      <trkpt lat="42.64639" lon="1.85983">
        <ele>1442.11</ele>
        <time>2016-01-12T09:59:58Z</time>
      </trkpt>
      <trkpt lat="42.64638" lon="1.85989">
        <ele>1443.56</ele>
        <time>2016-01-12T10:00:05Z</time>
      </trkpt>
      <trkpt lat="42.64636" lon="1.85992">
        <ele>1444.52</ele>
        <time>2016-01-12T10:00:10Z</time>
      </trkpt>
      <trkpt lat="42.6463" lon="1.85998">
        <ele>1446.44</ele>
        <time>2016-01-12T10:00:20Z</time>
      </trkpt>
      <trkpt lat="42.64631" lon="1.86007">
        <ele>1446.44</ele>
        <time>2016-01-12T10:00:29Z</time>
      </trkpt>
      <trkpt lat="42.6463" lon="1.86013">
        <ele>1446.92</ele>
        <time>2016-01-12T10:00:36Z</time>
      </trkpt>
      <trkpt lat="42.64627" lon="1.86021">
        <ele>1448.36</ele>
        <time>2016-01-12T10:00:45Z</time>
      </trkpt>
      <trkpt lat="42.64622" lon="1.86025">
        <ele>1448.36</ele>
        <time>2016-01-12T10:00:56Z</time>
      </trkpt>
      <trkpt lat="42.64619" lon="1.86025">
        <ele>1449.81</ele>
        <time>2016-01-12T10:01:06Z</time>
      </trkpt>
      <trkpt lat="42.64615" lon="1.86024">
        <ele>1450.77</ele>
        <time>2016-01-12T10:01:14Z</time>
      </trkpt>
      <trkpt lat="42.64613" lon="1.86022">
        <ele>1451.73</ele>
        <time>2016-01-12T10:01:17Z</time>
      </trkpt>
      <trkpt lat="42.64611" lon="1.86022">
        <ele>1452.21</ele>
        <time>2016-01-12T10:01:19Z</time>
      </trkpt>
      <trkpt lat="42.6461" lon="1.86023">
        <ele>1452.69</ele>
        <time>2016-01-12T10:01:22Z</time>
      </trkpt>
      <trkpt lat="42.64605" lon="1.86017">
        <ele>1455.09</ele>
        <time>2016-01-12T10:01:31Z</time>
      </trkpt>
      <trkpt lat="42.64602" lon="1.86023">
        <ele>1457.02</ele>
        <time>2016-01-12T10:01:40Z</time>
      </trkpt>
      <trkpt lat="42.64602" lon="1.8603">
        <ele>1458.94</ele>
        <time>2016-01-12T10:01:48Z</time>
      </trkpt>
      <trkpt lat="42.64599" lon="1.86032">
        <ele>1461.34</ele>
        <time>2016-01-12T10:01:57Z</time>
      </trkpt>
      <trkpt lat="42.64598" lon="1.86032">
        <ele>1461.82</ele>
        <time>2016-01-12T10:01:59Z</time>
      </trkpt>
      <trkpt lat="42.64594" lon="1.86036">
        <ele>1463.74</ele>
        <time>2016-01-12T10:02:08Z</time>
      </trkpt>
      <trkpt lat="42.64595" lon="1.86043">
        <ele>1464.71</ele>
        <time>2016-01-12T10:02:16Z</time>
      </trkpt>
      <trkpt lat="42.64593" lon="1.86048">
        <ele>1467.11</ele>
        <time>2016-01-12T10:02:25Z</time>
      </trkpt>
      <trkpt lat="42.64591" lon="1.8605">
        <ele>1468.07</ele>
        <time>2016-01-12T10:02:32Z</time>
      </trkpt>
      <trkpt lat="42.64587" lon="1.86056">
        <ele>1470.47</ele>
        <time>2016-01-12T10:02:41Z</time>
      </trkpt>
      <trkpt lat="42.64582" lon="1.86064">
        <ele>1470.95</ele>
        <time>2016-01-12T10:02:51Z</time>
      </trkpt>
      <trkpt lat="42.6458" lon="1.8607">
        <ele>1472.4</ele>
        <time>2016-01-12T10:02:59Z</time>
      </trkpt>
      <trkpt lat="42.64577" lon="1.86074">
        <ele>1473.84</ele>
        <time>2016-01-12T10:03:07Z</time>
      </trkpt>
      <trkpt lat="42.64575" lon="1.86079">
        <ele>1474.32</ele>
        <time>2016-01-12T10:03:15Z</time>
      </trkpt>
      <trkpt lat="42.64572" lon="1.86086">
        <ele>1475.76</ele>
        <time>2016-01-12T10:03:23Z</time>
      </trkpt>
      <trkpt lat="42.64569" lon="1.8609">
        <ele>1476.72</ele>
        <time>2016-01-12T10:03:33Z</time>
      </trkpt>
      <trkpt lat="42.64568" lon="1.86094">
        <ele>1479.13</ele>
        <time>2016-01-12T10:03:42Z</time>
      </trkpt>
      <trkpt lat="42.64562" lon="1.86101">
        <ele>1480.57</ele>
        <time>2016-01-12T10:03:52Z</time>
      </trkpt>
      <trkpt lat="42.64558" lon="1.86107">
        <ele>1482.49</ele>
        <time>2016-01-12T10:04:00Z</time>
      </trkpt>
      <trkpt lat="42.64556" lon="1.86112">
        <ele>1483.93</ele>
        <time>2016-01-12T10:04:06Z</time>
      </trkpt>
      <trkpt lat="42.64549" lon="1.86118">
        <ele>1486.82</ele>
        <time>2016-01-12T10:04:17Z</time>
      </trkpt>
      <trkpt lat="42.64545" lon="1.86124">
        <ele>1488.26</ele>
        <time>2016-01-12T10:04:25Z</time>
      </trkpt>
      <trkpt lat="42.64543" lon="1.86127">
        <ele>1489.7</ele>
        <time>2016-01-12T10:04:34Z</time>
      </trkpt>
      <trkpt lat="42.64539" lon="1.8613">
        <ele>1491.62</ele>
        <time>2016-01-12T10:04:43Z</time>
      </trkpt>
      <trkpt lat="42.64535" lon="1.86133">
        <ele>1493.06</ele>
        <time>2016-01-12T10:04:53Z</time>
      </trkpt>
      <trkpt lat="42.64532" lon="1.86141">
        <ele>1494.99</ele>
        <time>2016-01-12T10:05:03Z</time>
      </trkpt>
      <trkpt lat="42.64527" lon="1.86147">
        <ele>1495.47</ele>
        <time>2016-01-12T10:05:11Z</time>
      </trkpt>
      <trkpt lat="42.64524" lon="1.86155">
        <ele>1498.35</ele>
        <time>2016-01-12T10:05:22Z</time>
      </trkpt>
      <trkpt lat="42.64524" lon="1.86162">
        <ele>1499.79</ele>
        <time>2016-01-12T10:05:30Z</time>
      </trkpt>
      <trkpt lat="42.64522" lon="1.86166">
        <ele>1500.76</ele>
        <time>2016-01-12T10:05:38Z</time>
      </trkpt>
      <trkpt lat="42.6452" lon="1.86173">
        <ele>1501.72</ele>
        <time>2016-01-12T10:05:48Z</time>
      </trkpt>
      <trkpt lat="42.6452" lon="1.86174">
        <ele>1502.2</ele>
        <time>2016-01-12T10:05:50Z</time>
      </trkpt>
      <trkpt lat="42.64518" lon="1.86183">
        <ele>1505.08</ele>
        <time>2016-01-12T10:06:00Z</time>
      </trkpt>
      <trkpt lat="42.64518" lon="1.86184">
        <ele>1505.08</ele>
        <time>2016-01-12T10:06:01Z</time>
      </trkpt>
      <trkpt lat="42.64517" lon="1.86186">
        <ele>1506.04</ele>
        <time>2016-01-12T10:06:08Z</time>
      </trkpt>
      <trkpt lat="42.64516" lon="1.86191">
        <ele>1507.48</ele>
        <time>2016-01-12T10:06:16Z</time>
      </trkpt>
      <trkpt lat="42.64513" lon="1.86194">
        <ele>1509.41</ele>
        <time>2016-01-12T10:06:26Z</time>
      </trkpt>
      <trkpt lat="42.64509" lon="1.86201">
        <ele>1510.37</ele>
        <time>2016-01-12T10:06:36Z</time>
      </trkpt>
      <trkpt lat="42.64507" lon="1.86204">
        <ele>1511.33</ele>
        <time>2016-01-12T10:06:44Z</time>
      </trkpt>
      <trkpt lat="42.64502" lon="1.86206">
        <ele>1511.33</ele>
        <time>2016-01-12T10:06:51Z</time>
      </trkpt>
      <trkpt lat="42.64499" lon="1.86207">
        <ele>1511.81</ele>
        <time>2016-01-12T10:06:55Z</time>
      </trkpt>
      <trkpt lat="42.64492" lon="1.8621">
        <ele>1514.69</ele>
        <time>2016-01-12T10:07:06Z</time>
      </trkpt>
      <trkpt lat="42.64489" lon="1.86213">
        <ele>1516.62</ele>
        <time>2016-01-12T10:07:14Z</time>
      </trkpt>
      <trkpt lat="42.64489" lon="1.86213">
        <ele>1517.1</ele>
        <time>2016-01-12T10:07:15Z</time>
      </trkpt>
      <trkpt lat="42.64485" lon="1.86215">
        <ele>1518.54</ele>
        <time>2016-01-12T10:07:24Z</time>
      </trkpt>
      <trkpt lat="42.64483" lon="1.86213">
        <ele>1518.06</ele>
        <time>2016-01-12T10:07:34Z</time>
      </trkpt>
      <trkpt lat="42.64484" lon="1.86214">
        <ele>1518.06</ele>
        <time>2016-01-12T10:07:43Z</time>
      </trkpt>
      <trkpt lat="42.64484" lon="1.86214">
        <ele>1520.94</ele>
        <time>2016-01-12T10:07:49Z</time>
      </trkpt>
      <trkpt lat="42.64484" lon="1.86214">
        <ele>1517.58</ele>
        <time>2016-01-12T10:07:51Z</time>
      </trkpt>
      <trkpt lat="42.64484" lon="1.86213">
        <ele>1523.35</ele>
        <time>2016-01-12T10:07:55Z</time>
      </trkpt>
      <trkpt lat="42.64484" lon="1.86213">
        <ele>1518.06</ele>
        <time>2016-01-12T10:07:56Z</time>
      </trkpt>
      <trkpt lat="42.64484" lon="1.86213">
        <ele>1518.06</ele>
        <time>2016-01-12T10:07:57Z</time>
      </trkpt>
      <trkpt lat="42.64484" lon="1.86213">
        <ele>1520.94</ele>
        <time>2016-01-12T10:08:01Z</time>
      </trkpt>
      <trkpt lat="42.64484" lon="1.86213">
        <ele>1517.58</ele>
        <time>2016-01-12T10:08:02Z</time>
      </trkpt>
      <trkpt lat="42.64484" lon="1.86213">
        <ele>1514.21</ele>
        <time>2016-01-12T10:08:03Z</time>
      </trkpt>
      <trkpt lat="42.64484" lon="1.86213">
        <ele>1520.94</ele>
        <time>2016-01-12T10:08:04Z</time>
      </trkpt>
      <trkpt lat="42.64484" lon="1.86213">
        <ele>1512.29</ele>
        <time>2016-01-12T10:08:05Z</time>
      </trkpt>
      <trkpt lat="42.64484" lon="1.86213">
        <ele>1512.29</ele>
        <time>2016-01-12T10:08:06Z</time>
      </trkpt>
      <trkpt lat="42.64484" lon="1.86213">
        <ele>1515.66</ele>
        <time>2016-01-12T10:08:07Z</time>
      </trkpt>
      <trkpt lat="42.64484" lon="1.86213">
        <ele>1508.93</ele>
        <time>2016-01-12T10:08:08Z</time>
      </trkpt>
      <trkpt lat="42.64484" lon="1.86213">
        <ele>1512.29</ele>
        <time>2016-01-12T10:08:09Z</time>
      </trkpt>
      <trkpt lat="42.64484" lon="1.86213">
        <ele>1519.5</ele>
        <time>2016-01-12T10:08:10Z</time>
      </trkpt>
      <trkpt lat="42.64484" lon="1.86213">
        <ele>1512.77</ele>
        <time>2016-01-12T10:08:13Z</time>
      </trkpt>
      <trkpt lat="42.64484" lon="1.86213">
        <ele>1518.06</ele>
        <time>2016-01-12T10:08:15Z</time>
      </trkpt>
      <trkpt lat="42.64484" lon="1.86213">
        <ele>1521.42</ele>
        <time>2016-01-12T10:08:16Z</time>
      </trkpt>
      <trkpt lat="42.64484" lon="1.86213">
        <ele>1519.02</ele>
        <time>2016-01-12T10:08:17Z</time>
      </trkpt>
      <trkpt lat="42.64484" lon="1.86213">
        <ele>1512.29</ele>
        <time>2016-01-12T10:08:19Z</time>
      </trkpt>
      <trkpt lat="42.64484" lon="1.86213">
        <ele>1513.73</ele>
        <time>2016-01-12T10:08:20Z</time>
      </trkpt>
      <trkpt lat="42.64484" lon="1.86213">
        <ele>1519.02</ele>
        <time>2016-01-12T10:08:21Z</time>
      </trkpt>
      <trkpt lat="42.64484" lon="1.86213">
        <ele>1524.31</ele>
        <time>2016-01-12T10:08:22Z</time>
      </trkpt>
      <trkpt lat="42.64484" lon="1.86213">
        <ele>1523.35</ele>
        <time>2016-01-12T10:08:23Z</time>
      </trkpt>
      <trkpt lat="42.64484" lon="1.86213">
        <ele>1519.02</ele>
        <time>2016-01-12T10:08:24Z</time>
      </trkpt>
      <trkpt lat="42.64484" lon="1.86213">
        <ele>1519.02</ele>
        <time>2016-01-12T10:08:25Z</time>
      </trkpt>
      <trkpt lat="42.64484" lon="1.86213">
        <ele>1515.18</ele>
        <time>2016-01-12T10:08:26Z</time>
      </trkpt>
      <trkpt lat="42.64484" lon="1.86213">
        <ele>1519.02</ele>
        <time>2016-01-12T10:08:27Z</time>
      </trkpt>
      <trkpt lat="42.64484" lon="1.86212">
        <ele>1514.69</ele>
        <time>2016-01-12T10:08:29Z</time>
      </trkpt>
      <trkpt lat="42.64484" lon="1.86212">
        <ele>1520.46</ele>
        <time>2016-01-12T10:08:31Z</time>
      </trkpt>
      <trkpt lat="42.64484" lon="1.86212">
        <ele>1519.02</ele>
        <time>2016-01-12T10:08:32Z</time>
      </trkpt>
      <trkpt lat="42.64483" lon="1.86212">
        <ele>1518.06</ele>
        <time>2016-01-12T10:08:49Z</time>
      </trkpt>
      <trkpt lat="42.6448" lon="1.86218">
        <ele>1517.1</ele>
        <time>2016-01-12T10:08:53Z</time>
      </trkpt>
      <trkpt lat="42.6448" lon="1.86221">
        <ele>1517.1</ele>
        <time>2016-01-12T10:08:55Z</time>
      </trkpt>
      <trkpt lat="42.64476" lon="1.86233">
        <ele>1516.14</ele>
        <time>2016-01-12T10:09:03Z</time>
      </trkpt>
      <trkpt lat="42.64466" lon="1.86239">
        <ele>1514.69</ele>
        <time>2016-01-12T10:09:13Z</time>
      </trkpt>
      <trkpt lat="42.64465" lon="1.86239">
        <ele>1515.18</ele>
        <time>2016-01-12T10:09:14Z</time>
      </trkpt>
      <trkpt lat="42.64458" lon="1.8624">
        <ele>1516.62</ele>
        <time>2016-01-12T10:09:22Z</time>
      </trkpt>
      <trkpt lat="42.64448" lon="1.8624">
        <ele>1515.66</ele>
        <time>2016-01-12T10:09:32Z</time>
      </trkpt>
      <trkpt lat="42.64445" lon="1.86238">
        <ele>1516.14</ele>
        <time>2016-01-12T10:09:36Z</time>
      </trkpt>
      <trkpt lat="42.64443" lon="1.86236">
        <ele>1516.14</ele>
        <time>2016-01-12T10:09:38Z</time>
      </trkpt>
      <trkpt lat="42.64438" lon="1.86235">
        <ele>1516.62</ele>
        <time>2016-01-12T10:09:44Z</time>
      </trkpt>
      <trkpt lat="42.64432" lon="1.86238">
        <ele>1517.1</ele>
        <time>2016-01-12T10:09:51Z</time>
      </trkpt>
      <trkpt lat="42.64429" lon="1.86239">
        <ele>1516.14</ele>
        <time>2016-01-12T10:09:54Z</time>
      </trkpt>
      <trkpt lat="42.64425" lon="1.8624">
        <ele>1515.66</ele>
        <time>2016-01-12T10:09:59Z</time>
      </trkpt>
      <trkpt lat="42.64423" lon="1.8624">
        <ele>1516.14</ele>
        <time>2016-01-12T10:10:01Z</time>
      </trkpt>
      <trkpt lat="42.64419" lon="1.86243">
        <ele>1516.14</ele>
        <time>2016-01-12T10:10:05Z</time>
      </trkpt>
      <trkpt lat="42.64413" lon="1.86244">
        <ele>1515.66</ele>
        <time>2016-01-12T10:10:10Z</time>
      </trkpt>
      <trkpt lat="42.64408" lon="1.86244">
        <ele>1516.14</ele>
        <time>2016-01-12T10:10:16Z</time>
      </trkpt>
      <trkpt lat="42.64407" lon="1.86246">
        <ele>1515.66</ele>
        <time>2016-01-12T10:10:18Z</time>
      </trkpt>
      <trkpt lat="42.64402" lon="1.86245">
        <ele>1515.66</ele>
        <time>2016-01-12T10:10:25Z</time>
      </trkpt>
      <trkpt lat="42.64397" lon="1.86244">
        <ele>1514.69</ele>
        <time>2016-01-12T10:10:29Z</time>
      </trkpt>
      <trkpt lat="42.64391" lon="1.86244">
        <ele>1514.21</ele>
        <time>2016-01-12T10:10:35Z</time>
      </trkpt>
      <trkpt lat="42.64384" lon="1.86242">
        <ele>1515.66</ele>
        <time>2016-01-12T10:10:44Z</time>
      </trkpt>
      <trkpt lat="42.64377" lon="1.86246">
        <ele>1514.69</ele>
        <time>2016-01-12T10:10:53Z</time>
      </trkpt>
      <trkpt lat="42.64365" lon="1.86248">
        <ele>1514.21</ele>
        <time>2016-01-12T10:11:04Z</time>
      </trkpt>
      <trkpt lat="42.64358" lon="1.86249">
        <ele>1513.73</ele>
        <time>2016-01-12T10:11:12Z</time>
      </trkpt>
      <trkpt lat="42.64355" lon="1.8625">
        <ele>1513.73</ele>
        <time>2016-01-12T10:11:15Z</time>
      </trkpt>
      <trkpt lat="42.64347" lon="1.86251">
        <ele>1514.21</ele>
        <time>2016-01-12T10:11:24Z</time>
      </trkpt>
      <trkpt lat="42.64339" lon="1.86257">
        <ele>1515.66</ele>
        <time>2016-01-12T10:11:34Z</time>
      </trkpt>
      <trkpt lat="42.64333" lon="1.86258">
        <ele>1515.66</ele>
        <time>2016-01-12T10:11:40Z</time>
      </trkpt>
      <trkpt lat="42.64326" lon="1.8626">
        <ele>1516.14</ele>
        <time>2016-01-12T10:11:46Z</time>
      </trkpt>
      <trkpt lat="42.64319" lon="1.86263">
        <ele>1516.62</ele>
        <time>2016-01-12T10:11:53Z</time>
      </trkpt>
      <trkpt lat="42.64316" lon="1.86263">
        <ele>1517.1</ele>
        <time>2016-01-12T10:11:56Z</time>
      </trkpt>
      <trkpt lat="42.64313" lon="1.86264">
        <ele>1517.1</ele>
        <time>2016-01-12T10:12:00Z</time>
      </trkpt>
      <trkpt lat="42.6431" lon="1.86266">
        <ele>1517.58</ele>
        <time>2016-01-12T10:12:03Z</time>
      </trkpt>
      <trkpt lat="42.64307" lon="1.86267">
        <ele>1518.54</ele>
        <time>2016-01-12T10:12:07Z</time>
      </trkpt>
      <trkpt lat="42.64301" lon="1.86267">
        <ele>1519.98</ele>
        <time>2016-01-12T10:12:14Z</time>
      </trkpt>
      <trkpt lat="42.64292" lon="1.8627">
        <ele>1520.94</ele>
        <time>2016-01-12T10:12:24Z</time>
      </trkpt>
      <trkpt lat="42.64287" lon="1.86269">
        <ele>1522.39</ele>
        <time>2016-01-12T10:12:30Z</time>
      </trkpt>
      <trkpt lat="42.64281" lon="1.86271">
        <ele>1524.31</ele>
        <time>2016-01-12T10:12:39Z</time>
      </trkpt>
      <trkpt lat="42.64281" lon="1.86271">
        <ele>1523.83</ele>
        <time>2016-01-12T10:12:40Z</time>
      </trkpt>
      <trkpt lat="42.64277" lon="1.86275">
        <ele>1524.31</ele>
        <time>2016-01-12T10:12:44Z</time>
      </trkpt>
      <trkpt lat="42.64272" lon="1.86278">
        <ele>1524.79</ele>
        <time>2016-01-12T10:12:50Z</time>
      </trkpt>
      <trkpt lat="42.64262" lon="1.86278">
        <ele>1525.27</ele>
        <time>2016-01-12T10:13:00Z</time>
      </trkpt>
      <trkpt lat="42.64259" lon="1.86278">
        <ele>1526.71</ele>
        <time>2016-01-12T10:13:09Z</time>
      </trkpt>
      <trkpt lat="42.64257" lon="1.86278">
        <ele>1526.71</ele>
        <time>2016-01-12T10:13:11Z</time>
      </trkpt>
      <trkpt lat="42.64253" lon="1.86276">
        <ele>1526.71</ele>
        <time>2016-01-12T10:13:16Z</time>
      </trkpt>
      <trkpt lat="42.64245" lon="1.86273">
        <ele>1528.15</ele>
        <time>2016-01-12T10:13:26Z</time>
      </trkpt>
      <trkpt lat="42.64241" lon="1.86272">
        <ele>1530.08</ele>
        <time>2016-01-12T10:13:32Z</time>
      </trkpt>
      <trkpt lat="42.64236" lon="1.86272">
        <ele>1531.04</ele>
        <time>2016-01-12T10:13:41Z</time>
      </trkpt>
      <trkpt lat="42.6423" lon="1.86272">
        <ele>1532</ele>
        <time>2016-01-12T10:13:48Z</time>
      </trkpt>
      <trkpt lat="42.64222" lon="1.86275">
        <ele>1533.44</ele>
        <time>2016-01-12T10:13:57Z</time>
      </trkpt>
      <trkpt lat="42.64221" lon="1.86275">
        <ele>1534.4</ele>
        <time>2016-01-12T10:14:07Z</time>
      </trkpt>
      <trkpt lat="42.64217" lon="1.86278">
        <ele>1534.4</ele>
        <time>2016-01-12T10:14:12Z</time>
      </trkpt>
      <trkpt lat="42.64212" lon="1.86281">
        <ele>1534.88</ele>
        <time>2016-01-12T10:14:19Z</time>
      </trkpt>
      <trkpt lat="42.64206" lon="1.86283">
        <ele>1535.84</ele>
        <time>2016-01-12T10:14:26Z</time>
      </trkpt>
      <trkpt lat="42.642" lon="1.86284">
        <ele>1536.8</ele>
        <time>2016-01-12T10:14:35Z</time>
      </trkpt>
      <trkpt lat="42.64199" lon="1.86283">
        <ele>1537.29</ele>
        <time>2016-01-12T10:14:36Z</time>
      </trkpt>
      <trkpt lat="42.64193" lon="1.86282">
        <ele>1539.21</ele>
        <time>2016-01-12T10:14:44Z</time>
      </trkpt>
      <trkpt lat="42.64188" lon="1.86284">
        <ele>1540.65</ele>
        <time>2016-01-12T10:14:53Z</time>
      </trkpt>
      <trkpt lat="42.64188" lon="1.86285">
        <ele>1540.17</ele>
        <time>2016-01-12T10:14:54Z</time>
      </trkpt>
      <trkpt lat="42.64181" lon="1.86288">
        <ele>1541.61</ele>
        <time>2016-01-12T10:15:02Z</time>
      </trkpt>
      <trkpt lat="42.64177" lon="1.86287">
        <ele>1542.57</ele>
        <time>2016-01-12T10:15:10Z</time>
      </trkpt>
      <trkpt lat="42.64172" lon="1.8629">
        <ele>1543.53</ele>
        <time>2016-01-12T10:15:19Z</time>
      </trkpt>
      <trkpt lat="42.64168" lon="1.86293">
        <ele>1543.53</ele>
        <time>2016-01-12T10:15:25Z</time>
      </trkpt>
      <trkpt lat="42.64169" lon="1.86295">
        <ele>1544.98</ele>
        <time>2016-01-12T10:15:28Z</time>
      </trkpt>
      <trkpt lat="42.64166" lon="1.86301">
        <ele>1546.42</ele>
        <time>2016-01-12T10:15:37Z</time>
      </trkpt>
      <trkpt lat="42.64164" lon="1.86307">
        <ele>1547.86</ele>
        <time>2016-01-12T10:15:47Z</time>
      </trkpt>
      <trkpt lat="42.64157" lon="1.86306">
        <ele>1549.78</ele>
        <time>2016-01-12T10:15:57Z</time>
      </trkpt>
      <trkpt lat="42.64156" lon="1.86306">
        <ele>1549.78</ele>
        <time>2016-01-12T10:15:58Z</time>
      </trkpt>
      <trkpt lat="42.64151" lon="1.86311">
        <ele>1550.26</ele>
        <time>2016-01-12T10:16:08Z</time>
      </trkpt>
      <trkpt lat="42.64148" lon="1.86312">
        <ele>1552.19</ele>
        <time>2016-01-12T10:16:17Z</time>
      </trkpt>
      <trkpt lat="42.64148" lon="1.86313">
        <ele>1552.67</ele>
        <time>2016-01-12T10:16:18Z</time>
      </trkpt>
      <trkpt lat="42.64144" lon="1.86316">
        <ele>1553.63</ele>
        <time>2016-01-12T10:16:26Z</time>
      </trkpt>
      <trkpt lat="42.64142" lon="1.86319">
        <ele>1555.07</ele>
        <time>2016-01-12T10:16:33Z</time>
      </trkpt>
      <trkpt lat="42.64142" lon="1.86328">
        <ele>1556.03</ele>
        <time>2016-01-12T10:16:42Z</time>
      </trkpt>
      <trkpt lat="42.64142" lon="1.86329">
        <ele>1557.47</ele>
        <time>2016-01-12T10:16:50Z</time>
      </trkpt>
      <trkpt lat="42.64138" lon="1.8633">
        <ele>1558.92</ele>
        <time>2016-01-12T10:16:58Z</time>
      </trkpt>
      <trkpt lat="42.64134" lon="1.86333">
        <ele>1559.4</ele>
        <time>2016-01-12T10:17:03Z</time>
      </trkpt>
      <trkpt lat="42.6413" lon="1.86344">
        <ele>1560.36</ele>
        <time>2016-01-12T10:17:13Z</time>
      </trkpt>
      <trkpt lat="42.64129" lon="1.86353">
        <ele>1562.28</ele>
        <time>2016-01-12T10:17:23Z</time>
      </trkpt>
      <trkpt lat="42.64129" lon="1.86358">
        <ele>1563.24</ele>
        <time>2016-01-12T10:17:31Z</time>
      </trkpt>
      <trkpt lat="42.64125" lon="1.86365">
        <ele>1565.16</ele>
        <time>2016-01-12T10:17:40Z</time>
      </trkpt>
      <trkpt lat="42.64123" lon="1.86367">
        <ele>1566.61</ele>
        <time>2016-01-12T10:17:50Z</time>
      </trkpt>
      <trkpt lat="42.64123" lon="1.8637">
        <ele>1568.05</ele>
        <time>2016-01-12T10:17:57Z</time>
      </trkpt>
      <trkpt lat="42.64121" lon="1.86376">
        <ele>1569.97</ele>
        <time>2016-01-12T10:18:08Z</time>
      </trkpt>
      <trkpt lat="42.64113" lon="1.86376">
        <ele>1570.45</ele>
        <time>2016-01-12T10:18:17Z</time>
      </trkpt>
      <trkpt lat="42.64111" lon="1.86378">
        <ele>1570.93</ele>
        <time>2016-01-12T10:18:24Z</time>
      </trkpt>
      <trkpt lat="42.64108" lon="1.8638">
        <ele>1569.97</ele>
        <time>2016-01-12T10:18:30Z</time>
      </trkpt>
      <trkpt lat="42.64097" lon="1.86386">
        <ele>1569.97</ele>
        <time>2016-01-12T10:18:41Z</time>
      </trkpt>
      <trkpt lat="42.64092" lon="1.86387">
        <ele>1570.93</ele>
        <time>2016-01-12T10:18:49Z</time>
      </trkpt>
      <trkpt lat="42.6409" lon="1.8639">
        <ele>1571.89</ele>
        <time>2016-01-12T10:18:54Z</time>
      </trkpt>
      <trkpt lat="42.64088" lon="1.86398">
        <ele>1573.82</ele>
        <time>2016-01-12T10:19:03Z</time>
      </trkpt>
      <trkpt lat="42.64082" lon="1.86401">
        <ele>1575.74</ele>
        <time>2016-01-12T10:19:12Z</time>
      </trkpt>
      <trkpt lat="42.64076" lon="1.86403">
        <ele>1577.18</ele>
        <time>2016-01-12T10:19:21Z</time>
      </trkpt>
      <trkpt lat="42.64073" lon="1.86405">
        <ele>1577.66</ele>
        <time>2016-01-12T10:19:29Z</time>
      </trkpt>
      <trkpt lat="42.64071" lon="1.86407">
        <ele>1579.58</ele>
        <time>2016-01-12T10:19:39Z</time>
      </trkpt>
      <trkpt lat="42.64067" lon="1.86412">
        <ele>1580.54</ele>
        <time>2016-01-12T10:19:48Z</time>
      </trkpt>
      <trkpt lat="42.64063" lon="1.86414">
        <ele>1582.95</ele>
        <time>2016-01-12T10:19:57Z</time>
      </trkpt>
      <trkpt lat="42.64059" lon="1.86414">
        <ele>1583.91</ele>
        <time>2016-01-12T10:20:06Z</time>
      </trkpt>
      <trkpt lat="42.64056" lon="1.86417">
        <ele>1585.83</ele>
        <time>2016-01-12T10:20:16Z</time>
      </trkpt>
      <trkpt lat="42.64053" lon="1.86421">
        <ele>1587.27</ele>
        <time>2016-01-12T10:20:25Z</time>
      </trkpt>
      <trkpt lat="42.64052" lon="1.86424">
        <ele>1588.24</ele>
        <time>2016-01-12T10:20:34Z</time>
      </trkpt>
      <trkpt lat="42.6405" lon="1.86425">
        <ele>1588.72</ele>
        <time>2016-01-12T10:20:39Z</time>
      </trkpt>
      <trkpt lat="42.64048" lon="1.86426">
        <ele>1590.64</ele>
        <time>2016-01-12T10:20:43Z</time>
      </trkpt>
      <trkpt lat="42.64046" lon="1.86427">
        <ele>1591.6</ele>
        <time>2016-01-12T10:20:50Z</time>
      </trkpt>
      <trkpt lat="42.64041" lon="1.86429">
        <ele>1593.04</ele>
        <time>2016-01-12T10:20:59Z</time>
      </trkpt>
      <trkpt lat="42.64035" lon="1.8643">
        <ele>1594.96</ele>
        <time>2016-01-12T10:21:09Z</time>
      </trkpt>
      <trkpt lat="42.64027" lon="1.86434">
        <ele>1595.45</ele>
        <time>2016-01-12T10:21:20Z</time>
      </trkpt>
      <trkpt lat="42.64022" lon="1.86433">
        <ele>1597.37</ele>
        <time>2016-01-12T10:21:29Z</time>
      </trkpt>
      <trkpt lat="42.6402" lon="1.86434">
        <ele>1597.85</ele>
        <time>2016-01-12T10:21:36Z</time>
      </trkpt>
      <trkpt lat="42.64017" lon="1.86435">
        <ele>1598.33</ele>
        <time>2016-01-12T10:21:44Z</time>
      </trkpt>
      <trkpt lat="42.64012" lon="1.86433">
        <ele>1600.25</ele>
        <time>2016-01-12T10:21:52Z</time>
      </trkpt>
      <trkpt lat="42.6401" lon="1.86432">
        <ele>1600.73</ele>
        <time>2016-01-12T10:22:00Z</time>
      </trkpt>
      <trkpt lat="42.64006" lon="1.86434">
        <ele>1601.69</ele>
        <time>2016-01-12T10:22:09Z</time>
      </trkpt>
      <trkpt lat="42.64001" lon="1.86439">
        <ele>1602.17</ele>
        <time>2016-01-12T10:22:17Z</time>
      </trkpt>
      <trkpt lat="42.63998" lon="1.86439">
        <ele>1603.14</ele>
        <time>2016-01-12T10:22:29Z</time>
      </trkpt>
      <trkpt lat="42.63997" lon="1.86438">
        <ele>1602.66</ele>
        <time>2016-01-12T10:22:43Z</time>
      </trkpt>
      <trkpt lat="42.63997" lon="1.86438">
        <ele>1595.93</ele>
        <time>2016-01-12T10:22:48Z</time>
      </trkpt>
      <trkpt lat="42.63997" lon="1.86438">
        <ele>1603.62</ele>
        <time>2016-01-12T10:22:49Z</time>
      </trkpt>
      <trkpt lat="42.63997" lon="1.86438">
        <ele>1594</ele>
        <time>2016-01-12T10:22:50Z</time>
      </trkpt>
      <trkpt lat="42.63997" lon="1.86438">
        <ele>1603.62</ele>
        <time>2016-01-12T10:22:51Z</time>
      </trkpt>
      <trkpt lat="42.63996" lon="1.86438">
        <ele>1595.93</ele>
        <time>2016-01-12T10:23:01Z</time>
      </trkpt>
      <trkpt lat="42.63996" lon="1.86438">
        <ele>1607.94</ele>
        <time>2016-01-12T10:23:02Z</time>
      </trkpt>
      <trkpt lat="42.63996" lon="1.86438">
        <ele>1603.14</ele>
        <time>2016-01-12T10:23:03Z</time>
      </trkpt>
      <trkpt lat="42.63996" lon="1.86438">
        <ele>1597.85</ele>
        <time>2016-01-12T10:23:07Z</time>
      </trkpt>
      <trkpt lat="42.63996" lon="1.86438">
        <ele>1604.1</ele>
        <time>2016-01-12T10:23:08Z</time>
      </trkpt>
      <trkpt lat="42.63996" lon="1.86438">
        <ele>1594</ele>
        <time>2016-01-12T10:23:09Z</time>
      </trkpt>
      <trkpt lat="42.63996" lon="1.86438">
        <ele>1605.06</ele>
        <time>2016-01-12T10:23:10Z</time>
      </trkpt>
      <trkpt lat="42.63997" lon="1.86438">
        <ele>1603.14</ele>
        <time>2016-01-12T10:23:13Z</time>
      </trkpt>
      <trkpt lat="42.63997" lon="1.86438">
        <ele>1606.02</ele>
        <time>2016-01-12T10:23:19Z</time>
      </trkpt>
      <trkpt lat="42.63997" lon="1.86438">
        <ele>1600.25</ele>
        <time>2016-01-12T10:23:20Z</time>
      </trkpt>
      <trkpt lat="42.63997" lon="1.86438">
        <ele>1605.54</ele>
        <time>2016-01-12T10:23:21Z</time>
      </trkpt>
      <trkpt lat="42.63997" lon="1.86438">
        <ele>1602.17</ele>
        <time>2016-01-12T10:23:22Z</time>
      </trkpt>
      <trkpt lat="42.63997" lon="1.86438">
        <ele>1602.66</ele>
        <time>2016-01-12T10:23:39Z</time>
      </trkpt>
      <trkpt lat="42.63997" lon="1.86437">
        <ele>1603.62</ele>
        <time>2016-01-12T10:23:57Z</time>
      </trkpt>
      <trkpt lat="42.63994" lon="1.86439">
        <ele>1605.06</ele>
        <time>2016-01-12T10:24:10Z</time>
      </trkpt>
      <trkpt lat="42.63989" lon="1.86443">
        <ele>1606.02</ele>
        <time>2016-01-12T10:24:19Z</time>
      </trkpt>
      <trkpt lat="42.63985" lon="1.86449">
        <ele>1608.42</ele>
        <time>2016-01-12T10:24:30Z</time>
      </trkpt>
      <trkpt lat="42.63981" lon="1.86452">
        <ele>1609.86</ele>
        <time>2016-01-12T10:24:39Z</time>
      </trkpt>
      <trkpt lat="42.63977" lon="1.86456">
        <ele>1611.31</ele>
        <time>2016-01-12T10:24:48Z</time>
      </trkpt>
      <trkpt lat="42.63976" lon="1.86457">
        <ele>1613.71</ele>
        <time>2016-01-12T10:24:56Z</time>
      </trkpt>
      <trkpt lat="42.63976" lon="1.86458">
        <ele>1614.19</ele>
        <time>2016-01-12T10:24:57Z</time>
      </trkpt>
      <trkpt lat="42.63976" lon="1.86466">
        <ele>1616.59</ele>
        <time>2016-01-12T10:25:04Z</time>
      </trkpt>
      <trkpt lat="42.63973" lon="1.86471">
        <ele>1616.59</ele>
        <time>2016-01-12T10:25:10Z</time>
      </trkpt>
      <trkpt lat="42.6397" lon="1.86477">
        <ele>1617.07</ele>
        <time>2016-01-12T10:25:20Z</time>
      </trkpt>
      <trkpt lat="42.6397" lon="1.86478">
        <ele>1617.56</ele>
        <time>2016-01-12T10:25:21Z</time>
      </trkpt>
      <trkpt lat="42.63971" lon="1.86484">
        <ele>1617.07</ele>
        <time>2016-01-12T10:25:27Z</time>
      </trkpt>
      <trkpt lat="42.63968" lon="1.86496">
        <ele>1617.56</ele>
        <time>2016-01-12T10:25:36Z</time>
      </trkpt>
      <trkpt lat="42.63966" lon="1.86504">
        <ele>1617.56</ele>
        <time>2016-01-12T10:25:46Z</time>
      </trkpt>
      <trkpt lat="42.6396" lon="1.86513">
        <ele>1619</ele>
        <time>2016-01-12T10:25:57Z</time>
      </trkpt>
      <trkpt lat="42.63958" lon="1.86521">
        <ele>1620.44</ele>
        <time>2016-01-12T10:26:05Z</time>
      </trkpt>
      <trkpt lat="42.63954" lon="1.86528">
        <ele>1621.88</ele>
        <time>2016-01-12T10:26:12Z</time>
      </trkpt>
      <trkpt lat="42.6395" lon="1.8653">
        <ele>1621.88</ele>
        <time>2016-01-12T10:26:23Z</time>
      </trkpt>
      <trkpt lat="42.6395" lon="1.86531">
        <ele>1622.36</ele>
        <time>2016-01-12T10:26:27Z</time>
      </trkpt>
      <trkpt lat="42.63946" lon="1.86537">
        <ele>1622.36</ele>
        <time>2016-01-12T10:26:33Z</time>
      </trkpt>
      <trkpt lat="42.63944" lon="1.86539">
        <ele>1622.36</ele>
        <time>2016-01-12T10:26:35Z</time>
      </trkpt>
      <trkpt lat="42.6394" lon="1.86547">
        <ele>1622.84</ele>
        <time>2016-01-12T10:26:44Z</time>
      </trkpt>
      <trkpt lat="42.63937" lon="1.86557">
        <ele>1625.25</ele>
        <time>2016-01-12T10:26:54Z</time>
      </trkpt>
      <trkpt lat="42.63934" lon="1.86565">
        <ele>1626.21</ele>
        <time>2016-01-12T10:27:04Z</time>
      </trkpt>
      <trkpt lat="42.63931" lon="1.86568">
        <ele>1627.65</ele>
        <time>2016-01-12T10:27:11Z</time>
      </trkpt>
      <trkpt lat="42.6393" lon="1.86573">
        <ele>1628.61</ele>
        <time>2016-01-12T10:27:18Z</time>
      </trkpt>
      <trkpt lat="42.63927" lon="1.86577">
        <ele>1630.05</ele>
        <time>2016-01-12T10:27:25Z</time>
      </trkpt>
      <trkpt lat="42.63927" lon="1.86586">
        <ele>1632.94</ele>
        <time>2016-01-12T10:27:36Z</time>
      </trkpt>
      <trkpt lat="42.63923" lon="1.86589">
        <ele>1633.9</ele>
        <time>2016-01-12T10:27:44Z</time>
      </trkpt>
      <trkpt lat="42.6392" lon="1.86594">
        <ele>1635.34</ele>
        <time>2016-01-12T10:27:52Z</time>
      </trkpt>
      <trkpt lat="42.63917" lon="1.86596">
        <ele>1636.78</ele>
        <time>2016-01-12T10:28:01Z</time>
      </trkpt>
      <trkpt lat="42.63913" lon="1.86598">
        <ele>1638.22</ele>
        <time>2016-01-12T10:28:10Z</time>
      </trkpt>
      <trkpt lat="42.63909" lon="1.86601">
        <ele>1639.67</ele>
        <time>2016-01-12T10:28:16Z</time>
      </trkpt>
      <trkpt lat="42.63905" lon="1.86603">
        <ele>1641.59</ele>
        <time>2016-01-12T10:28:26Z</time>
      </trkpt>
      <trkpt lat="42.63901" lon="1.86608">
        <ele>1643.51</ele>
        <time>2016-01-12T10:28:36Z</time>
      </trkpt>
      <trkpt lat="42.63898" lon="1.86613">
        <ele>1644.47</ele>
        <time>2016-01-12T10:28:45Z</time>
      </trkpt>
      <trkpt lat="42.63895" lon="1.86615">
        <ele>1645.43</ele>
        <time>2016-01-12T10:28:53Z</time>
      </trkpt>
      <trkpt lat="42.63891" lon="1.86613">
        <ele>1647.36</ele>
        <time>2016-01-12T10:29:03Z</time>
      </trkpt>
      <trkpt lat="42.63885" lon="1.86613">
        <ele>1648.8</ele>
        <time>2016-01-12T10:29:12Z</time>
      </trkpt>
      <trkpt lat="42.63881" lon="1.86619">
        <ele>1650.24</ele>
        <time>2016-01-12T10:29:22Z</time>
      </trkpt>
      <trkpt lat="42.63881" lon="1.86623">
        <ele>1651.2</ele>
        <time>2016-01-12T10:29:31Z</time>
      </trkpt>
      <trkpt lat="42.63878" lon="1.86623">
        <ele>1653.12</ele>
        <time>2016-01-12T10:29:39Z</time>
      </trkpt>
      <trkpt lat="42.63873" lon="1.86627">
        <ele>1654.57</ele>
        <time>2016-01-12T10:29:48Z</time>
      </trkpt>
      <trkpt lat="42.63873" lon="1.86629">
        <ele>1655.53</ele>
        <time>2016-01-12T10:29:56Z</time>
      </trkpt>
      <trkpt lat="42.63871" lon="1.86633">
        <ele>1656.49</ele>
        <time>2016-01-12T10:30:05Z</time>
      </trkpt>
      <trkpt lat="42.63868" lon="1.86633">
        <ele>1657.93</ele>
        <time>2016-01-12T10:30:20Z</time>
      </trkpt>
      <trkpt lat="42.63865" lon="1.86636">
        <ele>1659.85</ele>
        <time>2016-01-12T10:30:31Z</time>
      </trkpt>
      <trkpt lat="42.63862" lon="1.86636">
        <ele>1661.3</ele>
        <time>2016-01-12T10:30:40Z</time>
      </trkpt>
      <trkpt lat="42.63853" lon="1.8664">
        <ele>1662.26</ele>
        <time>2016-01-12T10:30:50Z</time>
      </trkpt>
      <trkpt lat="42.6385" lon="1.86643">
        <ele>1663.7</ele>
        <time>2016-01-12T10:30:58Z</time>
      </trkpt>
      <trkpt lat="42.6385" lon="1.86648">
        <ele>1665.62</ele>
        <time>2016-01-12T10:31:09Z</time>
      </trkpt>
      <trkpt lat="42.63844" lon="1.86653">
        <ele>1667.06</ele>
        <time>2016-01-12T10:31:21Z</time>
      </trkpt>
      <trkpt lat="42.63843" lon="1.86656">
        <ele>1669.47</ele>
        <time>2016-01-12T10:31:31Z</time>
      </trkpt>
      <trkpt lat="42.63841" lon="1.86659">
        <ele>1671.39</ele>
        <time>2016-01-12T10:31:42Z</time>
      </trkpt>
      <trkpt lat="42.63835" lon="1.86665">
        <ele>1672.83</ele>
        <time>2016-01-12T10:31:53Z</time>
      </trkpt>
      <trkpt lat="42.63829" lon="1.8667">
        <ele>1674.27</ele>
        <time>2016-01-12T10:32:04Z</time>
      </trkpt>
      <trkpt lat="42.63823" lon="1.86673">
        <ele>1676.2</ele>
        <time>2016-01-12T10:32:16Z</time>
      </trkpt>
      <trkpt lat="42.63821" lon="1.86676">
        <ele>1677.16</ele>
        <time>2016-01-12T10:32:25Z</time>
      </trkpt>
      <trkpt lat="42.63819" lon="1.8668">
        <ele>1677.64</ele>
        <time>2016-01-12T10:32:37Z</time>
      </trkpt>
      <trkpt lat="42.63811" lon="1.8668">
        <ele>1678.6</ele>
        <time>2016-01-12T10:32:45Z</time>
      </trkpt>
      <trkpt lat="42.63804" lon="1.86679">
        <ele>1680.04</ele>
        <time>2016-01-12T10:32:54Z</time>
      </trkpt>
      <trkpt lat="42.63804" lon="1.86679">
        <ele>1681.96</ele>
        <time>2016-01-12T10:32:57Z</time>
      </trkpt>
      <trkpt lat="42.63803" lon="1.86684">
        <ele>1682.93</ele>
        <time>2016-01-12T10:33:08Z</time>
      </trkpt>
      <trkpt lat="42.638" lon="1.86691">
        <ele>1683.89</ele>
        <time>2016-01-12T10:33:19Z</time>
      </trkpt>
      <trkpt lat="42.638" lon="1.86691">
        <ele>1684.37</ele>
        <time>2016-01-12T10:33:20Z</time>
      </trkpt>
      <trkpt lat="42.638" lon="1.86688">
        <ele>1684.37</ele>
        <time>2016-01-12T10:33:40Z</time>
      </trkpt>
      <trkpt lat="42.638" lon="1.86689">
        <ele>1683.89</ele>
        <time>2016-01-12T10:33:55Z</time>
      </trkpt>
      <trkpt lat="42.638" lon="1.86689">
        <ele>1683.89</ele>
        <time>2016-01-12T10:34:15Z</time>
      </trkpt>
      <trkpt lat="42.638" lon="1.86688">
        <ele>1683.41</ele>
        <time>2016-01-12T10:34:35Z</time>
      </trkpt>
      <trkpt lat="42.638" lon="1.86689">
        <ele>1684.37</ele>
        <time>2016-01-12T10:34:53Z</time>
      </trkpt>
      <trkpt lat="42.63799" lon="1.86689">
        <ele>1681.48</ele>
        <time>2016-01-12T10:35:16Z</time>
      </trkpt>
      <trkpt lat="42.63799" lon="1.86689">
        <ele>1684.85</ele>
        <time>2016-01-12T10:35:22Z</time>
      </trkpt>
      <trkpt lat="42.63798" lon="1.8669">
        <ele>1683.89</ele>
        <time>2016-01-12T10:35:44Z</time>
      </trkpt>
      <trkpt lat="42.63798" lon="1.86688">
        <ele>1683.41</ele>
        <time>2016-01-12T10:35:59Z</time>
      </trkpt>
      <trkpt lat="42.63798" lon="1.86689">
        <ele>1683.41</ele>
        <time>2016-01-12T10:36:23Z</time>
      </trkpt>
      <trkpt lat="42.63793" lon="1.86688">
        <ele>1683.41</ele>
        <time>2016-01-12T10:36:32Z</time>
      </trkpt>
      <trkpt lat="42.63787" lon="1.86687">
        <ele>1682.93</ele>
        <time>2016-01-12T10:36:42Z</time>
      </trkpt>
      <trkpt lat="42.63781" lon="1.8669">
        <ele>1683.89</ele>
        <time>2016-01-12T10:36:51Z</time>
      </trkpt>
      <trkpt lat="42.63778" lon="1.86693">
        <ele>1686.29</ele>
        <time>2016-01-12T10:37:01Z</time>
      </trkpt>
      <trkpt lat="42.63774" lon="1.86693">
        <ele>1686.77</ele>
        <time>2016-01-12T10:37:10Z</time>
      </trkpt>
      <trkpt lat="42.63772" lon="1.86696">
        <ele>1687.25</ele>
        <time>2016-01-12T10:37:18Z</time>
      </trkpt>
      <trkpt lat="42.63769" lon="1.86702">
        <ele>1689.17</ele>
        <time>2016-01-12T10:37:25Z</time>
      </trkpt>
      <trkpt lat="42.63766" lon="1.86703">
        <ele>1690.14</ele>
        <time>2016-01-12T10:37:35Z</time>
      </trkpt>
      <trkpt lat="42.63761" lon="1.86705">
        <ele>1691.1</ele>
        <time>2016-01-12T10:37:41Z</time>
      </trkpt>
      <trkpt lat="42.63759" lon="1.86706">
        <ele>1692.06</ele>
        <time>2016-01-12T10:37:48Z</time>
      </trkpt>
      <trkpt lat="42.63757" lon="1.86709">
        <ele>1692.06</ele>
        <time>2016-01-12T10:37:56Z</time>
      </trkpt>
      <trkpt lat="42.63755" lon="1.8671">
        <ele>1693.5</ele>
        <time>2016-01-12T10:38:05Z</time>
      </trkpt>
      <trkpt lat="42.63751" lon="1.86712">
        <ele>1694.46</ele>
        <time>2016-01-12T10:38:13Z</time>
      </trkpt>
      <trkpt lat="42.63742" lon="1.86714">
        <ele>1694.94</ele>
        <time>2016-01-12T10:38:24Z</time>
      </trkpt>
      <trkpt lat="42.63736" lon="1.86715">
        <ele>1696.38</ele>
        <time>2016-01-12T10:38:34Z</time>
      </trkpt>
      <trkpt lat="42.6373" lon="1.86718">
        <ele>1696.86</ele>
        <time>2016-01-12T10:38:42Z</time>
      </trkpt>
      <trkpt lat="42.63725" lon="1.86722">
        <ele>1697.34</ele>
        <time>2016-01-12T10:38:53Z</time>
      </trkpt>
      <trkpt lat="42.63723" lon="1.86724">
        <ele>1698.31</ele>
        <time>2016-01-12T10:38:56Z</time>
      </trkpt>
      <trkpt lat="42.63716" lon="1.86729">
        <ele>1698.31</ele>
        <time>2016-01-12T10:39:06Z</time>
      </trkpt>
      <trkpt lat="42.63711" lon="1.86732">
        <ele>1698.31</ele>
        <time>2016-01-12T10:39:15Z</time>
      </trkpt>
      <trkpt lat="42.63704" lon="1.86732">
        <ele>1697.83</ele>
        <time>2016-01-12T10:39:24Z</time>
      </trkpt>
      <trkpt lat="42.63695" lon="1.86735">
        <ele>1698.31</ele>
        <time>2016-01-12T10:39:35Z</time>
      </trkpt>
      <trkpt lat="42.63691" lon="1.8674">
        <ele>1698.79</ele>
        <time>2016-01-12T10:39:42Z</time>
      </trkpt>
      <trkpt lat="42.63686" lon="1.86744">
        <ele>1699.75</ele>
        <time>2016-01-12T10:39:50Z</time>
      </trkpt>
      <trkpt lat="42.63685" lon="1.86745">
        <ele>1699.75</ele>
        <time>2016-01-12T10:39:54Z</time>
      </trkpt>
      <trkpt lat="42.63677" lon="1.86746">
        <ele>1699.75</ele>
        <time>2016-01-12T10:40:04Z</time>
      </trkpt>
      <trkpt lat="42.63672" lon="1.8675">
        <ele>1701.19</ele>
        <time>2016-01-12T10:40:13Z</time>
      </trkpt>
      <trkpt lat="42.63666" lon="1.86755">
        <ele>1702.15</ele>
        <time>2016-01-12T10:40:23Z</time>
      </trkpt>
      <trkpt lat="42.63658" lon="1.86759">
        <ele>1700.23</ele>
        <time>2016-01-12T10:40:35Z</time>
      </trkpt>
      <trkpt lat="42.63653" lon="1.86763">
        <ele>1701.19</ele>
        <time>2016-01-12T10:40:45Z</time>
      </trkpt>
      <trkpt lat="42.63648" lon="1.86768">
        <ele>1701.67</ele>
        <time>2016-01-12T10:40:54Z</time>
      </trkpt>
      <trkpt lat="42.63644" lon="1.86768">
        <ele>1701.67</ele>
        <time>2016-01-12T10:41:00Z</time>
      </trkpt>
      <trkpt lat="42.63642" lon="1.86764">
        <ele>1703.59</ele>
        <time>2016-01-12T10:41:03Z</time>
      </trkpt>
      <trkpt lat="42.6364" lon="1.86762">
        <ele>1704.55</ele>
        <time>2016-01-12T10:41:11Z</time>
      </trkpt>
      <trkpt lat="42.63634" lon="1.86764">
        <ele>1706</ele>
        <time>2016-01-12T10:41:21Z</time>
      </trkpt>
      <trkpt lat="42.63634" lon="1.86764">
        <ele>1706.48</ele>
        <time>2016-01-12T10:41:22Z</time>
      </trkpt>
      <trkpt lat="42.63626" lon="1.86767">
        <ele>1706.96</ele>
        <time>2016-01-12T10:41:32Z</time>
      </trkpt>
      <trkpt lat="42.63619" lon="1.86768">
        <ele>1706.96</ele>
        <time>2016-01-12T10:41:42Z</time>
      </trkpt>
      <trkpt lat="42.63611" lon="1.86769">
        <ele>1708.4</ele>
        <time>2016-01-12T10:41:51Z</time>
      </trkpt>
      <trkpt lat="42.63609" lon="1.86772">
        <ele>1708.88</ele>
        <time>2016-01-12T10:41:55Z</time>
      </trkpt>
      <trkpt lat="42.63605" lon="1.86778">
        <ele>1707.92</ele>
        <time>2016-01-12T10:42:03Z</time>
      </trkpt>
      <trkpt lat="42.63601" lon="1.86786">
        <ele>1708.88</ele>
        <time>2016-01-12T10:42:13Z</time>
      </trkpt>
      <trkpt lat="42.63594" lon="1.86791">
        <ele>1708.88</ele>
        <time>2016-01-12T10:42:22Z</time>
      </trkpt>
      <trkpt lat="42.6359" lon="1.86791">
        <ele>1708.88</ele>
        <time>2016-01-12T10:42:32Z</time>
      </trkpt>
      <trkpt lat="42.6359" lon="1.86791">
        <ele>1708.88</ele>
        <time>2016-01-12T10:42:34Z</time>
      </trkpt>
      <trkpt lat="42.63583" lon="1.86794">
        <ele>1709.84</ele>
        <time>2016-01-12T10:42:44Z</time>
      </trkpt>
      <trkpt lat="42.63576" lon="1.868">
        <ele>1710.32</ele>
        <time>2016-01-12T10:42:54Z</time>
      </trkpt>
      <trkpt lat="42.63575" lon="1.86804">
        <ele>1709.84</ele>
        <time>2016-01-12T10:43:04Z</time>
      </trkpt>
      <trkpt lat="42.63573" lon="1.86804">
        <ele>1710.32</ele>
        <time>2016-01-12T10:43:18Z</time>
      </trkpt>
      <trkpt lat="42.63571" lon="1.86804">
        <ele>1710.32</ele>
        <time>2016-01-12T10:43:36Z</time>
      </trkpt>
      <trkpt lat="42.63571" lon="1.86805">
        <ele>1710.32</ele>
        <time>2016-01-12T10:43:53Z</time>
      </trkpt>
      <trkpt lat="42.6357" lon="1.86809">
        <ele>1709.84</ele>
        <time>2016-01-12T10:44:05Z</time>
      </trkpt>
      <trkpt lat="42.63565" lon="1.86813">
        <ele>1711.76</ele>
        <time>2016-01-12T10:44:14Z</time>
      </trkpt>
      <trkpt lat="42.63558" lon="1.86817">
        <ele>1711.28</ele>
        <time>2016-01-12T10:44:24Z</time>
      </trkpt>
      <trkpt lat="42.63553" lon="1.86822">
        <ele>1711.28</ele>
        <time>2016-01-12T10:44:32Z</time>
      </trkpt>
      <trkpt lat="42.63547" lon="1.86827">
        <ele>1712.73</ele>
        <time>2016-01-12T10:44:42Z</time>
      </trkpt>
      <trkpt lat="42.63544" lon="1.86828">
        <ele>1712.73</ele>
        <time>2016-01-12T10:44:47Z</time>
      </trkpt>
      <trkpt lat="42.63537" lon="1.86833">
        <ele>1713.69</ele>
        <time>2016-01-12T10:44:56Z</time>
      </trkpt>
      <trkpt lat="42.63537" lon="1.86833">
        <ele>1713.69</ele>
        <time>2016-01-12T10:44:57Z</time>
      </trkpt>
      <trkpt lat="42.63531" lon="1.86834">
        <ele>1714.17</ele>
        <time>2016-01-12T10:45:07Z</time>
      </trkpt>
      <trkpt lat="42.63527" lon="1.86838">
        <ele>1714.65</ele>
        <time>2016-01-12T10:45:16Z</time>
      </trkpt>
      <trkpt lat="42.63519" lon="1.86844">
        <ele>1715.61</ele>
        <time>2016-01-12T10:45:26Z</time>
      </trkpt>
      <trkpt lat="42.63511" lon="1.86851">
        <ele>1717.05</ele>
        <time>2016-01-12T10:45:36Z</time>
      </trkpt>
      <trkpt lat="42.63508" lon="1.86858">
        <ele>1718.49</ele>
        <time>2016-01-12T10:45:45Z</time>
      </trkpt>
      <trkpt lat="42.63505" lon="1.86864">
        <ele>1718.97</ele>
        <time>2016-01-12T10:45:52Z</time>
      </trkpt>
      <trkpt lat="42.635" lon="1.86868">
        <ele>1720.42</ele>
        <time>2016-01-12T10:46:03Z</time>
      </trkpt>
      <trkpt lat="42.63493" lon="1.86867">
        <ele>1720.9</ele>
        <time>2016-01-12T10:46:14Z</time>
      </trkpt>
      <trkpt lat="42.63488" lon="1.86869">
        <ele>1722.34</ele>
        <time>2016-01-12T10:46:22Z</time>
      </trkpt>
      <trkpt lat="42.63483" lon="1.86872">
        <ele>1723.3</ele>
        <time>2016-01-12T10:46:29Z</time>
      </trkpt>
      <trkpt lat="42.63481" lon="1.86874">
        <ele>1724.26</ele>
        <time>2016-01-12T10:46:37Z</time>
      </trkpt>
      <trkpt lat="42.63478" lon="1.86874">
        <ele>1724.74</ele>
        <time>2016-01-12T10:46:46Z</time>
      </trkpt>
      <trkpt lat="42.63476" lon="1.86875">
        <ele>1724.26</ele>
        <time>2016-01-12T10:47:02Z</time>
      </trkpt>
      <trkpt lat="42.63473" lon="1.86875">
        <ele>1725.7</ele>
        <time>2016-01-12T10:47:16Z</time>
      </trkpt>
      <trkpt lat="42.63468" lon="1.86877">
        <ele>1727.15</ele>
        <time>2016-01-12T10:47:29Z</time>
      </trkpt>
      <trkpt lat="42.63466" lon="1.86878">
        <ele>1727.63</ele>
        <time>2016-01-12T10:47:32Z</time>
      </trkpt>
      <trkpt lat="42.6346" lon="1.86882">
        <ele>1728.59</ele>
        <time>2016-01-12T10:47:42Z</time>
      </trkpt>
      <trkpt lat="42.63454" lon="1.86884">
        <ele>1729.55</ele>
        <time>2016-01-12T10:47:51Z</time>
      </trkpt>
      <trkpt lat="42.63449" lon="1.86888">
        <ele>1730.51</ele>
        <time>2016-01-12T10:47:58Z</time>
      </trkpt>
      <trkpt lat="42.63444" lon="1.86891">
        <ele>1730.99</ele>
        <time>2016-01-12T10:48:06Z</time>
      </trkpt>
      <trkpt lat="42.63437" lon="1.86894">
        <ele>1730.99</ele>
        <time>2016-01-12T10:48:16Z</time>
      </trkpt>
      <trkpt lat="42.63435" lon="1.86897">
        <ele>1731.47</ele>
        <time>2016-01-12T10:48:24Z</time>
      </trkpt>
      <trkpt lat="42.63433" lon="1.86899">
        <ele>1730.51</ele>
        <time>2016-01-12T10:48:36Z</time>
      </trkpt>
      <trkpt lat="42.63429" lon="1.86904">
        <ele>1730.99</ele>
        <time>2016-01-12T10:48:45Z</time>
      </trkpt>
      <trkpt lat="42.63425" lon="1.86905">
        <ele>1731.47</ele>
        <time>2016-01-12T10:48:54Z</time>
      </trkpt>
      <trkpt lat="42.6342" lon="1.86911">
        <ele>1732.91</ele>
        <time>2016-01-12T10:49:06Z</time>
      </trkpt>
      <trkpt lat="42.63415" lon="1.86918">
        <ele>1733.88</ele>
        <time>2016-01-12T10:49:15Z</time>
      </trkpt>
      <trkpt lat="42.6341" lon="1.86922">
        <ele>1735.8</ele>
        <time>2016-01-12T10:49:25Z</time>
      </trkpt>
      <trkpt lat="42.63408" lon="1.86923">
        <ele>1735.32</ele>
        <time>2016-01-12T10:49:28Z</time>
      </trkpt>
      <trkpt lat="42.634" lon="1.86925">
        <ele>1735.32</ele>
        <time>2016-01-12T10:49:39Z</time>
      </trkpt>
      <trkpt lat="42.63393" lon="1.86924">
        <ele>1734.84</ele>
        <time>2016-01-12T10:49:50Z</time>
      </trkpt>
      <trkpt lat="42.63391" lon="1.86927">
        <ele>1734.36</ele>
        <time>2016-01-12T10:49:53Z</time>
      </trkpt>
      <trkpt lat="42.6339" lon="1.86929">
        <ele>1734.36</ele>
        <time>2016-01-12T10:49:56Z</time>
      </trkpt>
      <trkpt lat="42.63382" lon="1.86932">
        <ele>1732.91</ele>
        <time>2016-01-12T10:50:06Z</time>
      </trkpt>
      <trkpt lat="42.63374" lon="1.86935">
        <ele>1732.43</ele>
        <time>2016-01-12T10:50:16Z</time>
      </trkpt>
      <trkpt lat="42.63369" lon="1.86938">
        <ele>1730.51</ele>
        <time>2016-01-12T10:50:26Z</time>
      </trkpt>
      <trkpt lat="42.63368" lon="1.86938">
        <ele>1730.51</ele>
        <time>2016-01-12T10:50:27Z</time>
      </trkpt>
      <trkpt lat="42.63362" lon="1.86942">
        <ele>1730.03</ele>
        <time>2016-01-12T10:50:37Z</time>
      </trkpt>
      <trkpt lat="42.63358" lon="1.86948">
        <ele>1730.03</ele>
        <time>2016-01-12T10:50:46Z</time>
      </trkpt>
      <trkpt lat="42.63356" lon="1.86954">
        <ele>1730.99</ele>
        <time>2016-01-12T10:50:55Z</time>
      </trkpt>
      <trkpt lat="42.63355" lon="1.86956">
        <ele>1730.99</ele>
        <time>2016-01-12T10:50:57Z</time>
      </trkpt>
      <trkpt lat="42.63351" lon="1.86968">
        <ele>1730.51</ele>
        <time>2016-01-12T10:51:08Z</time>
      </trkpt>
      <trkpt lat="42.6335" lon="1.86971">
        <ele>1730.99</ele>
        <time>2016-01-12T10:51:12Z</time>
      </trkpt>
      <trkpt lat="42.63346" lon="1.8698">
        <ele>1731.47</ele>
        <time>2016-01-12T10:51:22Z</time>
      </trkpt>
      <trkpt lat="42.63346" lon="1.86983">
        <ele>1730.99</ele>
        <time>2016-01-12T10:51:31Z</time>
      </trkpt>
      <trkpt lat="42.63339" lon="1.86979">
        <ele>1731.47</ele>
        <time>2016-01-12T10:51:42Z</time>
      </trkpt>
      <trkpt lat="42.63338" lon="1.86979">
        <ele>1731.47</ele>
        <time>2016-01-12T10:51:43Z</time>
      </trkpt>
      <trkpt lat="42.63335" lon="1.86976">
        <ele>1731.95</ele>
        <time>2016-01-12T10:51:52Z</time>
      </trkpt>
      <trkpt lat="42.63335" lon="1.86977">
        <ele>1731.95</ele>
        <time>2016-01-12T10:52:02Z</time>
      </trkpt>
      <trkpt lat="42.63331" lon="1.86983">
        <ele>1733.39</ele>
        <time>2016-01-12T10:52:13Z</time>
      </trkpt>
      <trkpt lat="42.63327" lon="1.86982">
        <ele>1734.84</ele>
        <time>2016-01-12T10:52:22Z</time>
      </trkpt>
      <trkpt lat="42.63326" lon="1.86993">
        <ele>1735.8</ele>
        <time>2016-01-12T10:52:33Z</time>
      </trkpt>
      <trkpt lat="42.63326" lon="1.86994">
        <ele>1736.76</ele>
        <time>2016-01-12T10:52:35Z</time>
      </trkpt>
      <trkpt lat="42.63326" lon="1.86996">
        <ele>1736.76</ele>
        <time>2016-01-12T10:52:37Z</time>
      </trkpt>
      <trkpt lat="42.63322" lon="1.87002">
        <ele>1737.72</ele>
        <time>2016-01-12T10:52:46Z</time>
      </trkpt>
      <trkpt lat="42.63316" lon="1.87004">
        <ele>1739.16</ele>
        <time>2016-01-12T10:52:54Z</time>
      </trkpt>
      <trkpt lat="42.63307" lon="1.8701">
        <ele>1740.12</ele>
        <time>2016-01-12T10:53:05Z</time>
      </trkpt>
      <trkpt lat="42.63304" lon="1.87015">
        <ele>1740.6</ele>
        <time>2016-01-12T10:53:13Z</time>
      </trkpt>
      <trkpt lat="42.63304" lon="1.87022">
        <ele>1741.57</ele>
        <time>2016-01-12T10:53:24Z</time>
      </trkpt>
      <trkpt lat="42.633" lon="1.87027">
        <ele>1742.05</ele>
        <time>2016-01-12T10:53:33Z</time>
      </trkpt>
      <trkpt lat="42.63292" lon="1.87031">
        <ele>1742.53</ele>
        <time>2016-01-12T10:53:41Z</time>
      </trkpt>
      <trkpt lat="42.63285" lon="1.87035">
        <ele>1743.49</ele>
        <time>2016-01-12T10:53:48Z</time>
      </trkpt>
      <trkpt lat="42.63282" lon="1.87039">
        <ele>1743.49</ele>
        <time>2016-01-12T10:53:56Z</time>
      </trkpt>
      <trkpt lat="42.63281" lon="1.87042">
        <ele>1744.45</ele>
        <time>2016-01-12T10:53:59Z</time>
      </trkpt>
      <trkpt lat="42.63277" lon="1.87052">
        <ele>1744.93</ele>
        <time>2016-01-12T10:54:09Z</time>
      </trkpt>
      <trkpt lat="42.63277" lon="1.87054">
        <ele>1744.93</ele>
        <time>2016-01-12T10:54:11Z</time>
      </trkpt>
      <trkpt lat="42.63275" lon="1.87063">
        <ele>1745.89</ele>
        <time>2016-01-12T10:54:20Z</time>
      </trkpt>
      <trkpt lat="42.63272" lon="1.87069">
        <ele>1746.37</ele>
        <time>2016-01-12T10:54:30Z</time>
      </trkpt>
      <trkpt lat="42.6327" lon="1.87075">
        <ele>1746.85</ele>
        <time>2016-01-12T10:54:40Z</time>
      </trkpt>
      <trkpt lat="42.63267" lon="1.87084">
        <ele>1747.81</ele>
        <time>2016-01-12T10:54:49Z</time>
      </trkpt>
      <trkpt lat="42.63267" lon="1.87085">
        <ele>1747.81</ele>
        <time>2016-01-12T10:54:50Z</time>
      </trkpt>
      <trkpt lat="42.63266" lon="1.87087">
        <ele>1748.78</ele>
        <time>2016-01-12T10:54:55Z</time>
      </trkpt>
      <trkpt lat="42.63264" lon="1.87092">
        <ele>1749.26</ele>
        <time>2016-01-12T10:55:04Z</time>
      </trkpt>
      <trkpt lat="42.6326" lon="1.87097">
        <ele>1749.74</ele>
        <time>2016-01-12T10:55:12Z</time>
      </trkpt>
      <trkpt lat="42.63259" lon="1.87097">
        <ele>1750.22</ele>
        <time>2016-01-12T10:55:13Z</time>
      </trkpt>
      <trkpt lat="42.63256" lon="1.87103">
        <ele>1750.7</ele>
        <time>2016-01-12T10:55:22Z</time>
      </trkpt>
      <trkpt lat="42.63256" lon="1.871">
        <ele>1750.7</ele>
        <time>2016-01-12T10:55:41Z</time>
      </trkpt>
      <trkpt lat="42.63254" lon="1.87104">
        <ele>1750.22</ele>
        <time>2016-01-12T10:55:55Z</time>
      </trkpt>
      <trkpt lat="42.63249" lon="1.87111">
        <ele>1751.66</ele>
        <time>2016-01-12T10:56:03Z</time>
      </trkpt>
      <trkpt lat="42.63244" lon="1.8711">
        <ele>1752.14</ele>
        <time>2016-01-12T10:56:13Z</time>
      </trkpt>
      <trkpt lat="42.63243" lon="1.8711">
        <ele>1752.14</ele>
        <time>2016-01-12T10:56:14Z</time>
      </trkpt>
      <trkpt lat="42.63237" lon="1.8712">
        <ele>1753.1</ele>
        <time>2016-01-12T10:56:23Z</time>
      </trkpt>
      <trkpt lat="42.63236" lon="1.87121">
        <ele>1753.1</ele>
        <time>2016-01-12T10:56:24Z</time>
      </trkpt>
      <trkpt lat="42.63232" lon="1.87129">
        <ele>1753.1</ele>
        <time>2016-01-12T10:56:34Z</time>
      </trkpt>
      <trkpt lat="42.63231" lon="1.87129">
        <ele>1753.58</ele>
        <time>2016-01-12T10:56:35Z</time>
      </trkpt>
      <trkpt lat="42.63228" lon="1.87135">
        <ele>1754.54</ele>
        <time>2016-01-12T10:56:42Z</time>
      </trkpt>
      <trkpt lat="42.63224" lon="1.87141">
        <ele>1755.02</ele>
        <time>2016-01-12T10:56:49Z</time>
      </trkpt>
      <trkpt lat="42.6322" lon="1.8714">
        <ele>1755.02</ele>
        <time>2016-01-12T10:56:53Z</time>
      </trkpt>
      <trkpt lat="42.63216" lon="1.87142">
        <ele>1756.47</ele>
        <time>2016-01-12T10:56:57Z</time>
      </trkpt>
      <trkpt lat="42.63212" lon="1.87144">
        <ele>1755.99</ele>
        <time>2016-01-12T10:57:02Z</time>
      </trkpt>
      <trkpt lat="42.63208" lon="1.87145">
        <ele>1756.47</ele>
        <time>2016-01-12T10:57:06Z</time>
      </trkpt>
      <trkpt lat="42.63207" lon="1.87145">
        <ele>1756.47</ele>
        <time>2016-01-12T10:57:07Z</time>
      </trkpt>
      <trkpt lat="42.63205" lon="1.87148">
        <ele>1757.43</ele>
        <time>2016-01-12T10:57:12Z</time>
      </trkpt>
      <trkpt lat="42.63203" lon="1.87149">
        <ele>1757.91</ele>
        <time>2016-01-12T10:57:15Z</time>
      </trkpt>
      <trkpt lat="42.63198" lon="1.87152">
        <ele>1759.35</ele>
        <time>2016-01-12T10:57:24Z</time>
      </trkpt>
      <trkpt lat="42.63196" lon="1.87155">
        <ele>1761.75</ele>
        <time>2016-01-12T10:57:34Z</time>
      </trkpt>
      <trkpt lat="42.63195" lon="1.87154">
        <ele>1762.23</ele>
        <time>2016-01-12T10:57:41Z</time>
      </trkpt>
      <trkpt lat="42.63195" lon="1.87154">
        <ele>1762.71</ele>
        <time>2016-01-12T10:57:43Z</time>
      </trkpt>
      <trkpt lat="42.63188" lon="1.87161">
        <ele>1763.2</ele>
        <time>2016-01-12T10:57:52Z</time>
      </trkpt>
      <trkpt lat="42.63184" lon="1.87167">
        <ele>1764.16</ele>
        <time>2016-01-12T10:58:02Z</time>
      </trkpt>
      <trkpt lat="42.63177" lon="1.87174">
        <ele>1764.64</ele>
        <time>2016-01-12T10:58:12Z</time>
      </trkpt>
      <trkpt lat="42.6317" lon="1.87178">
        <ele>1765.6</ele>
        <time>2016-01-12T10:58:22Z</time>
      </trkpt>
      <trkpt lat="42.63169" lon="1.87179">
        <ele>1766.08</ele>
        <time>2016-01-12T10:58:24Z</time>
      </trkpt>
      <trkpt lat="42.63164" lon="1.87185">
        <ele>1766.56</ele>
        <time>2016-01-12T10:58:34Z</time>
      </trkpt>
      <trkpt lat="42.63162" lon="1.8719">
        <ele>1767.04</ele>
        <time>2016-01-12T10:58:45Z</time>
      </trkpt>
      <trkpt lat="42.63157" lon="1.87196">
        <ele>1767.04</ele>
        <time>2016-01-12T10:58:56Z</time>
      </trkpt>
      <trkpt lat="42.63157" lon="1.87199">
        <ele>1766.56</ele>
        <time>2016-01-12T10:58:59Z</time>
      </trkpt>
      <trkpt lat="42.63154" lon="1.87211">
        <ele>1767.52</ele>
        <time>2016-01-12T10:59:09Z</time>
      </trkpt>
      <trkpt lat="42.63151" lon="1.87219">
        <ele>1768.48</ele>
        <time>2016-01-12T10:59:21Z</time>
      </trkpt>
      <trkpt lat="42.63148" lon="1.87225">
        <ele>1769.92</ele>
        <time>2016-01-12T10:59:32Z</time>
      </trkpt>
      <trkpt lat="42.63149" lon="1.87227">
        <ele>1769.92</ele>
        <time>2016-01-12T10:59:33Z</time>
      </trkpt>
      <trkpt lat="42.63147" lon="1.87237">
        <ele>1770.41</ele>
        <time>2016-01-12T10:59:42Z</time>
      </trkpt>
      <trkpt lat="42.63146" lon="1.87238">
        <ele>1770.89</ele>
        <time>2016-01-12T10:59:45Z</time>
      </trkpt>
      <trkpt lat="42.63144" lon="1.87245">
        <ele>1772.33</ele>
        <time>2016-01-12T10:59:56Z</time>
      </trkpt>
      <trkpt lat="42.63139" lon="1.87253">
        <ele>1774.73</ele>
        <time>2016-01-12T11:00:09Z</time>
      </trkpt>
      <trkpt lat="42.6314" lon="1.87259">
        <ele>1777.61</ele>
        <time>2016-01-12T11:00:21Z</time>
      </trkpt>
      <trkpt lat="42.63137" lon="1.87266">
        <ele>1778.1</ele>
        <time>2016-01-12T11:00:32Z</time>
      </trkpt>
      <trkpt lat="42.63137" lon="1.87267">
        <ele>1779.06</ele>
        <time>2016-01-12T11:00:34Z</time>
      </trkpt>
      <trkpt lat="42.63129" lon="1.87274">
        <ele>1780.5</ele>
        <time>2016-01-12T11:00:43Z</time>
      </trkpt>
      <trkpt lat="42.63125" lon="1.87276">
        <ele>1780.98</ele>
        <time>2016-01-12T11:00:51Z</time>
      </trkpt>
      <trkpt lat="42.63125" lon="1.87279">
        <ele>1781.46</ele>
        <time>2016-01-12T11:00:55Z</time>
      </trkpt>
      <trkpt lat="42.63124" lon="1.87286">
        <ele>1782.9</ele>
        <time>2016-01-12T11:01:06Z</time>
      </trkpt>
      <trkpt lat="42.6312" lon="1.87299">
        <ele>1783.86</ele>
        <time>2016-01-12T11:01:18Z</time>
      </trkpt>
      <trkpt lat="42.63118" lon="1.873">
        <ele>1783.86</ele>
        <time>2016-01-12T11:01:21Z</time>
      </trkpt>
      <trkpt lat="42.63117" lon="1.87308">
        <ele>1784.34</ele>
        <time>2016-01-12T11:01:32Z</time>
      </trkpt>
      <trkpt lat="42.63112" lon="1.87316">
        <ele>1784.82</ele>
        <time>2016-01-12T11:01:44Z</time>
      </trkpt>
      <trkpt lat="42.63111" lon="1.87321">
        <ele>1784.82</ele>
        <time>2016-01-12T11:01:48Z</time>
      </trkpt>
      <trkpt lat="42.63108" lon="1.87329">
        <ele>1784.82</ele>
        <time>2016-01-12T11:01:58Z</time>
      </trkpt>
      <trkpt lat="42.63105" lon="1.87338">
        <ele>1784.82</ele>
        <time>2016-01-12T11:02:09Z</time>
      </trkpt>
      <trkpt lat="42.63105" lon="1.87346">
        <ele>1783.86</ele>
        <time>2016-01-12T11:02:19Z</time>
      </trkpt>
      <trkpt lat="42.63107" lon="1.87352">
        <ele>1782.9</ele>
        <time>2016-01-12T11:02:28Z</time>
      </trkpt>
      <trkpt lat="42.63108" lon="1.8736">
        <ele>1782.42</ele>
        <time>2016-01-12T11:02:39Z</time>
      </trkpt>
      <trkpt lat="42.63107" lon="1.87373">
        <ele>1782.42</ele>
        <time>2016-01-12T11:02:52Z</time>
      </trkpt>
      <trkpt lat="42.63106" lon="1.87385">
        <ele>1782.9</ele>
        <time>2016-01-12T11:03:04Z</time>
      </trkpt>
      <trkpt lat="42.63104" lon="1.87395">
        <ele>1783.38</ele>
        <time>2016-01-12T11:03:15Z</time>
      </trkpt>
      <trkpt lat="42.63102" lon="1.87405">
        <ele>1784.34</ele>
        <time>2016-01-12T11:03:25Z</time>
      </trkpt>
      <trkpt lat="42.63101" lon="1.87415">
        <ele>1785.31</ele>
        <time>2016-01-12T11:03:36Z</time>
      </trkpt>
      <trkpt lat="42.63102" lon="1.87423">
        <ele>1786.27</ele>
        <time>2016-01-12T11:03:48Z</time>
      </trkpt>
      <trkpt lat="42.63103" lon="1.87431">
        <ele>1786.75</ele>
        <time>2016-01-12T11:03:56Z</time>
      </trkpt>
      <trkpt lat="42.63105" lon="1.87441">
        <ele>1787.71</ele>
        <time>2016-01-12T11:04:08Z</time>
      </trkpt>
      <trkpt lat="42.63106" lon="1.87447">
        <ele>1788.19</ele>
        <time>2016-01-12T11:04:16Z</time>
      </trkpt>
      <trkpt lat="42.63107" lon="1.87461">
        <ele>1789.15</ele>
        <time>2016-01-12T11:04:28Z</time>
      </trkpt>
      <trkpt lat="42.63107" lon="1.87466">
        <ele>1789.15</ele>
        <time>2016-01-12T11:04:36Z</time>
      </trkpt>
      <trkpt lat="42.63105" lon="1.8747">
        <ele>1789.15</ele>
        <time>2016-01-12T11:04:46Z</time>
      </trkpt>
      <trkpt lat="42.63104" lon="1.87471">
        <ele>1789.63</ele>
        <time>2016-01-12T11:05:03Z</time>
      </trkpt>
      <trkpt lat="42.63105" lon="1.8747">
        <ele>1789.63</ele>
        <time>2016-01-12T11:05:17Z</time>
      </trkpt>
      <trkpt lat="42.63105" lon="1.8747">
        <ele>1793</ele>
        <time>2016-01-12T11:05:21Z</time>
      </trkpt>
      <trkpt lat="42.63105" lon="1.8747">
        <ele>1783.38</ele>
        <time>2016-01-12T11:05:22Z</time>
      </trkpt>
      <trkpt lat="42.63104" lon="1.8747">
        <ele>1790.59</ele>
        <time>2016-01-12T11:05:23Z</time>
      </trkpt>
      <trkpt lat="42.63104" lon="1.8747">
        <ele>1794.92</ele>
        <time>2016-01-12T11:05:24Z</time>
      </trkpt>
      <trkpt lat="42.63104" lon="1.8747">
        <ele>1790.59</ele>
        <time>2016-01-12T11:05:25Z</time>
      </trkpt>
      <trkpt lat="42.63104" lon="1.87471">
        <ele>1786.75</ele>
        <time>2016-01-12T11:05:31Z</time>
      </trkpt>
      <trkpt lat="42.63104" lon="1.87471">
        <ele>1791.55</ele>
        <time>2016-01-12T11:05:32Z</time>
      </trkpt>
      <trkpt lat="42.63104" lon="1.87471">
        <ele>1785.31</ele>
        <time>2016-01-12T11:05:34Z</time>
      </trkpt>
      <trkpt lat="42.63104" lon="1.87471">
        <ele>1790.11</ele>
        <time>2016-01-12T11:05:35Z</time>
      </trkpt>
      <trkpt lat="42.63104" lon="1.87471">
        <ele>1789.15</ele>
        <time>2016-01-12T11:05:36Z</time>
      </trkpt>
      <trkpt lat="42.63104" lon="1.87471">
        <ele>1782.9</ele>
        <time>2016-01-12T11:05:38Z</time>
      </trkpt>
      <trkpt lat="42.63104" lon="1.87471">
        <ele>1788.19</ele>
        <time>2016-01-12T11:05:39Z</time>
      </trkpt>
      <trkpt lat="42.63104" lon="1.87471">
        <ele>1795.4</ele>
        <time>2016-01-12T11:05:41Z</time>
      </trkpt>
      <trkpt lat="42.63104" lon="1.87471">
        <ele>1785.31</ele>
        <time>2016-01-12T11:05:42Z</time>
      </trkpt>
      <trkpt lat="42.63104" lon="1.87471">
        <ele>1789.63</ele>
        <time>2016-01-12T11:05:43Z</time>
      </trkpt>
      <trkpt lat="42.63104" lon="1.87471">
        <ele>1792.52</ele>
        <time>2016-01-12T11:05:44Z</time>
      </trkpt>
      <trkpt lat="42.63104" lon="1.87471">
        <ele>1785.79</ele>
        <time>2016-01-12T11:05:45Z</time>
      </trkpt>
      <trkpt lat="42.63104" lon="1.87471">
        <ele>1789.63</ele>
        <time>2016-01-12T11:05:46Z</time>
      </trkpt>
      <trkpt lat="42.63104" lon="1.8747">
        <ele>1784.82</ele>
        <time>2016-01-12T11:05:48Z</time>
      </trkpt>
      <trkpt lat="42.63104" lon="1.8747">
        <ele>1790.11</ele>
        <time>2016-01-12T11:05:49Z</time>
      </trkpt>
      <trkpt lat="42.63104" lon="1.8747">
        <ele>1794.44</ele>
        <time>2016-01-12T11:06:05Z</time>
      </trkpt>
      <trkpt lat="42.63104" lon="1.8747">
        <ele>1783.38</ele>
        <time>2016-01-12T11:06:06Z</time>
      </trkpt>
      <trkpt lat="42.63104" lon="1.8747">
        <ele>1787.71</ele>
        <time>2016-01-12T11:06:07Z</time>
      </trkpt>
      <trkpt lat="42.63104" lon="1.8747">
        <ele>1792.52</ele>
        <time>2016-01-12T11:06:08Z</time>
      </trkpt>
      <trkpt lat="42.63104" lon="1.8747">
        <ele>1789.15</ele>
        <time>2016-01-12T11:06:09Z</time>
      </trkpt>
      <trkpt lat="42.63104" lon="1.8747">
        <ele>1780.98</ele>
        <time>2016-01-12T11:06:11Z</time>
      </trkpt>
      <trkpt lat="42.63105" lon="1.8747">
        <ele>1790.59</ele>
        <time>2016-01-12T11:06:12Z</time>
      </trkpt>
      <trkpt lat="42.63105" lon="1.8747">
        <ele>1789.15</ele>
        <time>2016-01-12T11:06:13Z</time>
      </trkpt>
      <trkpt lat="42.63105" lon="1.8747">
        <ele>1792.52</ele>
        <time>2016-01-12T11:06:14Z</time>
      </trkpt>
      <trkpt lat="42.63105" lon="1.8747">
        <ele>1793.48</ele>
        <time>2016-01-12T11:06:15Z</time>
      </trkpt>
      <trkpt lat="42.63105" lon="1.8747">
        <ele>1789.15</ele>
        <time>2016-01-12T11:06:16Z</time>
      </trkpt>
      <trkpt lat="42.63104" lon="1.8747">
        <ele>1791.07</ele>
        <time>2016-01-12T11:06:17Z</time>
      </trkpt>
      <trkpt lat="42.63104" lon="1.87469">
        <ele>1784.34</ele>
        <time>2016-01-12T11:06:18Z</time>
      </trkpt>
      <trkpt lat="42.63104" lon="1.87469">
        <ele>1790.59</ele>
        <time>2016-01-12T11:06:19Z</time>
      </trkpt>
      <trkpt lat="42.63104" lon="1.8747">
        <ele>1789.15</ele>
        <time>2016-01-12T11:06:33Z</time>
      </trkpt>
      <trkpt lat="42.63102" lon="1.87477">
        <ele>1790.11</ele>
        <time>2016-01-12T11:06:43Z</time>
      </trkpt>
      <trkpt lat="42.631" lon="1.87485">
        <ele>1792.03</ele>
        <time>2016-01-12T11:06:54Z</time>
      </trkpt>
      <trkpt lat="42.63098" lon="1.87491">
        <ele>1792.52</ele>
        <time>2016-01-12T11:07:02Z</time>
      </trkpt>
      <trkpt lat="42.63097" lon="1.87496">
        <ele>1793.96</ele>
        <time>2016-01-12T11:07:11Z</time>
      </trkpt>
      <trkpt lat="42.63095" lon="1.87497">
        <ele>1794.92</ele>
        <time>2016-01-12T11:07:19Z</time>
      </trkpt>
      <trkpt lat="42.6309" lon="1.87507">
        <ele>1795.88</ele>
        <time>2016-01-12T11:07:29Z</time>
      </trkpt>
      <trkpt lat="42.6309" lon="1.87515">
        <ele>1796.36</ele>
        <time>2016-01-12T11:07:36Z</time>
      </trkpt>
      <trkpt lat="42.63087" lon="1.87522">
        <ele>1797.32</ele>
        <time>2016-01-12T11:07:46Z</time>
      </trkpt>
      <trkpt lat="42.63085" lon="1.87522">
        <ele>1797.32</ele>
        <time>2016-01-12T11:07:48Z</time>
      </trkpt>
      <trkpt lat="42.63082" lon="1.87526">
        <ele>1798.76</ele>
        <time>2016-01-12T11:07:57Z</time>
      </trkpt>
      <trkpt lat="42.6308" lon="1.87527">
        <ele>1798.28</ele>
        <time>2016-01-12T11:07:59Z</time>
      </trkpt>
      <trkpt lat="42.63078" lon="1.87532">
        <ele>1798.76</ele>
        <time>2016-01-12T11:08:04Z</time>
      </trkpt>
      <trkpt lat="42.63079" lon="1.87545">
        <ele>1799.73</ele>
        <time>2016-01-12T11:08:15Z</time>
      </trkpt>
      <trkpt lat="42.63078" lon="1.87553">
        <ele>1801.17</ele>
        <time>2016-01-12T11:08:25Z</time>
      </trkpt>
      <trkpt lat="42.63072" lon="1.87555">
        <ele>1801.65</ele>
        <time>2016-01-12T11:08:34Z</time>
      </trkpt>
      <trkpt lat="42.63071" lon="1.87555">
        <ele>1802.61</ele>
        <time>2016-01-12T11:08:40Z</time>
      </trkpt>
      <trkpt lat="42.63068" lon="1.87563">
        <ele>1803.09</ele>
        <time>2016-01-12T11:08:48Z</time>
      </trkpt>
      <trkpt lat="42.63067" lon="1.8757">
        <ele>1802.13</ele>
        <time>2016-01-12T11:08:56Z</time>
      </trkpt>
      <trkpt lat="42.63064" lon="1.87577">
        <ele>1803.57</ele>
        <time>2016-01-12T11:09:06Z</time>
      </trkpt>
      <trkpt lat="42.63063" lon="1.87582">
        <ele>1805.01</ele>
        <time>2016-01-12T11:09:16Z</time>
      </trkpt>
      <trkpt lat="42.63061" lon="1.87582">
        <ele>1805.97</ele>
        <time>2016-01-12T11:09:22Z</time>
      </trkpt>
      <trkpt lat="42.63059" lon="1.87586">
        <ele>1807.42</ele>
        <time>2016-01-12T11:09:29Z</time>
      </trkpt>
      <trkpt lat="42.63058" lon="1.87589">
        <ele>1807.9</ele>
        <time>2016-01-12T11:09:37Z</time>
      </trkpt>
      <trkpt lat="42.6306" lon="1.876">
        <ele>1810.3</ele>
        <time>2016-01-12T11:09:49Z</time>
      </trkpt>
      <trkpt lat="42.63061" lon="1.87604">
        <ele>1811.74</ele>
        <time>2016-01-12T11:09:58Z</time>
      </trkpt>
      <trkpt lat="42.63064" lon="1.87608">
        <ele>1812.7</ele>
        <time>2016-01-12T11:10:09Z</time>
      </trkpt>
      <trkpt lat="42.63066" lon="1.87615">
        <ele>1814.15</ele>
        <time>2016-01-12T11:10:19Z</time>
      </trkpt>
      <trkpt lat="42.63065" lon="1.87622">
        <ele>1815.59</ele>
        <time>2016-01-12T11:10:31Z</time>
      </trkpt>
      <trkpt lat="42.63065" lon="1.87628">
        <ele>1816.55</ele>
        <time>2016-01-12T11:10:37Z</time>
      </trkpt>
      <trkpt lat="42.63064" lon="1.87632">
        <ele>1817.51</ele>
        <time>2016-01-12T11:10:46Z</time>
      </trkpt>
      <trkpt lat="42.63061" lon="1.87639">
        <ele>1818.47</ele>
        <time>2016-01-12T11:10:54Z</time>
      </trkpt>
      <trkpt lat="42.63059" lon="1.87647">
        <ele>1818.47</ele>
        <time>2016-01-12T11:11:03Z</time>
      </trkpt>
      <trkpt lat="42.63058" lon="1.87654">
        <ele>1818.95</ele>
        <time>2016-01-12T11:11:13Z</time>
      </trkpt>
      <trkpt lat="42.63056" lon="1.87661">
        <ele>1820.39</ele>
        <time>2016-01-12T11:11:23Z</time>
      </trkpt>
      <trkpt lat="42.63052" lon="1.87669">
        <ele>1820.87</ele>
        <time>2016-01-12T11:11:31Z</time>
      </trkpt>
      <trkpt lat="42.63048" lon="1.87677">
        <ele>1820.87</ele>
        <time>2016-01-12T11:11:39Z</time>
      </trkpt>
      <trkpt lat="42.63045" lon="1.87682">
        <ele>1821.35</ele>
        <time>2016-01-12T11:11:45Z</time>
      </trkpt>
      <trkpt lat="42.63037" lon="1.8769">
        <ele>1820.87</ele>
        <time>2016-01-12T11:11:55Z</time>
      </trkpt>
      <trkpt lat="42.63033" lon="1.87696">
        <ele>1820.87</ele>
        <time>2016-01-12T11:12:03Z</time>
      </trkpt>
      <trkpt lat="42.63027" lon="1.87704">
        <ele>1821.35</ele>
        <time>2016-01-12T11:12:13Z</time>
      </trkpt>
      <trkpt lat="42.63023" lon="1.87712">
        <ele>1822.32</ele>
        <time>2016-01-12T11:12:23Z</time>
      </trkpt>
      <trkpt lat="42.63022" lon="1.87722">
        <ele>1822.8</ele>
        <time>2016-01-12T11:12:33Z</time>
      </trkpt>
      <trkpt lat="42.63024" lon="1.87722">
        <ele>1822.8</ele>
        <time>2016-01-12T11:12:42Z</time>
      </trkpt>
      <trkpt lat="42.63024" lon="1.87723">
        <ele>1822.8</ele>
        <time>2016-01-12T11:13:01Z</time>
      </trkpt>
      <trkpt lat="42.63021" lon="1.87728">
        <ele>1823.76</ele>
        <time>2016-01-12T11:13:14Z</time>
      </trkpt>
      <trkpt lat="42.63019" lon="1.87736">
        <ele>1823.76</ele>
        <time>2016-01-12T11:13:24Z</time>
      </trkpt>
      <trkpt lat="42.63014" lon="1.87744">
        <ele>1825.2</ele>
        <time>2016-01-12T11:13:35Z</time>
      </trkpt>
      <trkpt lat="42.6301" lon="1.8775">
        <ele>1826.16</ele>
        <time>2016-01-12T11:13:44Z</time>
      </trkpt>
      <trkpt lat="42.63006" lon="1.87757">
        <ele>1827.12</ele>
        <time>2016-01-12T11:13:54Z</time>
      </trkpt>
      <trkpt lat="42.63003" lon="1.87766">
        <ele>1827.6</ele>
        <time>2016-01-12T11:14:05Z</time>
      </trkpt>
      <trkpt lat="42.63002" lon="1.87767">
        <ele>1828.08</ele>
        <time>2016-01-12T11:14:06Z</time>
      </trkpt>
      <trkpt lat="42.62999" lon="1.87771">
        <ele>1829.53</ele>
        <time>2016-01-12T11:14:16Z</time>
      </trkpt>
      <trkpt lat="42.62995" lon="1.8777">
        <ele>1831.93</ele>
        <time>2016-01-12T11:14:27Z</time>
      </trkpt>
      <trkpt lat="42.62993" lon="1.8777">
        <ele>1831.93</ele>
        <time>2016-01-12T11:14:38Z</time>
      </trkpt>
      <trkpt lat="42.62992" lon="1.87771">
        <ele>1830.49</ele>
        <time>2016-01-12T11:14:41Z</time>
      </trkpt>
      <trkpt lat="42.62991" lon="1.87772">
        <ele>1830.97</ele>
        <time>2016-01-12T11:14:54Z</time>
      </trkpt>
      <trkpt lat="42.62991" lon="1.87778">
        <ele>1831.45</ele>
        <time>2016-01-12T11:15:03Z</time>
      </trkpt>
      <trkpt lat="42.62991" lon="1.87786">
        <ele>1830.49</ele>
        <time>2016-01-12T11:15:12Z</time>
      </trkpt>
      <trkpt lat="42.6299" lon="1.87794">
        <ele>1830.49</ele>
        <time>2016-01-12T11:15:21Z</time>
      </trkpt>
      <trkpt lat="42.62991" lon="1.87797">
        <ele>1830.01</ele>
        <time>2016-01-12T11:15:34Z</time>
      </trkpt>
      <trkpt lat="42.6299" lon="1.87798">
        <ele>1829.05</ele>
        <time>2016-01-12T11:15:35Z</time>
      </trkpt>
      <trkpt lat="42.62991" lon="1.87803">
        <ele>1829.53</ele>
        <time>2016-01-12T11:15:39Z</time>
      </trkpt>
      <trkpt lat="42.6299" lon="1.8781">
        <ele>1829.05</ele>
        <time>2016-01-12T11:15:44Z</time>
      </trkpt>
      <trkpt lat="42.62986" lon="1.87817">
        <ele>1828.56</ele>
        <time>2016-01-12T11:15:52Z</time>
      </trkpt>
      <trkpt lat="42.62986" lon="1.87822">
        <ele>1828.08</ele>
        <time>2016-01-12T11:16:02Z</time>
      </trkpt>
      <trkpt lat="42.62986" lon="1.87824">
        <ele>1827.6</ele>
        <time>2016-01-12T11:16:04Z</time>
      </trkpt>
      <trkpt lat="42.62987" lon="1.8783">
        <ele>1826.16</ele>
        <time>2016-01-12T11:16:09Z</time>
      </trkpt>
      <trkpt lat="42.62987" lon="1.87836">
        <ele>1825.2</ele>
        <time>2016-01-12T11:16:13Z</time>
      </trkpt>
      <trkpt lat="42.62986" lon="1.87845">
        <ele>1823.76</ele>
        <time>2016-01-12T11:16:23Z</time>
      </trkpt>
      <trkpt lat="42.62987" lon="1.87846">
        <ele>1817.51</ele>
        <time>2016-01-12T11:16:28Z</time>
      </trkpt>
      <trkpt lat="42.62987" lon="1.87846">
        <ele>1825.2</ele>
        <time>2016-01-12T11:16:29Z</time>
      </trkpt>
      <trkpt lat="42.62988" lon="1.87846">
        <ele>1817.51</ele>
        <time>2016-01-12T11:16:31Z</time>
      </trkpt>
      <trkpt lat="42.62988" lon="1.87846">
        <ele>1824.72</ele>
        <time>2016-01-12T11:16:32Z</time>
      </trkpt>
      <trkpt lat="42.62987" lon="1.8785">
        <ele>1815.11</ele>
        <time>2016-01-12T11:16:41Z</time>
      </trkpt>
      <trkpt lat="42.62988" lon="1.8785">
        <ele>1824.72</ele>
        <time>2016-01-12T11:16:42Z</time>
      </trkpt>
      <trkpt lat="42.62988" lon="1.8785">
        <ele>1817.03</ele>
        <time>2016-01-12T11:16:43Z</time>
      </trkpt>
      <trkpt lat="42.62988" lon="1.8785">
        <ele>1823.28</ele>
        <time>2016-01-12T11:16:44Z</time>
      </trkpt>
      <trkpt lat="42.62988" lon="1.8785">
        <ele>1819.91</ele>
        <time>2016-01-12T11:16:47Z</time>
      </trkpt>
      <trkpt lat="42.62987" lon="1.8785">
        <ele>1824.24</ele>
        <time>2016-01-12T11:16:48Z</time>
      </trkpt>
      <trkpt lat="42.62988" lon="1.8785">
        <ele>1817.99</ele>
        <time>2016-01-12T11:16:53Z</time>
      </trkpt>
      <trkpt lat="42.62988" lon="1.8785">
        <ele>1823.28</ele>
        <time>2016-01-12T11:16:54Z</time>
      </trkpt>
      <trkpt lat="42.62988" lon="1.87851">
        <ele>1819.91</ele>
        <time>2016-01-12T11:16:55Z</time>
      </trkpt>
      <trkpt lat="42.62988" lon="1.87851">
        <ele>1825.2</ele>
        <time>2016-01-12T11:16:56Z</time>
      </trkpt>
      <trkpt lat="42.62989" lon="1.87853">
        <ele>1822.32</ele>
        <time>2016-01-12T11:16:58Z</time>
      </trkpt>
      <trkpt lat="42.62991" lon="1.8786">
        <ele>1818.95</ele>
        <time>2016-01-12T11:17:06Z</time>
      </trkpt>
      <trkpt lat="42.62991" lon="1.87861">
        <ele>1822.8</ele>
        <time>2016-01-12T11:17:07Z</time>
      </trkpt>
      <trkpt lat="42.62992" lon="1.87872">
        <ele>1822.8</ele>
        <time>2016-01-12T11:17:19Z</time>
      </trkpt>
      <trkpt lat="42.62993" lon="1.87873">
        <ele>1828.08</ele>
        <time>2016-01-12T11:17:20Z</time>
      </trkpt>
      <trkpt lat="42.62993" lon="1.87874">
        <ele>1820.39</ele>
        <time>2016-01-12T11:17:21Z</time>
      </trkpt>
      <trkpt lat="42.62993" lon="1.87875">
        <ele>1826.64</ele>
        <time>2016-01-12T11:17:23Z</time>
      </trkpt>
      <trkpt lat="42.62993" lon="1.87876">
        <ele>1822.8</ele>
        <time>2016-01-12T11:17:24Z</time>
      </trkpt>
      <trkpt lat="42.62994" lon="1.87884">
        <ele>1822.8</ele>
        <time>2016-01-12T11:17:34Z</time>
      </trkpt>
      <trkpt lat="42.62993" lon="1.87894">
        <ele>1824.72</ele>
        <time>2016-01-12T11:17:45Z</time>
      </trkpt>
      <trkpt lat="42.62992" lon="1.87898">
        <ele>1823.76</ele>
        <time>2016-01-12T11:17:49Z</time>
      </trkpt>
      <trkpt lat="42.62995" lon="1.8791">
        <ele>1824.24</ele>
        <time>2016-01-12T11:18:00Z</time>
      </trkpt>
      <trkpt lat="42.62997" lon="1.87916">
        <ele>1824.72</ele>
        <time>2016-01-12T11:18:06Z</time>
      </trkpt>
      <trkpt lat="42.62998" lon="1.8792">
        <ele>1825.2</ele>
        <time>2016-01-12T11:18:10Z</time>
      </trkpt>
      <trkpt lat="42.62996" lon="1.8793">
        <ele>1826.16</ele>
        <time>2016-01-12T11:18:20Z</time>
      </trkpt>
      <trkpt lat="42.62992" lon="1.87934">
        <ele>1826.16</ele>
        <time>2016-01-12T11:18:25Z</time>
      </trkpt>
      <trkpt lat="42.62989" lon="1.87937">
        <ele>1826.16</ele>
        <time>2016-01-12T11:18:35Z</time>
      </trkpt>
      <trkpt lat="42.6299" lon="1.87938">
        <ele>1825.68</ele>
        <time>2016-01-12T11:18:38Z</time>
      </trkpt>
      <trkpt lat="42.62994" lon="1.87941">
        <ele>1824.72</ele>
        <time>2016-01-12T11:18:46Z</time>
      </trkpt>
      <trkpt lat="42.62995" lon="1.87945">
        <ele>1826.64</ele>
        <time>2016-01-12T11:18:52Z</time>
      </trkpt>
      <trkpt lat="42.62995" lon="1.87949">
        <ele>1826.64</ele>
        <time>2016-01-12T11:18:55Z</time>
      </trkpt>
      <trkpt lat="42.62996" lon="1.87959">
        <ele>1826.64</ele>
        <time>2016-01-12T11:19:06Z</time>
      </trkpt>
      <trkpt lat="42.62999" lon="1.87965">
        <ele>1826.64</ele>
        <time>2016-01-12T11:19:12Z</time>
      </trkpt>
      <trkpt lat="42.62996" lon="1.87975">
        <ele>1827.6</ele>
        <time>2016-01-12T11:19:22Z</time>
      </trkpt>
      <trkpt lat="42.62993" lon="1.87986">
        <ele>1828.56</ele>
        <time>2016-01-12T11:19:31Z</time>
      </trkpt>
      <trkpt lat="42.62993" lon="1.87986">
        <ele>1828.08</ele>
        <time>2016-01-12T11:19:32Z</time>
      </trkpt>
      <trkpt lat="42.62992" lon="1.8799">
        <ele>1829.05</ele>
        <time>2016-01-12T11:19:37Z</time>
      </trkpt>
      <trkpt lat="42.62994" lon="1.88001">
        <ele>1829.53</ele>
        <time>2016-01-12T11:19:47Z</time>
      </trkpt>
      <trkpt lat="42.62992" lon="1.88009">
        <ele>1829.53</ele>
        <time>2016-01-12T11:19:55Z</time>
      </trkpt>
      <trkpt lat="42.62991" lon="1.88018">
        <ele>1830.49</ele>
        <time>2016-01-12T11:20:05Z</time>
      </trkpt>
      <trkpt lat="42.62991" lon="1.88024">
        <ele>1830.97</ele>
        <time>2016-01-12T11:20:13Z</time>
      </trkpt>
      <trkpt lat="42.62991" lon="1.88033">
        <ele>1832.41</ele>
        <time>2016-01-12T11:20:23Z</time>
      </trkpt>
      <trkpt lat="42.62991" lon="1.88041">
        <ele>1832.41</ele>
        <time>2016-01-12T11:20:31Z</time>
      </trkpt>
      <trkpt lat="42.62992" lon="1.88047">
        <ele>1833.37</ele>
        <time>2016-01-12T11:20:41Z</time>
      </trkpt>
      <trkpt lat="42.6299" lon="1.88049">
        <ele>1833.85</ele>
        <time>2016-01-12T11:20:43Z</time>
      </trkpt>
      <trkpt lat="42.62988" lon="1.88055">
        <ele>1833.85</ele>
        <time>2016-01-12T11:20:51Z</time>
      </trkpt>
      <trkpt lat="42.62986" lon="1.88064">
        <ele>1834.81</ele>
        <time>2016-01-12T11:21:02Z</time>
      </trkpt>
      <trkpt lat="42.62988" lon="1.88065">
        <ele>1834.81</ele>
        <time>2016-01-12T11:21:17Z</time>
      </trkpt>
      <trkpt lat="42.62988" lon="1.88065">
        <ele>1833.85</ele>
        <time>2016-01-12T11:21:19Z</time>
      </trkpt>
      <trkpt lat="42.62989" lon="1.88067">
        <ele>1834.33</ele>
        <time>2016-01-12T11:21:23Z</time>
      </trkpt>
      <trkpt lat="42.62987" lon="1.88073">
        <ele>1835.29</ele>
        <time>2016-01-12T11:21:29Z</time>
      </trkpt>
      <trkpt lat="42.62986" lon="1.88078">
        <ele>1835.77</ele>
        <time>2016-01-12T11:21:35Z</time>
      </trkpt>
      <trkpt lat="42.62984" lon="1.88082">
        <ele>1835.77</ele>
        <time>2016-01-12T11:21:43Z</time>
      </trkpt>
      <trkpt lat="42.62985" lon="1.88087">
        <ele>1836.74</ele>
        <time>2016-01-12T11:21:52Z</time>
      </trkpt>
      <trkpt lat="42.62985" lon="1.8809">
        <ele>1836.26</ele>
        <time>2016-01-12T11:22:02Z</time>
      </trkpt>
      <trkpt lat="42.62985" lon="1.88096">
        <ele>1837.22</ele>
        <time>2016-01-12T11:22:13Z</time>
      </trkpt>
      <trkpt lat="42.62984" lon="1.88099">
        <ele>1838.18</ele>
        <time>2016-01-12T11:22:20Z</time>
      </trkpt>
      <trkpt lat="42.62985" lon="1.88104">
        <ele>1840.1</ele>
        <time>2016-01-12T11:22:31Z</time>
      </trkpt>
      <trkpt lat="42.62984" lon="1.88105">
        <ele>1840.1</ele>
        <time>2016-01-12T11:22:32Z</time>
      </trkpt>
      <trkpt lat="42.6298" lon="1.88112">
        <ele>1841.06</ele>
        <time>2016-01-12T11:22:42Z</time>
      </trkpt>
      <trkpt lat="42.62979" lon="1.88117">
        <ele>1842.02</ele>
        <time>2016-01-12T11:22:51Z</time>
      </trkpt>
      <trkpt lat="42.62976" lon="1.88125">
        <ele>1842.98</ele>
        <time>2016-01-12T11:23:03Z</time>
      </trkpt>
      <trkpt lat="42.62973" lon="1.88132">
        <ele>1844.43</ele>
        <time>2016-01-12T11:23:14Z</time>
      </trkpt>
      <trkpt lat="42.62972" lon="1.88136">
        <ele>1845.87</ele>
        <time>2016-01-12T11:23:23Z</time>
      </trkpt>
      <trkpt lat="42.62971" lon="1.88139">
        <ele>1845.87</ele>
        <time>2016-01-12T11:23:30Z</time>
      </trkpt>
      <trkpt lat="42.6297" lon="1.88143">
        <ele>1847.79</ele>
        <time>2016-01-12T11:23:39Z</time>
      </trkpt>
      <trkpt lat="42.62967" lon="1.88149">
        <ele>1848.75</ele>
        <time>2016-01-12T11:23:48Z</time>
      </trkpt>
      <trkpt lat="42.62967" lon="1.88149">
        <ele>1849.23</ele>
        <time>2016-01-12T11:23:49Z</time>
      </trkpt>
      <trkpt lat="42.62965" lon="1.8815">
        <ele>1849.71</ele>
        <time>2016-01-12T11:23:51Z</time>
      </trkpt>
      <trkpt lat="42.62967" lon="1.88153">
        <ele>1850.68</ele>
        <time>2016-01-12T11:23:57Z</time>
      </trkpt>
      <trkpt lat="42.62967" lon="1.88158">
        <ele>1852.12</ele>
        <time>2016-01-12T11:24:06Z</time>
      </trkpt>
      <trkpt lat="42.62965" lon="1.88159">
        <ele>1852.6</ele>
        <time>2016-01-12T11:24:15Z</time>
      </trkpt>
      <trkpt lat="42.62964" lon="1.88163">
        <ele>1853.56</ele>
        <time>2016-01-12T11:24:26Z</time>
      </trkpt>
      <trkpt lat="42.62965" lon="1.88165">
        <ele>1855</ele>
        <time>2016-01-12T11:24:37Z</time>
      </trkpt>
      <trkpt lat="42.62962" lon="1.88167">
        <ele>1855.96</ele>
        <time>2016-01-12T11:24:46Z</time>
      </trkpt>
      <trkpt lat="42.62959" lon="1.88169">
        <ele>1856.44</ele>
        <time>2016-01-12T11:24:52Z</time>
      </trkpt>
      <trkpt lat="42.62957" lon="1.88172">
        <ele>1857.4</ele>
        <time>2016-01-12T11:25:03Z</time>
      </trkpt>
      <trkpt lat="42.62955" lon="1.88176">
        <ele>1857.4</ele>
        <time>2016-01-12T11:25:11Z</time>
      </trkpt>
      <trkpt lat="42.62953" lon="1.88179">
        <ele>1860.29</ele>
        <time>2016-01-12T11:25:20Z</time>
      </trkpt>
      <trkpt lat="42.62951" lon="1.88183">
        <ele>1861.73</ele>
        <time>2016-01-12T11:25:30Z</time>
      </trkpt>
      <trkpt lat="42.6295" lon="1.88186">
        <ele>1861.73</ele>
        <time>2016-01-12T11:25:40Z</time>
      </trkpt>
      <trkpt lat="42.62951" lon="1.88188">
        <ele>1862.69</ele>
        <time>2016-01-12T11:25:45Z</time>
      </trkpt>
      <trkpt lat="42.62945" lon="1.88191">
        <ele>1863.17</ele>
        <time>2016-01-12T11:25:52Z</time>
      </trkpt>
      <trkpt lat="42.62942" lon="1.88192">
        <ele>1862.21</ele>
        <time>2016-01-12T11:26:02Z</time>
      </trkpt>
      <trkpt lat="42.62942" lon="1.88194">
        <ele>1862.69</ele>
        <time>2016-01-12T11:26:13Z</time>
      </trkpt>
      <trkpt lat="42.62937" lon="1.88199">
        <ele>1863.65</ele>
        <time>2016-01-12T11:26:23Z</time>
      </trkpt>
      <trkpt lat="42.62937" lon="1.88199">
        <ele>1865.09</ele>
        <time>2016-01-12T11:26:30Z</time>
      </trkpt>
      <trkpt lat="42.62934" lon="1.88204">
        <ele>1866.06</ele>
        <time>2016-01-12T11:26:39Z</time>
      </trkpt>
      <trkpt lat="42.62935" lon="1.88205">
        <ele>1867.5</ele>
        <time>2016-01-12T11:26:45Z</time>
      </trkpt>
      <trkpt lat="42.62934" lon="1.88206">
        <ele>1868.94</ele>
        <time>2016-01-12T11:26:48Z</time>
      </trkpt>
      <trkpt lat="42.62933" lon="1.8821">
        <ele>1869.9</ele>
        <time>2016-01-12T11:26:55Z</time>
      </trkpt>
      <trkpt lat="42.62931" lon="1.88213">
        <ele>1870.38</ele>
        <time>2016-01-12T11:27:05Z</time>
      </trkpt>
      <trkpt lat="42.62932" lon="1.88216">
        <ele>1870.86</ele>
        <time>2016-01-12T11:27:15Z</time>
      </trkpt>
      <trkpt lat="42.62935" lon="1.88221">
        <ele>1872.3</ele>
        <time>2016-01-12T11:27:24Z</time>
      </trkpt>
      <trkpt lat="42.62936" lon="1.88224">
        <ele>1874.23</ele>
        <time>2016-01-12T11:27:34Z</time>
      </trkpt>
      <trkpt lat="42.62936" lon="1.88226">
        <ele>1874.71</ele>
        <time>2016-01-12T11:27:43Z</time>
      </trkpt>
      <trkpt lat="42.62938" lon="1.88232">
        <ele>1876.15</ele>
        <time>2016-01-12T11:27:53Z</time>
      </trkpt>
      <trkpt lat="42.62938" lon="1.88236">
        <ele>1877.11</ele>
        <time>2016-01-12T11:28:01Z</time>
      </trkpt>
      <trkpt lat="42.62936" lon="1.88241">
        <ele>1878.55</ele>
        <time>2016-01-12T11:28:13Z</time>
      </trkpt>
      <trkpt lat="42.62936" lon="1.88245">
        <ele>1880</ele>
        <time>2016-01-12T11:28:22Z</time>
      </trkpt>
      <trkpt lat="42.62935" lon="1.88249">
        <ele>1880.96</ele>
        <time>2016-01-12T11:28:33Z</time>
      </trkpt>
      <trkpt lat="42.62935" lon="1.88252">
        <ele>1881.92</ele>
        <time>2016-01-12T11:28:43Z</time>
      </trkpt>
      <trkpt lat="42.62935" lon="1.88253">
        <ele>1882.88</ele>
        <time>2016-01-12T11:28:52Z</time>
      </trkpt>
      <trkpt lat="42.62937" lon="1.88257">
        <ele>1883.84</ele>
        <time>2016-01-12T11:29:01Z</time>
      </trkpt>
      <trkpt lat="42.62937" lon="1.88262">
        <ele>1884.8</ele>
        <time>2016-01-12T11:29:06Z</time>
      </trkpt>
      <trkpt lat="42.62938" lon="1.88268">
        <ele>1886.72</ele>
        <time>2016-01-12T11:29:17Z</time>
      </trkpt>
      <trkpt lat="42.62938" lon="1.88268">
        <ele>1887.21</ele>
        <time>2016-01-12T11:29:26Z</time>
      </trkpt>
      <trkpt lat="42.6294" lon="1.88273">
        <ele>1888.17</ele>
        <time>2016-01-12T11:29:35Z</time>
      </trkpt>
      <trkpt lat="42.6294" lon="1.88277">
        <ele>1890.09</ele>
        <time>2016-01-12T11:29:46Z</time>
      </trkpt>
      <trkpt lat="42.62939" lon="1.8828">
        <ele>1890.57</ele>
        <time>2016-01-12T11:29:55Z</time>
      </trkpt>
      <trkpt lat="42.6294" lon="1.88287">
        <ele>1891.53</ele>
        <time>2016-01-12T11:30:05Z</time>
      </trkpt>
      <trkpt lat="42.6294" lon="1.8829">
        <ele>1892.49</ele>
        <time>2016-01-12T11:30:15Z</time>
      </trkpt>
      <trkpt lat="42.62939" lon="1.88293">
        <ele>1892.97</ele>
        <time>2016-01-12T11:30:24Z</time>
      </trkpt>
      <trkpt lat="42.6294" lon="1.88297">
        <ele>1894.9</ele>
        <time>2016-01-12T11:30:33Z</time>
      </trkpt>
      <trkpt lat="42.6294" lon="1.88301">
        <ele>1895.86</ele>
        <time>2016-01-12T11:30:43Z</time>
      </trkpt>
      <trkpt lat="42.6294" lon="1.88308">
        <ele>1896.82</ele>
        <time>2016-01-12T11:30:53Z</time>
      </trkpt>
      <trkpt lat="42.62938" lon="1.8831">
        <ele>1897.3</ele>
        <time>2016-01-12T11:31:01Z</time>
      </trkpt>
      <trkpt lat="42.62937" lon="1.88313">
        <ele>1898.26</ele>
        <time>2016-01-12T11:31:08Z</time>
      </trkpt>
      <trkpt lat="42.62931" lon="1.88316">
        <ele>1898.74</ele>
        <time>2016-01-12T11:31:17Z</time>
      </trkpt>
      <trkpt lat="42.6293" lon="1.88316">
        <ele>1899.22</ele>
        <time>2016-01-12T11:31:19Z</time>
      </trkpt>
      <trkpt lat="42.62925" lon="1.88312">
        <ele>1899.7</ele>
        <time>2016-01-12T11:31:29Z</time>
      </trkpt>
      <trkpt lat="42.62925" lon="1.88312">
        <ele>1899.7</ele>
        <time>2016-01-12T11:31:30Z</time>
      </trkpt>
      <trkpt lat="42.62921" lon="1.88312">
        <ele>1900.18</ele>
        <time>2016-01-12T11:31:38Z</time>
      </trkpt>
      <trkpt lat="42.62919" lon="1.88314">
        <ele>1899.7</ele>
        <time>2016-01-12T11:31:47Z</time>
      </trkpt>
      <trkpt lat="42.62918" lon="1.88314">
        <ele>1899.22</ele>
        <time>2016-01-12T11:31:57Z</time>
      </trkpt>
      <trkpt lat="42.62913" lon="1.88312">
        <ele>1899.22</ele>
        <time>2016-01-12T11:32:06Z</time>
      </trkpt>
      <trkpt lat="42.6291" lon="1.8831">
        <ele>1898.74</ele>
        <time>2016-01-12T11:32:19Z</time>
      </trkpt>
      <trkpt lat="42.62906" lon="1.88309">
        <ele>1897.3</ele>
        <time>2016-01-12T11:32:28Z</time>
      </trkpt>
      <trkpt lat="42.62904" lon="1.88309">
        <ele>1896.82</ele>
        <time>2016-01-12T11:32:34Z</time>
      </trkpt>
      <trkpt lat="42.629" lon="1.88311">
        <ele>1897.3</ele>
        <time>2016-01-12T11:32:39Z</time>
      </trkpt>
      <trkpt lat="42.62896" lon="1.88313">
        <ele>1897.3</ele>
        <time>2016-01-12T11:32:46Z</time>
      </trkpt>
      <trkpt lat="42.6289" lon="1.88314">
        <ele>1897.78</ele>
        <time>2016-01-12T11:32:57Z</time>
      </trkpt>
      <trkpt lat="42.62886" lon="1.88314">
        <ele>1898.26</ele>
        <time>2016-01-12T11:33:07Z</time>
      </trkpt>
      <trkpt lat="42.62886" lon="1.88315">
        <ele>1897.78</ele>
        <time>2016-01-12T11:33:28Z</time>
      </trkpt>
      <trkpt lat="42.62886" lon="1.88315">
        <ele>1898.74</ele>
        <time>2016-01-12T11:34:09Z</time>
      </trkpt>
      <trkpt lat="42.62886" lon="1.88315">
        <ele>1897.3</ele>
        <time>2016-01-12T11:34:13Z</time>
      </trkpt>
      <trkpt lat="42.62886" lon="1.88316">
        <ele>1897.78</ele>
        <time>2016-01-12T11:34:29Z</time>
      </trkpt>
      <trkpt lat="42.62886" lon="1.88314">
        <ele>1897.78</ele>
        <time>2016-01-12T11:34:39Z</time>
      </trkpt>
      <trkpt lat="42.62901" lon="1.88313">
        <ele>1906.43</ele>
        <time>2016-01-12T12:16:35Z</time>
      </trkpt>
      <trkpt lat="42.62904" lon="1.88307">
        <ele>1907.39</ele>
        <time>2016-01-12T12:16:44Z</time>
      </trkpt>
      <trkpt lat="42.62909" lon="1.8831">
        <ele>1907.39</ele>
        <time>2016-01-12T12:16:54Z</time>
      </trkpt>
      <trkpt lat="42.62911" lon="1.88312">
        <ele>1907.87</ele>
        <time>2016-01-12T12:16:57Z</time>
      </trkpt>
      <trkpt lat="42.62914" lon="1.88316">
        <ele>1908.83</ele>
        <time>2016-01-12T12:17:06Z</time>
      </trkpt>
      <trkpt lat="42.62917" lon="1.88316">
        <ele>1909.8</ele>
        <time>2016-01-12T12:17:14Z</time>
      </trkpt>
      <trkpt lat="42.62916" lon="1.88315">
        <ele>1910.28</ele>
        <time>2016-01-12T12:17:26Z</time>
      </trkpt>
      <trkpt lat="42.62917" lon="1.88315">
        <ele>1910.28</ele>
        <time>2016-01-12T12:17:37Z</time>
      </trkpt>
      <trkpt lat="42.62921" lon="1.88314">
        <ele>1909.32</ele>
        <time>2016-01-12T12:17:42Z</time>
      </trkpt>
      <trkpt lat="42.62924" lon="1.88314">
        <ele>1909.32</ele>
        <time>2016-01-12T12:17:45Z</time>
      </trkpt>
      <trkpt lat="42.62927" lon="1.88316">
        <ele>1908.83</ele>
        <time>2016-01-12T12:17:48Z</time>
      </trkpt>
      <trkpt lat="42.62933" lon="1.88316">
        <ele>1908.83</ele>
        <time>2016-01-12T12:17:58Z</time>
      </trkpt>
      <trkpt lat="42.62933" lon="1.88315">
        <ele>1909.32</ele>
        <time>2016-01-12T12:18:01Z</time>
      </trkpt>
      <trkpt lat="42.62936" lon="1.88314">
        <ele>1908.35</ele>
        <time>2016-01-12T12:18:03Z</time>
      </trkpt>
      <trkpt lat="42.62937" lon="1.88311">
        <ele>1907.39</ele>
        <time>2016-01-12T12:18:06Z</time>
      </trkpt>
      <trkpt lat="42.62938" lon="1.88307">
        <ele>1906.91</ele>
        <time>2016-01-12T12:18:09Z</time>
      </trkpt>
      <trkpt lat="42.62937" lon="1.88299">
        <ele>1905.47</ele>
        <time>2016-01-12T12:18:17Z</time>
      </trkpt>
      <trkpt lat="42.62939" lon="1.88293">
        <ele>1903.55</ele>
        <time>2016-01-12T12:18:24Z</time>
      </trkpt>
      <trkpt lat="42.62937" lon="1.88286">
        <ele>1901.63</ele>
        <time>2016-01-12T12:18:32Z</time>
      </trkpt>
      <trkpt lat="42.62939" lon="1.88277">
        <ele>1899.7</ele>
        <time>2016-01-12T12:18:41Z</time>
      </trkpt>
      <trkpt lat="42.62939" lon="1.88273">
        <ele>1897.78</ele>
        <time>2016-01-12T12:18:47Z</time>
      </trkpt>
      <trkpt lat="42.62938" lon="1.88265">
        <ele>1896.34</ele>
        <time>2016-01-12T12:18:56Z</time>
      </trkpt>
      <trkpt lat="42.62938" lon="1.88254">
        <ele>1893.45</ele>
        <time>2016-01-12T12:19:08Z</time>
      </trkpt>
      <trkpt lat="42.62936" lon="1.88248">
        <ele>1890.57</ele>
        <time>2016-01-12T12:19:18Z</time>
      </trkpt>
      <trkpt lat="42.62934" lon="1.88242">
        <ele>1889.13</ele>
        <time>2016-01-12T12:19:26Z</time>
      </trkpt>
      <trkpt lat="42.62934" lon="1.88231">
        <ele>1886.24</ele>
        <time>2016-01-12T12:19:37Z</time>
      </trkpt>
      <trkpt lat="42.62935" lon="1.88227">
        <ele>1884.8</ele>
        <time>2016-01-12T12:19:43Z</time>
      </trkpt>
      <trkpt lat="42.62935" lon="1.88223">
        <ele>1883.36</ele>
        <time>2016-01-12T12:19:52Z</time>
      </trkpt>
      <trkpt lat="42.62934" lon="1.88216">
        <ele>1880.96</ele>
        <time>2016-01-12T12:20:01Z</time>
      </trkpt>
      <trkpt lat="42.62933" lon="1.88215">
        <ele>1880.48</ele>
        <time>2016-01-12T12:20:05Z</time>
      </trkpt>
      <trkpt lat="42.6293" lon="1.88209">
        <ele>1878.55</ele>
        <time>2016-01-12T12:20:15Z</time>
      </trkpt>
      <trkpt lat="42.6293" lon="1.88201">
        <ele>1876.15</ele>
        <time>2016-01-12T12:20:26Z</time>
      </trkpt>
      <trkpt lat="42.62931" lon="1.88199">
        <ele>1874.71</ele>
        <time>2016-01-12T12:20:34Z</time>
      </trkpt>
      <trkpt lat="42.62936" lon="1.88194">
        <ele>1871.82</ele>
        <time>2016-01-12T12:20:46Z</time>
      </trkpt>
      <trkpt lat="42.6294" lon="1.88193">
        <ele>1870.86</ele>
        <time>2016-01-12T12:20:51Z</time>
      </trkpt>
      <trkpt lat="42.62945" lon="1.88188">
        <ele>1870.38</ele>
        <time>2016-01-12T12:20:59Z</time>
      </trkpt>
      <trkpt lat="42.62946" lon="1.88186">
        <ele>1869.9</ele>
        <time>2016-01-12T12:21:02Z</time>
      </trkpt>
      <trkpt lat="42.6295" lon="1.8818">
        <ele>1867.98</ele>
        <time>2016-01-12T12:21:12Z</time>
      </trkpt>
      <trkpt lat="42.6295" lon="1.88177">
        <ele>1867.02</ele>
        <time>2016-01-12T12:21:15Z</time>
      </trkpt>
      <trkpt lat="42.62955" lon="1.8817">
        <ele>1864.61</ele>
        <time>2016-01-12T12:21:25Z</time>
      </trkpt>
      <trkpt lat="42.6296" lon="1.88165">
        <ele>1862.69</ele>
        <time>2016-01-12T12:21:35Z</time>
      </trkpt>
      <trkpt lat="42.62963" lon="1.88162">
        <ele>1861.73</ele>
        <time>2016-01-12T12:21:43Z</time>
      </trkpt>
      <trkpt lat="42.62964" lon="1.88162">
        <ele>1860.77</ele>
        <time>2016-01-12T12:21:45Z</time>
      </trkpt>
      <trkpt lat="42.62969" lon="1.8816">
        <ele>1859.33</ele>
        <time>2016-01-12T12:21:56Z</time>
      </trkpt>
      <trkpt lat="42.62969" lon="1.88155">
        <ele>1857.4</ele>
        <time>2016-01-12T12:22:04Z</time>
      </trkpt>
      <trkpt lat="42.6297" lon="1.88149">
        <ele>1855.48</ele>
        <time>2016-01-12T12:22:11Z</time>
      </trkpt>
      <trkpt lat="42.62968" lon="1.88142">
        <ele>1854.04</ele>
        <time>2016-01-12T12:22:16Z</time>
      </trkpt>
      <trkpt lat="42.62971" lon="1.88135">
        <ele>1852.12</ele>
        <time>2016-01-12T12:22:25Z</time>
      </trkpt>
      <trkpt lat="42.62971" lon="1.88133">
        <ele>1851.64</ele>
        <time>2016-01-12T12:22:28Z</time>
      </trkpt>
      <trkpt lat="42.62973" lon="1.88131">
        <ele>1850.19</ele>
        <time>2016-01-12T12:22:31Z</time>
      </trkpt>
      <trkpt lat="42.62976" lon="1.88123">
        <ele>1848.27</ele>
        <time>2016-01-12T12:22:41Z</time>
      </trkpt>
      <trkpt lat="42.62976" lon="1.88121">
        <ele>1848.27</ele>
        <time>2016-01-12T12:22:43Z</time>
      </trkpt>
      <trkpt lat="42.62979" lon="1.88113">
        <ele>1847.31</ele>
        <time>2016-01-12T12:22:53Z</time>
      </trkpt>
      <trkpt lat="42.62979" lon="1.88114">
        <ele>1846.83</ele>
        <time>2016-01-12T12:23:08Z</time>
      </trkpt>
      <trkpt lat="42.62981" lon="1.88105">
        <ele>1844.91</ele>
        <time>2016-01-12T12:23:20Z</time>
      </trkpt>
      <trkpt lat="42.62982" lon="1.88103">
        <ele>1844.91</ele>
        <time>2016-01-12T12:23:22Z</time>
      </trkpt>
      <trkpt lat="42.62983" lon="1.88101">
        <ele>1844.43</ele>
        <time>2016-01-12T12:23:24Z</time>
      </trkpt>
      <trkpt lat="42.62984" lon="1.88098">
        <ele>1843.47</ele>
        <time>2016-01-12T12:23:27Z</time>
      </trkpt>
      <trkpt lat="42.62986" lon="1.88092">
        <ele>1842.02</ele>
        <time>2016-01-12T12:23:36Z</time>
      </trkpt>
      <trkpt lat="42.62987" lon="1.88085">
        <ele>1841.54</ele>
        <time>2016-01-12T12:23:44Z</time>
      </trkpt>
      <trkpt lat="42.62988" lon="1.88083">
        <ele>1841.54</ele>
        <time>2016-01-12T12:23:50Z</time>
      </trkpt>
      <trkpt lat="42.62988" lon="1.8808">
        <ele>1841.06</ele>
        <time>2016-01-12T12:23:52Z</time>
      </trkpt>
      <trkpt lat="42.62989" lon="1.88065">
        <ele>1840.1</ele>
        <time>2016-01-12T12:24:02Z</time>
      </trkpt>
      <trkpt lat="42.6299" lon="1.88055">
        <ele>1839.14</ele>
        <time>2016-01-12T12:24:11Z</time>
      </trkpt>
      <trkpt lat="42.6299" lon="1.88053">
        <ele>1838.66</ele>
        <time>2016-01-12T12:24:13Z</time>
      </trkpt>
      <trkpt lat="42.62991" lon="1.88051">
        <ele>1838.66</ele>
        <time>2016-01-12T12:24:15Z</time>
      </trkpt>
      <trkpt lat="42.62991" lon="1.88048">
        <ele>1837.7</ele>
        <time>2016-01-12T12:24:17Z</time>
      </trkpt>
      <trkpt lat="42.62993" lon="1.88046">
        <ele>1837.22</ele>
        <time>2016-01-12T12:24:19Z</time>
      </trkpt>
      <trkpt lat="42.62994" lon="1.88037">
        <ele>1837.7</ele>
        <time>2016-01-12T12:24:28Z</time>
      </trkpt>
      <trkpt lat="42.62994" lon="1.88037">
        <ele>1838.18</ele>
        <time>2016-01-12T12:24:29Z</time>
      </trkpt>
      <trkpt lat="42.62996" lon="1.88027">
        <ele>1837.22</ele>
        <time>2016-01-12T12:24:38Z</time>
      </trkpt>
      <trkpt lat="42.62996" lon="1.88024">
        <ele>1836.74</ele>
        <time>2016-01-12T12:24:41Z</time>
      </trkpt>
      <trkpt lat="42.62995" lon="1.88013">
        <ele>1834.81</ele>
        <time>2016-01-12T12:24:52Z</time>
      </trkpt>
      <trkpt lat="42.62997" lon="1.88001">
        <ele>1834.33</ele>
        <time>2016-01-12T12:25:02Z</time>
      </trkpt>
      <trkpt lat="42.62998" lon="1.88001">
        <ele>1833.85</ele>
        <time>2016-01-12T12:25:15Z</time>
      </trkpt>
      <trkpt lat="42.62997" lon="1.88002">
        <ele>1833.85</ele>
        <time>2016-01-12T12:25:32Z</time>
      </trkpt>
      <trkpt lat="42.62997" lon="1.88002">
        <ele>1833.85</ele>
        <time>2016-01-12T12:25:34Z</time>
      </trkpt>
      <trkpt lat="42.62996" lon="1.88005">
        <ele>1834.33</ele>
        <time>2016-01-12T12:25:36Z</time>
      </trkpt>
      <trkpt lat="42.62988" lon="1.88008">
        <ele>1834.33</ele>
        <time>2016-01-12T12:25:46Z</time>
      </trkpt>
      <trkpt lat="42.62984" lon="1.8801">
        <ele>1832.89</ele>
        <time>2016-01-12T12:25:54Z</time>
      </trkpt>
      <trkpt lat="42.6298" lon="1.88012">
        <ele>1833.85</ele>
        <time>2016-01-12T12:26:02Z</time>
      </trkpt>
      <trkpt lat="42.6298" lon="1.88009">
        <ele>1834.33</ele>
        <time>2016-01-12T12:26:11Z</time>
      </trkpt>
      <trkpt lat="42.6298" lon="1.88008">
        <ele>1833.85</ele>
        <time>2016-01-12T12:26:12Z</time>
      </trkpt>
      <trkpt lat="42.6298" lon="1.87998">
        <ele>1835.77</ele>
        <time>2016-01-12T12:26:21Z</time>
      </trkpt>
      <trkpt lat="42.62978" lon="1.87992">
        <ele>1835.77</ele>
        <time>2016-01-12T12:26:26Z</time>
      </trkpt>
      <trkpt lat="42.62975" lon="1.87985">
        <ele>1835.77</ele>
        <time>2016-01-12T12:26:34Z</time>
      </trkpt>
      <trkpt lat="42.62972" lon="1.87972">
        <ele>1836.74</ele>
        <time>2016-01-12T12:26:44Z</time>
      </trkpt>
      <trkpt lat="42.62972" lon="1.87971">
        <ele>1837.22</ele>
        <time>2016-01-12T12:26:55Z</time>
      </trkpt>
      <trkpt lat="42.6297" lon="1.87967">
        <ele>1837.22</ele>
        <time>2016-01-12T12:27:04Z</time>
      </trkpt>
      <trkpt lat="42.62969" lon="1.87958">
        <ele>1836.74</ele>
        <time>2016-01-12T12:27:12Z</time>
      </trkpt>
      <trkpt lat="42.62969" lon="1.87949">
        <ele>1836.74</ele>
        <time>2016-01-12T12:27:18Z</time>
      </trkpt>
      <trkpt lat="42.62968" lon="1.87943">
        <ele>1836.74</ele>
        <time>2016-01-12T12:27:23Z</time>
      </trkpt>
      <trkpt lat="42.6297" lon="1.87932">
        <ele>1837.7</ele>
        <time>2016-01-12T12:27:31Z</time>
      </trkpt>
      <trkpt lat="42.62967" lon="1.8792">
        <ele>1836.74</ele>
        <time>2016-01-12T12:27:39Z</time>
      </trkpt>
      <trkpt lat="42.62965" lon="1.87909">
        <ele>1836.26</ele>
        <time>2016-01-12T12:27:49Z</time>
      </trkpt>
      <trkpt lat="42.62965" lon="1.87899">
        <ele>1835.29</ele>
        <time>2016-01-12T12:27:55Z</time>
      </trkpt>
      <trkpt lat="42.62965" lon="1.87896">
        <ele>1835.29</ele>
        <time>2016-01-12T12:27:57Z</time>
      </trkpt>
      <trkpt lat="42.62964" lon="1.87885">
        <ele>1833.85</ele>
        <time>2016-01-12T12:28:04Z</time>
      </trkpt>
      <trkpt lat="42.62963" lon="1.87882">
        <ele>1834.33</ele>
        <time>2016-01-12T12:28:06Z</time>
      </trkpt>
      <trkpt lat="42.62964" lon="1.87872">
        <ele>1833.85</ele>
        <time>2016-01-12T12:28:16Z</time>
      </trkpt>
      <trkpt lat="42.62964" lon="1.87865">
        <ele>1834.33</ele>
        <time>2016-01-12T12:28:21Z</time>
      </trkpt>
      <trkpt lat="42.62964" lon="1.87863">
        <ele>1833.37</ele>
        <time>2016-01-12T12:28:23Z</time>
      </trkpt>
      <trkpt lat="42.62966" lon="1.87854">
        <ele>1832.41</ele>
        <time>2016-01-12T12:28:31Z</time>
      </trkpt>
      <trkpt lat="42.62969" lon="1.87853">
        <ele>1832.89</ele>
        <time>2016-01-12T12:28:34Z</time>
      </trkpt>
      <trkpt lat="42.6297" lon="1.87849">
        <ele>1833.37</ele>
        <time>2016-01-12T12:28:41Z</time>
      </trkpt>
      <trkpt lat="42.62968" lon="1.87848">
        <ele>1833.37</ele>
        <time>2016-01-12T12:28:44Z</time>
      </trkpt>
      <trkpt lat="42.62968" lon="1.87846">
        <ele>1832.89</ele>
        <time>2016-01-12T12:28:46Z</time>
      </trkpt>
      <trkpt lat="42.62966" lon="1.8784">
        <ele>1833.37</ele>
        <time>2016-01-12T12:28:50Z</time>
      </trkpt>
      <trkpt lat="42.62967" lon="1.87828">
        <ele>1833.85</ele>
        <time>2016-01-12T12:28:58Z</time>
      </trkpt>
      <trkpt lat="42.62967" lon="1.87827">
        <ele>1833.85</ele>
        <time>2016-01-12T12:28:59Z</time>
      </trkpt>
      <trkpt lat="42.62968" lon="1.87821">
        <ele>1834.81</ele>
        <time>2016-01-12T12:29:03Z</time>
      </trkpt>
      <trkpt lat="42.62967" lon="1.87818">
        <ele>1834.81</ele>
        <time>2016-01-12T12:29:05Z</time>
      </trkpt>
      <trkpt lat="42.62968" lon="1.87812">
        <ele>1835.29</ele>
        <time>2016-01-12T12:29:10Z</time>
      </trkpt>
      <trkpt lat="42.62969" lon="1.87807">
        <ele>1835.77</ele>
        <time>2016-01-12T12:29:13Z</time>
      </trkpt>
      <trkpt lat="42.62971" lon="1.87796">
        <ele>1836.26</ele>
        <time>2016-01-12T12:29:21Z</time>
      </trkpt>
      <trkpt lat="42.62974" lon="1.87789">
        <ele>1835.77</ele>
        <time>2016-01-12T12:29:29Z</time>
      </trkpt>
      <trkpt lat="42.62976" lon="1.87782">
        <ele>1835.77</ele>
        <time>2016-01-12T12:29:34Z</time>
      </trkpt>
      <trkpt lat="42.62978" lon="1.87778">
        <ele>1836.26</ele>
        <time>2016-01-12T12:29:38Z</time>
      </trkpt>
      <trkpt lat="42.62979" lon="1.87776">
        <ele>1836.74</ele>
        <time>2016-01-12T12:29:40Z</time>
      </trkpt>
      <trkpt lat="42.62979" lon="1.8777">
        <ele>1837.22</ele>
        <time>2016-01-12T12:29:45Z</time>
      </trkpt>
      <trkpt lat="42.62983" lon="1.87768">
        <ele>1835.77</ele>
        <time>2016-01-12T12:29:49Z</time>
      </trkpt>
      <trkpt lat="42.62988" lon="1.87766">
        <ele>1835.29</ele>
        <time>2016-01-12T12:29:55Z</time>
      </trkpt>
      <trkpt lat="42.62992" lon="1.87764">
        <ele>1835.29</ele>
        <time>2016-01-12T12:30:01Z</time>
      </trkpt>
      <trkpt lat="42.63002" lon="1.8776">
        <ele>1833.37</ele>
        <time>2016-01-12T12:30:12Z</time>
      </trkpt>
      <trkpt lat="42.63003" lon="1.87752">
        <ele>1832.89</ele>
        <time>2016-01-12T12:30:19Z</time>
      </trkpt>
      <trkpt lat="42.63003" lon="1.8775">
        <ele>1831.93</ele>
        <time>2016-01-12T12:30:21Z</time>
      </trkpt>
      <trkpt lat="42.63007" lon="1.87739">
        <ele>1830.49</ele>
        <time>2016-01-12T12:30:30Z</time>
      </trkpt>
      <trkpt lat="42.63008" lon="1.87735">
        <ele>1830.01</ele>
        <time>2016-01-12T12:30:34Z</time>
      </trkpt>
      <trkpt lat="42.63013" lon="1.87727">
        <ele>1829.05</ele>
        <time>2016-01-12T12:30:41Z</time>
      </trkpt>
      <trkpt lat="42.63016" lon="1.87725">
        <ele>1828.56</ele>
        <time>2016-01-12T12:30:45Z</time>
      </trkpt>
      <trkpt lat="42.63018" lon="1.87721">
        <ele>1828.08</ele>
        <time>2016-01-12T12:30:48Z</time>
      </trkpt>
      <trkpt lat="42.63019" lon="1.87717">
        <ele>1828.56</ele>
        <time>2016-01-12T12:30:51Z</time>
      </trkpt>
      <trkpt lat="42.63022" lon="1.87712">
        <ele>1828.08</ele>
        <time>2016-01-12T12:30:55Z</time>
      </trkpt>
      <trkpt lat="42.63025" lon="1.87705">
        <ele>1827.12</ele>
        <time>2016-01-12T12:31:02Z</time>
      </trkpt>
      <trkpt lat="42.63028" lon="1.87695">
        <ele>1826.16</ele>
        <time>2016-01-12T12:31:10Z</time>
      </trkpt>
      <trkpt lat="42.63029" lon="1.87691">
        <ele>1825.68</ele>
        <time>2016-01-12T12:31:13Z</time>
      </trkpt>
      <trkpt lat="42.63032" lon="1.87689">
        <ele>1826.64</ele>
        <time>2016-01-12T12:31:15Z</time>
      </trkpt>
      <trkpt lat="42.63034" lon="1.87688">
        <ele>1825.68</ele>
        <time>2016-01-12T12:31:20Z</time>
      </trkpt>
      <trkpt lat="42.63035" lon="1.87685">
        <ele>1826.16</ele>
        <time>2016-01-12T12:31:22Z</time>
      </trkpt>
      <trkpt lat="42.63043" lon="1.87677">
        <ele>1826.16</ele>
        <time>2016-01-12T12:31:33Z</time>
      </trkpt>
      <trkpt lat="42.63044" lon="1.87674">
        <ele>1826.16</ele>
        <time>2016-01-12T12:31:35Z</time>
      </trkpt>
      <trkpt lat="42.63047" lon="1.87662">
        <ele>1825.68</ele>
        <time>2016-01-12T12:31:43Z</time>
      </trkpt>
      <trkpt lat="42.63051" lon="1.87658">
        <ele>1825.2</ele>
        <time>2016-01-12T12:31:53Z</time>
      </trkpt>
      <trkpt lat="42.63053" lon="1.87653">
        <ele>1824.24</ele>
        <time>2016-01-12T12:31:57Z</time>
      </trkpt>
      <trkpt lat="42.63055" lon="1.87646">
        <ele>1823.28</ele>
        <time>2016-01-12T12:32:03Z</time>
      </trkpt>
      <trkpt lat="42.63055" lon="1.8764">
        <ele>1822.8</ele>
        <time>2016-01-12T12:32:09Z</time>
      </trkpt>
      <trkpt lat="42.63056" lon="1.87636">
        <ele>1822.8</ele>
        <time>2016-01-12T12:32:12Z</time>
      </trkpt>
      <trkpt lat="42.63062" lon="1.87628">
        <ele>1821.84</ele>
        <time>2016-01-12T12:32:22Z</time>
      </trkpt>
      <trkpt lat="42.63063" lon="1.87624">
        <ele>1821.84</ele>
        <time>2016-01-12T12:32:26Z</time>
      </trkpt>
      <trkpt lat="42.63064" lon="1.8762">
        <ele>1819.91</ele>
        <time>2016-01-12T12:32:34Z</time>
      </trkpt>
      <trkpt lat="42.63065" lon="1.87614">
        <ele>1818.47</ele>
        <time>2016-01-12T12:32:42Z</time>
      </trkpt>
      <trkpt lat="42.63065" lon="1.87608">
        <ele>1816.55</ele>
        <time>2016-01-12T12:32:51Z</time>
      </trkpt>
      <trkpt lat="42.63065" lon="1.87611">
        <ele>1817.03</ele>
        <time>2016-01-12T12:33:06Z</time>
      </trkpt>
      <trkpt lat="42.63064" lon="1.87605">
        <ele>1816.07</ele>
        <time>2016-01-12T12:33:18Z</time>
      </trkpt>
      <trkpt lat="42.63063" lon="1.87603">
        <ele>1815.59</ele>
        <time>2016-01-12T12:33:32Z</time>
      </trkpt>
      <trkpt lat="42.63062" lon="1.87601">
        <ele>1815.59</ele>
        <time>2016-01-12T12:33:50Z</time>
      </trkpt>
      <trkpt lat="42.63062" lon="1.87598">
        <ele>1815.11</ele>
        <time>2016-01-12T12:33:52Z</time>
      </trkpt>
      <trkpt lat="42.63061" lon="1.87596">
        <ele>1813.66</ele>
        <time>2016-01-12T12:33:54Z</time>
      </trkpt>
      <trkpt lat="42.6306" lon="1.87593">
        <ele>1813.66</ele>
        <time>2016-01-12T12:33:57Z</time>
      </trkpt>
      <trkpt lat="42.6306" lon="1.8759">
        <ele>1812.7</ele>
        <time>2016-01-12T12:33:59Z</time>
      </trkpt>
      <trkpt lat="42.63063" lon="1.87582">
        <ele>1810.78</ele>
        <time>2016-01-12T12:34:09Z</time>
      </trkpt>
      <trkpt lat="42.63063" lon="1.87582">
        <ele>1809.34</ele>
        <time>2016-01-12T12:34:11Z</time>
      </trkpt>
      <trkpt lat="42.63067" lon="1.87577">
        <ele>1808.38</ele>
        <time>2016-01-12T12:34:18Z</time>
      </trkpt>
      <trkpt lat="42.63068" lon="1.8757">
        <ele>1807.9</ele>
        <time>2016-01-12T12:34:22Z</time>
      </trkpt>
      <trkpt lat="42.63067" lon="1.87564">
        <ele>1806.94</ele>
        <time>2016-01-12T12:34:26Z</time>
      </trkpt>
      <trkpt lat="42.63068" lon="1.87554">
        <ele>1806.45</ele>
        <time>2016-01-12T12:34:32Z</time>
      </trkpt>
      <trkpt lat="42.6307" lon="1.87553">
        <ele>1805.49</ele>
        <time>2016-01-12T12:34:34Z</time>
      </trkpt>
      <trkpt lat="42.63072" lon="1.87553">
        <ele>1805.01</ele>
        <time>2016-01-12T12:34:36Z</time>
      </trkpt>
      <trkpt lat="42.63076" lon="1.87543">
        <ele>1803.57</ele>
        <time>2016-01-12T12:34:46Z</time>
      </trkpt>
      <trkpt lat="42.63077" lon="1.8754">
        <ele>1802.61</ele>
        <time>2016-01-12T12:34:49Z</time>
      </trkpt>
      <trkpt lat="42.63077" lon="1.87533">
        <ele>1802.61</ele>
        <time>2016-01-12T12:34:54Z</time>
      </trkpt>
      <trkpt lat="42.63076" lon="1.8753">
        <ele>1802.13</ele>
        <time>2016-01-12T12:34:56Z</time>
      </trkpt>
      <trkpt lat="42.63078" lon="1.87523">
        <ele>1801.65</ele>
        <time>2016-01-12T12:35:00Z</time>
      </trkpt>
      <trkpt lat="42.63084" lon="1.87513">
        <ele>1800.21</ele>
        <time>2016-01-12T12:35:09Z</time>
      </trkpt>
      <trkpt lat="42.63084" lon="1.8751">
        <ele>1799.24</ele>
        <time>2016-01-12T12:35:11Z</time>
      </trkpt>
      <trkpt lat="42.63084" lon="1.875">
        <ele>1798.28</ele>
        <time>2016-01-12T12:35:18Z</time>
      </trkpt>
      <trkpt lat="42.63088" lon="1.87491">
        <ele>1796.84</ele>
        <time>2016-01-12T12:35:27Z</time>
      </trkpt>
      <trkpt lat="42.63089" lon="1.87487">
        <ele>1795.88</ele>
        <time>2016-01-12T12:35:35Z</time>
      </trkpt>
      <trkpt lat="42.63095" lon="1.87478">
        <ele>1794.44</ele>
        <time>2016-01-12T12:35:44Z</time>
      </trkpt>
      <trkpt lat="42.63098" lon="1.8747">
        <ele>1793.48</ele>
        <time>2016-01-12T12:35:52Z</time>
      </trkpt>
      <trkpt lat="42.63098" lon="1.87467">
        <ele>1793.48</ele>
        <time>2016-01-12T12:35:54Z</time>
      </trkpt>
      <trkpt lat="42.63098" lon="1.87464">
        <ele>1792.52</ele>
        <time>2016-01-12T12:35:57Z</time>
      </trkpt>
      <trkpt lat="42.63098" lon="1.87458">
        <ele>1792.52</ele>
        <time>2016-01-12T12:36:02Z</time>
      </trkpt>
      <trkpt lat="42.63097" lon="1.87454">
        <ele>1792.03</ele>
        <time>2016-01-12T12:36:05Z</time>
      </trkpt>
      <trkpt lat="42.63097" lon="1.8745">
        <ele>1792.52</ele>
        <time>2016-01-12T12:36:09Z</time>
      </trkpt>
      <trkpt lat="42.63097" lon="1.87446">
        <ele>1792.03</ele>
        <time>2016-01-12T12:36:11Z</time>
      </trkpt>
      <trkpt lat="42.63097" lon="1.8744">
        <ele>1791.55</ele>
        <time>2016-01-12T12:36:16Z</time>
      </trkpt>
      <trkpt lat="42.63096" lon="1.87431">
        <ele>1791.07</ele>
        <time>2016-01-12T12:36:23Z</time>
      </trkpt>
      <trkpt lat="42.63096" lon="1.87427">
        <ele>1790.11</ele>
        <time>2016-01-12T12:36:26Z</time>
      </trkpt>
      <trkpt lat="42.63096" lon="1.87422">
        <ele>1790.11</ele>
        <time>2016-01-12T12:36:31Z</time>
      </trkpt>
      <trkpt lat="42.63099" lon="1.8741">
        <ele>1788.19</ele>
        <time>2016-01-12T12:36:41Z</time>
      </trkpt>
      <trkpt lat="42.63101" lon="1.87402">
        <ele>1786.27</ele>
        <time>2016-01-12T12:36:50Z</time>
      </trkpt>
      <trkpt lat="42.63101" lon="1.874">
        <ele>1786.27</ele>
        <time>2016-01-12T12:36:51Z</time>
      </trkpt>
      <trkpt lat="42.63101" lon="1.87396">
        <ele>1786.75</ele>
        <time>2016-01-12T12:36:54Z</time>
      </trkpt>
      <trkpt lat="42.63101" lon="1.87387">
        <ele>1786.75</ele>
        <time>2016-01-12T12:37:01Z</time>
      </trkpt>
      <trkpt lat="42.63101" lon="1.87382">
        <ele>1786.27</ele>
        <time>2016-01-12T12:37:04Z</time>
      </trkpt>
      <trkpt lat="42.63105" lon="1.87368">
        <ele>1785.79</ele>
        <time>2016-01-12T12:37:14Z</time>
      </trkpt>
      <trkpt lat="42.63106" lon="1.87365">
        <ele>1786.27</ele>
        <time>2016-01-12T12:37:16Z</time>
      </trkpt>
      <trkpt lat="42.63106" lon="1.87361">
        <ele>1784.82</ele>
        <time>2016-01-12T12:37:19Z</time>
      </trkpt>
      <trkpt lat="42.63107" lon="1.87357">
        <ele>1784.82</ele>
        <time>2016-01-12T12:37:22Z</time>
      </trkpt>
      <trkpt lat="42.63105" lon="1.87352">
        <ele>1785.31</ele>
        <time>2016-01-12T12:37:27Z</time>
      </trkpt>
      <trkpt lat="42.63104" lon="1.87349">
        <ele>1786.75</ele>
        <time>2016-01-12T12:37:30Z</time>
      </trkpt>
      <trkpt lat="42.63103" lon="1.87341">
        <ele>1787.23</ele>
        <time>2016-01-12T12:37:38Z</time>
      </trkpt>
      <trkpt lat="42.63105" lon="1.87329">
        <ele>1787.71</ele>
        <time>2016-01-12T12:37:46Z</time>
      </trkpt>
      <trkpt lat="42.63106" lon="1.87322">
        <ele>1787.71</ele>
        <time>2016-01-12T12:37:52Z</time>
      </trkpt>
      <trkpt lat="42.63108" lon="1.8732">
        <ele>1787.71</ele>
        <time>2016-01-12T12:37:54Z</time>
      </trkpt>
      <trkpt lat="42.63108" lon="1.87317">
        <ele>1788.19</ele>
        <time>2016-01-12T12:37:56Z</time>
      </trkpt>
      <trkpt lat="42.63111" lon="1.87309">
        <ele>1787.23</ele>
        <time>2016-01-12T12:38:04Z</time>
      </trkpt>
      <trkpt lat="42.63112" lon="1.87304">
        <ele>1787.71</ele>
        <time>2016-01-12T12:38:07Z</time>
      </trkpt>
      <trkpt lat="42.63115" lon="1.87294">
        <ele>1787.23</ele>
        <time>2016-01-12T12:38:15Z</time>
      </trkpt>
      <trkpt lat="42.63116" lon="1.87291">
        <ele>1786.75</ele>
        <time>2016-01-12T12:38:17Z</time>
      </trkpt>
      <trkpt lat="42.63121" lon="1.87283">
        <ele>1786.27</ele>
        <time>2016-01-12T12:38:28Z</time>
      </trkpt>
      <trkpt lat="42.63123" lon="1.8728">
        <ele>1785.31</ele>
        <time>2016-01-12T12:38:34Z</time>
      </trkpt>
      <trkpt lat="42.63126" lon="1.87271">
        <ele>1784.34</ele>
        <time>2016-01-12T12:38:45Z</time>
      </trkpt>
      <trkpt lat="42.63129" lon="1.87269">
        <ele>1783.86</ele>
        <time>2016-01-12T12:38:55Z</time>
      </trkpt>
      <trkpt lat="42.63131" lon="1.87268">
        <ele>1783.38</ele>
        <time>2016-01-12T12:39:05Z</time>
      </trkpt>
      <trkpt lat="42.63132" lon="1.87266">
        <ele>1781.94</ele>
        <time>2016-01-12T12:39:17Z</time>
      </trkpt>
      <trkpt lat="42.63135" lon="1.87261">
        <ele>1780.5</ele>
        <time>2016-01-12T12:39:26Z</time>
      </trkpt>
      <trkpt lat="42.6314" lon="1.87254">
        <ele>1779.54</ele>
        <time>2016-01-12T12:39:36Z</time>
      </trkpt>
      <trkpt lat="42.63143" lon="1.87249">
        <ele>1777.13</ele>
        <time>2016-01-12T12:39:45Z</time>
      </trkpt>
      <trkpt lat="42.63145" lon="1.87242">
        <ele>1775.69</ele>
        <time>2016-01-12T12:39:53Z</time>
      </trkpt>
      <trkpt lat="42.63145" lon="1.87238">
        <ele>1775.69</ele>
        <time>2016-01-12T12:39:56Z</time>
      </trkpt>
      <trkpt lat="42.63146" lon="1.87236">
        <ele>1774.25</ele>
        <time>2016-01-12T12:39:59Z</time>
      </trkpt>
      <trkpt lat="42.63146" lon="1.87235">
        <ele>1774.73</ele>
        <time>2016-01-12T12:40:00Z</time>
      </trkpt>
      <trkpt lat="42.63149" lon="1.87227">
        <ele>1772.81</ele>
        <time>2016-01-12T12:40:07Z</time>
      </trkpt>
      <trkpt lat="42.63149" lon="1.87225">
        <ele>1772.33</ele>
        <time>2016-01-12T12:40:09Z</time>
      </trkpt>
      <trkpt lat="42.63153" lon="1.87218">
        <ele>1772.33</ele>
        <time>2016-01-12T12:40:16Z</time>
      </trkpt>
      <trkpt lat="42.63156" lon="1.87214">
        <ele>1770.89</ele>
        <time>2016-01-12T12:40:20Z</time>
      </trkpt>
      <trkpt lat="42.63157" lon="1.87202">
        <ele>1769.92</ele>
        <time>2016-01-12T12:40:27Z</time>
      </trkpt>
      <trkpt lat="42.63158" lon="1.87197">
        <ele>1769.92</ele>
        <time>2016-01-12T12:40:30Z</time>
      </trkpt>
      <trkpt lat="42.63163" lon="1.8719">
        <ele>1769.92</ele>
        <time>2016-01-12T12:40:37Z</time>
      </trkpt>
      <trkpt lat="42.6317" lon="1.8718">
        <ele>1768.96</ele>
        <time>2016-01-12T12:40:48Z</time>
      </trkpt>
      <trkpt lat="42.63173" lon="1.87175">
        <ele>1768</ele>
        <time>2016-01-12T12:40:53Z</time>
      </trkpt>
      <trkpt lat="42.63175" lon="1.87173">
        <ele>1767.52</ele>
        <time>2016-01-12T12:40:56Z</time>
      </trkpt>
      <trkpt lat="42.63185" lon="1.87164">
        <ele>1766.56</ele>
        <time>2016-01-12T12:41:07Z</time>
      </trkpt>
      <trkpt lat="42.63192" lon="1.87157">
        <ele>1765.6</ele>
        <time>2016-01-12T12:41:16Z</time>
      </trkpt>
      <trkpt lat="42.63196" lon="1.87155">
        <ele>1764.64</ele>
        <time>2016-01-12T12:41:19Z</time>
      </trkpt>
      <trkpt lat="42.63201" lon="1.87152">
        <ele>1764.16</ele>
        <time>2016-01-12T12:41:25Z</time>
      </trkpt>
      <trkpt lat="42.63204" lon="1.87148">
        <ele>1761.75</ele>
        <time>2016-01-12T12:41:31Z</time>
      </trkpt>
      <trkpt lat="42.63206" lon="1.87148">
        <ele>1761.75</ele>
        <time>2016-01-12T12:41:33Z</time>
      </trkpt>
      <trkpt lat="42.63213" lon="1.87143">
        <ele>1759.35</ele>
        <time>2016-01-12T12:41:42Z</time>
      </trkpt>
      <trkpt lat="42.63217" lon="1.87138">
        <ele>1758.87</ele>
        <time>2016-01-12T12:41:47Z</time>
      </trkpt>
      <trkpt lat="42.63228" lon="1.87131">
        <ele>1756.47</ele>
        <time>2016-01-12T12:41:59Z</time>
      </trkpt>
      <trkpt lat="42.6323" lon="1.87128">
        <ele>1755.99</ele>
        <time>2016-01-12T12:42:02Z</time>
      </trkpt>
      <trkpt lat="42.63232" lon="1.87123">
        <ele>1755.02</ele>
        <time>2016-01-12T12:42:06Z</time>
      </trkpt>
      <trkpt lat="42.63238" lon="1.87115">
        <ele>1754.06</ele>
        <time>2016-01-12T12:42:16Z</time>
      </trkpt>
      <trkpt lat="42.63242" lon="1.8711">
        <ele>1753.58</ele>
        <time>2016-01-12T12:42:21Z</time>
      </trkpt>
      <trkpt lat="42.63245" lon="1.87108">
        <ele>1754.06</ele>
        <time>2016-01-12T12:42:24Z</time>
      </trkpt>
      <trkpt lat="42.63247" lon="1.87109">
        <ele>1754.54</ele>
        <time>2016-01-12T12:42:26Z</time>
      </trkpt>
      <trkpt lat="42.63248" lon="1.87108">
        <ele>1754.06</ele>
        <time>2016-01-12T12:42:28Z</time>
      </trkpt>
      <trkpt lat="42.63251" lon="1.87107">
        <ele>1753.1</ele>
        <time>2016-01-12T12:42:31Z</time>
      </trkpt>
      <trkpt lat="42.63251" lon="1.87104">
        <ele>1753.1</ele>
        <time>2016-01-12T12:42:33Z</time>
      </trkpt>
      <trkpt lat="42.63255" lon="1.87095">
        <ele>1752.62</ele>
        <time>2016-01-12T12:42:44Z</time>
      </trkpt>
      <trkpt lat="42.63255" lon="1.87095">
        <ele>1752.62</ele>
        <time>2016-01-12T12:42:45Z</time>
      </trkpt>
      <trkpt lat="42.63258" lon="1.87092">
        <ele>1752.14</ele>
        <time>2016-01-12T12:42:48Z</time>
      </trkpt>
      <trkpt lat="42.63262" lon="1.87088">
        <ele>1751.66</ele>
        <time>2016-01-12T12:42:54Z</time>
      </trkpt>
      <trkpt lat="42.63263" lon="1.87081">
        <ele>1751.18</ele>
        <time>2016-01-12T12:42:59Z</time>
      </trkpt>
      <trkpt lat="42.63267" lon="1.87075">
        <ele>1750.22</ele>
        <time>2016-01-12T12:43:07Z</time>
      </trkpt>
      <trkpt lat="42.63269" lon="1.87071">
        <ele>1748.78</ele>
        <time>2016-01-12T12:43:11Z</time>
      </trkpt>
      <trkpt lat="42.63272" lon="1.87066">
        <ele>1748.29</ele>
        <time>2016-01-12T12:43:19Z</time>
      </trkpt>
      <trkpt lat="42.63273" lon="1.87063">
        <ele>1747.33</ele>
        <time>2016-01-12T12:43:21Z</time>
      </trkpt>
      <trkpt lat="42.63274" lon="1.87061">
        <ele>1747.33</ele>
        <time>2016-01-12T12:43:23Z</time>
      </trkpt>
      <trkpt lat="42.63275" lon="1.87059">
        <ele>1747.33</ele>
        <time>2016-01-12T12:43:25Z</time>
      </trkpt>
      <trkpt lat="42.6328" lon="1.8705">
        <ele>1746.85</ele>
        <time>2016-01-12T12:43:33Z</time>
      </trkpt>
      <trkpt lat="42.63281" lon="1.87046">
        <ele>1745.89</ele>
        <time>2016-01-12T12:43:36Z</time>
      </trkpt>
      <trkpt lat="42.63283" lon="1.87042">
        <ele>1745.89</ele>
        <time>2016-01-12T12:43:41Z</time>
      </trkpt>
      <trkpt lat="42.63285" lon="1.87033">
        <ele>1745.89</ele>
        <time>2016-01-12T12:43:47Z</time>
      </trkpt>
      <trkpt lat="42.63292" lon="1.87023">
        <ele>1744.93</ele>
        <time>2016-01-12T12:43:56Z</time>
      </trkpt>
      <trkpt lat="42.63303" lon="1.87021">
        <ele>1743.01</ele>
        <time>2016-01-12T12:44:07Z</time>
      </trkpt>
      <trkpt lat="42.63303" lon="1.87014">
        <ele>1742.53</ele>
        <time>2016-01-12T12:44:14Z</time>
      </trkpt>
      <trkpt lat="42.63306" lon="1.87006">
        <ele>1742.05</ele>
        <time>2016-01-12T12:44:21Z</time>
      </trkpt>
      <trkpt lat="42.63312" lon="1.87002">
        <ele>1741.08</ele>
        <time>2016-01-12T12:44:27Z</time>
      </trkpt>
      <trkpt lat="42.63318" lon="1.86994">
        <ele>1739.64</ele>
        <time>2016-01-12T12:44:37Z</time>
      </trkpt>
      <trkpt lat="42.63322" lon="1.86989">
        <ele>1737.72</ele>
        <time>2016-01-12T12:44:45Z</time>
      </trkpt>
      <trkpt lat="42.63321" lon="1.86987">
        <ele>1737.24</ele>
        <time>2016-01-12T12:44:47Z</time>
      </trkpt>
      <trkpt lat="42.63325" lon="1.86978">
        <ele>1735.8</ele>
        <time>2016-01-12T12:44:57Z</time>
      </trkpt>
      <trkpt lat="42.63328" lon="1.86977">
        <ele>1733.88</ele>
        <time>2016-01-12T12:45:06Z</time>
      </trkpt>
      <trkpt lat="42.63329" lon="1.86974">
        <ele>1733.39</ele>
        <time>2016-01-12T12:45:13Z</time>
      </trkpt>
      <trkpt lat="42.6333" lon="1.86973">
        <ele>1733.39</ele>
        <time>2016-01-12T12:45:15Z</time>
      </trkpt>
      <trkpt lat="42.63337" lon="1.8698">
        <ele>1732.91</ele>
        <time>2016-01-12T12:45:27Z</time>
      </trkpt>
      <trkpt lat="42.63342" lon="1.86981">
        <ele>1732.91</ele>
        <time>2016-01-12T12:45:36Z</time>
      </trkpt>
      <trkpt lat="42.63343" lon="1.86978">
        <ele>1732.91</ele>
        <time>2016-01-12T12:45:39Z</time>
      </trkpt>
      <trkpt lat="42.63343" lon="1.8697">
        <ele>1732.91</ele>
        <time>2016-01-12T12:45:46Z</time>
      </trkpt>
      <trkpt lat="42.63343" lon="1.86968">
        <ele>1731.95</ele>
        <time>2016-01-12T12:45:48Z</time>
      </trkpt>
      <trkpt lat="42.63345" lon="1.86957">
        <ele>1732.43</ele>
        <time>2016-01-12T12:45:58Z</time>
      </trkpt>
      <trkpt lat="42.6335" lon="1.86949">
        <ele>1732.43</ele>
        <time>2016-01-12T12:46:07Z</time>
      </trkpt>
      <trkpt lat="42.63356" lon="1.86935">
        <ele>1730.99</ele>
        <time>2016-01-12T12:46:18Z</time>
      </trkpt>
      <trkpt lat="42.63357" lon="1.86934">
        <ele>1730.51</ele>
        <time>2016-01-12T12:46:20Z</time>
      </trkpt>
      <trkpt lat="42.63364" lon="1.86931">
        <ele>1732.43</ele>
        <time>2016-01-12T12:46:30Z</time>
      </trkpt>
      <trkpt lat="42.63371" lon="1.86929">
        <ele>1733.39</ele>
        <time>2016-01-12T12:46:38Z</time>
      </trkpt>
      <trkpt lat="42.6338" lon="1.86923">
        <ele>1734.36</ele>
        <time>2016-01-12T12:46:48Z</time>
      </trkpt>
      <trkpt lat="42.6338" lon="1.86923">
        <ele>1734.84</ele>
        <time>2016-01-12T12:46:49Z</time>
      </trkpt>
      <trkpt lat="42.63388" lon="1.86918">
        <ele>1736.28</ele>
        <time>2016-01-12T12:46:59Z</time>
      </trkpt>
      <trkpt lat="42.63398" lon="1.86917">
        <ele>1737.24</ele>
        <time>2016-01-12T12:47:10Z</time>
      </trkpt>
      <trkpt lat="42.63399" lon="1.86916">
        <ele>1737.24</ele>
        <time>2016-01-12T12:47:12Z</time>
      </trkpt>
      <trkpt lat="42.63405" lon="1.86913">
        <ele>1737.24</ele>
        <time>2016-01-12T12:47:21Z</time>
      </trkpt>
      <trkpt lat="42.63411" lon="1.86907">
        <ele>1736.76</ele>
        <time>2016-01-12T12:47:32Z</time>
      </trkpt>
      <trkpt lat="42.63416" lon="1.86904">
        <ele>1735.32</ele>
        <time>2016-01-12T12:47:40Z</time>
      </trkpt>
      <trkpt lat="42.6342" lon="1.86902">
        <ele>1734.36</ele>
        <time>2016-01-12T12:47:46Z</time>
      </trkpt>
      <trkpt lat="42.63426" lon="1.86897">
        <ele>1733.88</ele>
        <time>2016-01-12T12:47:55Z</time>
      </trkpt>
      <trkpt lat="42.63426" lon="1.86897">
        <ele>1732.91</ele>
        <time>2016-01-12T12:48:01Z</time>
      </trkpt>
      <trkpt lat="42.63435" lon="1.86887">
        <ele>1732.91</ele>
        <time>2016-01-12T12:48:11Z</time>
      </trkpt>
      <trkpt lat="42.63445" lon="1.86888">
        <ele>1734.36</ele>
        <time>2016-01-12T12:48:22Z</time>
      </trkpt>
      <trkpt lat="42.63446" lon="1.86887">
        <ele>1732.91</ele>
        <time>2016-01-12T12:48:23Z</time>
      </trkpt>
      <trkpt lat="42.63453" lon="1.86881">
        <ele>1731.95</ele>
        <time>2016-01-12T12:48:33Z</time>
      </trkpt>
      <trkpt lat="42.63459" lon="1.86879">
        <ele>1730.51</ele>
        <time>2016-01-12T12:48:43Z</time>
      </trkpt>
      <trkpt lat="42.63459" lon="1.86881">
        <ele>1731.47</ele>
        <time>2016-01-12T12:49:06Z</time>
      </trkpt>
      <trkpt lat="42.63459" lon="1.8688">
        <ele>1730.99</ele>
        <time>2016-01-12T12:49:24Z</time>
      </trkpt>
      <trkpt lat="42.63458" lon="1.8688">
        <ele>1730.99</ele>
        <time>2016-01-12T12:49:44Z</time>
      </trkpt>
      <trkpt lat="42.63459" lon="1.86881">
        <ele>1730.99</ele>
        <time>2016-01-12T12:49:54Z</time>
      </trkpt>
      <trkpt lat="42.63461" lon="1.8688">
        <ele>1730.99</ele>
        <time>2016-01-12T12:50:00Z</time>
      </trkpt>
      <trkpt lat="42.63464" lon="1.86877">
        <ele>1729.55</ele>
        <time>2016-01-12T12:50:04Z</time>
      </trkpt>
      <trkpt lat="42.63466" lon="1.86876">
        <ele>1729.07</ele>
        <time>2016-01-12T12:50:06Z</time>
      </trkpt>
      <trkpt lat="42.63467" lon="1.86876">
        <ele>1729.07</ele>
        <time>2016-01-12T12:50:07Z</time>
      </trkpt>
      <trkpt lat="42.6347" lon="1.86876">
        <ele>1728.59</ele>
        <time>2016-01-12T12:50:10Z</time>
      </trkpt>
      <trkpt lat="42.63474" lon="1.86872">
        <ele>1727.15</ele>
        <time>2016-01-12T12:50:15Z</time>
      </trkpt>
      <trkpt lat="42.63483" lon="1.86865">
        <ele>1725.22</ele>
        <time>2016-01-12T12:50:26Z</time>
      </trkpt>
      <trkpt lat="42.63488" lon="1.86863">
        <ele>1723.78</ele>
        <time>2016-01-12T12:50:33Z</time>
      </trkpt>
      <trkpt lat="42.63493" lon="1.86862">
        <ele>1722.82</ele>
        <time>2016-01-12T12:50:39Z</time>
      </trkpt>
      <trkpt lat="42.63496" lon="1.86864">
        <ele>1722.34</ele>
        <time>2016-01-12T12:50:43Z</time>
      </trkpt>
      <trkpt lat="42.63503" lon="1.86858">
        <ele>1720.9</ele>
        <time>2016-01-12T12:50:54Z</time>
      </trkpt>
      <trkpt lat="42.63505" lon="1.86854">
        <ele>1720.42</ele>
        <time>2016-01-12T12:50:58Z</time>
      </trkpt>
      <trkpt lat="42.63511" lon="1.86844">
        <ele>1718.49</ele>
        <time>2016-01-12T12:51:09Z</time>
      </trkpt>
      <trkpt lat="42.63512" lon="1.86843">
        <ele>1718.01</ele>
        <time>2016-01-12T12:51:11Z</time>
      </trkpt>
      <trkpt lat="42.63517" lon="1.86838">
        <ele>1717.53</ele>
        <time>2016-01-12T12:51:19Z</time>
      </trkpt>
      <trkpt lat="42.63523" lon="1.86836">
        <ele>1716.09</ele>
        <time>2016-01-12T12:51:30Z</time>
      </trkpt>
      <trkpt lat="42.63526" lon="1.86834">
        <ele>1715.61</ele>
        <time>2016-01-12T12:51:33Z</time>
      </trkpt>
      <trkpt lat="42.63528" lon="1.86833">
        <ele>1716.09</ele>
        <time>2016-01-12T12:51:35Z</time>
      </trkpt>
      <trkpt lat="42.63539" lon="1.86827">
        <ele>1715.13</ele>
        <time>2016-01-12T12:51:46Z</time>
      </trkpt>
      <trkpt lat="42.63547" lon="1.8682">
        <ele>1713.69</ele>
        <time>2016-01-12T12:51:56Z</time>
      </trkpt>
      <trkpt lat="42.63557" lon="1.86813">
        <ele>1712.25</ele>
        <time>2016-01-12T12:52:06Z</time>
      </trkpt>
      <trkpt lat="42.63559" lon="1.86811">
        <ele>1712.73</ele>
        <time>2016-01-12T12:52:08Z</time>
      </trkpt>
      <trkpt lat="42.63563" lon="1.8681">
        <ele>1712.25</ele>
        <time>2016-01-12T12:52:11Z</time>
      </trkpt>
      <trkpt lat="42.63566" lon="1.86806">
        <ele>1711.76</ele>
        <time>2016-01-12T12:52:15Z</time>
      </trkpt>
      <trkpt lat="42.63567" lon="1.86805">
        <ele>1711.76</ele>
        <time>2016-01-12T12:52:16Z</time>
      </trkpt>
      <trkpt lat="42.6357" lon="1.86801">
        <ele>1711.28</ele>
        <time>2016-01-12T12:52:20Z</time>
      </trkpt>
      <trkpt lat="42.63572" lon="1.86798">
        <ele>1710.8</ele>
        <time>2016-01-12T12:52:23Z</time>
      </trkpt>
      <trkpt lat="42.63581" lon="1.86794">
        <ele>1710.32</ele>
        <time>2016-01-12T12:52:33Z</time>
      </trkpt>
      <trkpt lat="42.63591" lon="1.86788">
        <ele>1709.84</ele>
        <time>2016-01-12T12:52:43Z</time>
      </trkpt>
      <trkpt lat="42.63595" lon="1.86784">
        <ele>1709.84</ele>
        <time>2016-01-12T12:52:48Z</time>
      </trkpt>
      <trkpt lat="42.63601" lon="1.86781">
        <ele>1709.84</ele>
        <time>2016-01-12T12:52:55Z</time>
      </trkpt>
      <trkpt lat="42.63608" lon="1.86769">
        <ele>1709.36</ele>
        <time>2016-01-12T12:53:07Z</time>
      </trkpt>
      <trkpt lat="42.63609" lon="1.86767">
        <ele>1709.36</ele>
        <time>2016-01-12T12:53:10Z</time>
      </trkpt>
      <trkpt lat="42.63615" lon="1.86768">
        <ele>1708.88</ele>
        <time>2016-01-12T12:53:15Z</time>
      </trkpt>
      <trkpt lat="42.63623" lon="1.86766">
        <ele>1707.92</ele>
        <time>2016-01-12T12:53:23Z</time>
      </trkpt>
      <trkpt lat="42.63634" lon="1.86762">
        <ele>1706.96</ele>
        <time>2016-01-12T12:53:34Z</time>
      </trkpt>
      <trkpt lat="42.63639" lon="1.86761">
        <ele>1706</ele>
        <time>2016-01-12T12:53:42Z</time>
      </trkpt>
      <trkpt lat="42.63643" lon="1.86763">
        <ele>1705.04</ele>
        <time>2016-01-12T12:53:48Z</time>
      </trkpt>
      <trkpt lat="42.6365" lon="1.86761">
        <ele>1703.59</ele>
        <time>2016-01-12T12:53:59Z</time>
      </trkpt>
      <trkpt lat="42.63655" lon="1.86758">
        <ele>1703.11</ele>
        <time>2016-01-12T12:54:05Z</time>
      </trkpt>
      <trkpt lat="42.63657" lon="1.86755">
        <ele>1703.11</ele>
        <time>2016-01-12T12:54:09Z</time>
      </trkpt>
      <trkpt lat="42.63659" lon="1.86754">
        <ele>1702.63</ele>
        <time>2016-01-12T12:54:12Z</time>
      </trkpt>
      <trkpt lat="42.63661" lon="1.86753">
        <ele>1703.11</ele>
        <time>2016-01-12T12:54:15Z</time>
      </trkpt>
      <trkpt lat="42.63666" lon="1.8675">
        <ele>1703.59</ele>
        <time>2016-01-12T12:54:21Z</time>
      </trkpt>
      <trkpt lat="42.63674" lon="1.86741">
        <ele>1703.59</ele>
        <time>2016-01-12T12:54:32Z</time>
      </trkpt>
      <trkpt lat="42.63675" lon="1.86741">
        <ele>1703.11</ele>
        <time>2016-01-12T12:54:33Z</time>
      </trkpt>
      <trkpt lat="42.63684" lon="1.86739">
        <ele>1702.63</ele>
        <time>2016-01-12T12:54:43Z</time>
      </trkpt>
      <trkpt lat="42.63687" lon="1.86738">
        <ele>1702.63</ele>
        <time>2016-01-12T12:54:48Z</time>
      </trkpt>
      <trkpt lat="42.63689" lon="1.86735">
        <ele>1701.67</ele>
        <time>2016-01-12T12:54:51Z</time>
      </trkpt>
      <trkpt lat="42.63695" lon="1.86728">
        <ele>1701.19</ele>
        <time>2016-01-12T12:55:02Z</time>
      </trkpt>
      <trkpt lat="42.637" lon="1.86727">
        <ele>1700.71</ele>
        <time>2016-01-12T12:55:09Z</time>
      </trkpt>
      <trkpt lat="42.63709" lon="1.86727">
        <ele>1700.71</ele>
        <time>2016-01-12T12:55:19Z</time>
      </trkpt>
      <trkpt lat="42.63713" lon="1.86726">
        <ele>1700.71</ele>
        <time>2016-01-12T12:55:28Z</time>
      </trkpt>
      <trkpt lat="42.63721" lon="1.8672">
        <ele>1700.71</ele>
        <time>2016-01-12T12:55:38Z</time>
      </trkpt>
      <trkpt lat="42.63724" lon="1.8672">
        <ele>1699.27</ele>
        <time>2016-01-12T12:55:47Z</time>
      </trkpt>
      <trkpt lat="42.63725" lon="1.86717">
        <ele>1699.75</ele>
        <time>2016-01-12T12:55:50Z</time>
      </trkpt>
      <trkpt lat="42.63732" lon="1.86713">
        <ele>1699.27</ele>
        <time>2016-01-12T12:56:00Z</time>
      </trkpt>
      <trkpt lat="42.63733" lon="1.86713">
        <ele>1698.79</ele>
        <time>2016-01-12T12:56:02Z</time>
      </trkpt>
      <trkpt lat="42.63735" lon="1.86712">
        <ele>1698.31</ele>
        <time>2016-01-12T12:56:04Z</time>
      </trkpt>
      <trkpt lat="42.63745" lon="1.86708">
        <ele>1697.34</ele>
        <time>2016-01-12T12:56:15Z</time>
      </trkpt>
      <trkpt lat="42.63753" lon="1.86705">
        <ele>1696.86</ele>
        <time>2016-01-12T12:56:25Z</time>
      </trkpt>
      <trkpt lat="42.63756" lon="1.86701">
        <ele>1695.42</ele>
        <time>2016-01-12T12:56:34Z</time>
      </trkpt>
      <trkpt lat="42.63759" lon="1.86699">
        <ele>1693.98</ele>
        <time>2016-01-12T12:56:43Z</time>
      </trkpt>
      <trkpt lat="42.6376" lon="1.86699">
        <ele>1693.98</ele>
        <time>2016-01-12T12:56:44Z</time>
      </trkpt>
      <trkpt lat="42.63763" lon="1.86698">
        <ele>1692.54</ele>
        <time>2016-01-12T12:56:48Z</time>
      </trkpt>
      <trkpt lat="42.63767" lon="1.86695">
        <ele>1692.06</ele>
        <time>2016-01-12T12:56:56Z</time>
      </trkpt>
      <trkpt lat="42.63769" lon="1.86692">
        <ele>1690.62</ele>
        <time>2016-01-12T12:57:03Z</time>
      </trkpt>
      <trkpt lat="42.6377" lon="1.86689">
        <ele>1689.65</ele>
        <time>2016-01-12T12:57:08Z</time>
      </trkpt>
      <trkpt lat="42.63772" lon="1.86689">
        <ele>1689.65</ele>
        <time>2016-01-12T12:57:10Z</time>
      </trkpt>
      <trkpt lat="42.63778" lon="1.86687">
        <ele>1687.25</ele>
        <time>2016-01-12T12:57:20Z</time>
      </trkpt>
      <trkpt lat="42.63779" lon="1.86684">
        <ele>1686.77</ele>
        <time>2016-01-12T12:57:23Z</time>
      </trkpt>
      <trkpt lat="42.63787" lon="1.86685">
        <ele>1686.29</ele>
        <time>2016-01-12T12:57:31Z</time>
      </trkpt>
      <trkpt lat="42.63798" lon="1.86683">
        <ele>1686.77</ele>
        <time>2016-01-12T12:57:43Z</time>
      </trkpt>
      <trkpt lat="42.63801" lon="1.86678">
        <ele>1684.85</ele>
        <time>2016-01-12T12:57:52Z</time>
      </trkpt>
      <trkpt lat="42.63804" lon="1.86678">
        <ele>1683.89</ele>
        <time>2016-01-12T12:58:06Z</time>
      </trkpt>
      <trkpt lat="42.63805" lon="1.86678">
        <ele>1684.37</ele>
        <time>2016-01-12T12:58:07Z</time>
      </trkpt>
      <trkpt lat="42.63809" lon="1.86678">
        <ele>1682.44</ele>
        <time>2016-01-12T12:58:14Z</time>
      </trkpt>
      <trkpt lat="42.63817" lon="1.86672">
        <ele>1681</ele>
        <time>2016-01-12T12:58:22Z</time>
      </trkpt>
      <trkpt lat="42.63823" lon="1.86665">
        <ele>1678.6</ele>
        <time>2016-01-12T12:58:32Z</time>
      </trkpt>
      <trkpt lat="42.6383" lon="1.86662">
        <ele>1677.64</ele>
        <time>2016-01-12T12:58:40Z</time>
      </trkpt>
      <trkpt lat="42.63833" lon="1.8666">
        <ele>1676.68</ele>
        <time>2016-01-12T12:58:44Z</time>
      </trkpt>
      <trkpt lat="42.63839" lon="1.86653">
        <ele>1674.75</ele>
        <time>2016-01-12T12:58:56Z</time>
      </trkpt>
      <trkpt lat="42.63838" lon="1.86653">
        <ele>1674.75</ele>
        <time>2016-01-12T12:58:58Z</time>
      </trkpt>
      <trkpt lat="42.6384" lon="1.86648">
        <ele>1672.83</ele>
        <time>2016-01-12T12:59:03Z</time>
      </trkpt>
      <trkpt lat="42.63843" lon="1.86644">
        <ele>1671.87</ele>
        <time>2016-01-12T12:59:07Z</time>
      </trkpt>
      <trkpt lat="42.63847" lon="1.86642">
        <ele>1668.99</ele>
        <time>2016-01-12T12:59:16Z</time>
      </trkpt>
      <trkpt lat="42.63849" lon="1.86639">
        <ele>1667.54</ele>
        <time>2016-01-12T12:59:24Z</time>
      </trkpt>
      <trkpt lat="42.63856" lon="1.86634">
        <ele>1665.62</ele>
        <time>2016-01-12T12:59:33Z</time>
      </trkpt>
      <trkpt lat="42.6386" lon="1.86634">
        <ele>1663.7</ele>
        <time>2016-01-12T12:59:42Z</time>
      </trkpt>
      <trkpt lat="42.63863" lon="1.86627">
        <ele>1661.78</ele>
        <time>2016-01-12T12:59:51Z</time>
      </trkpt>
      <trkpt lat="42.63867" lon="1.86625">
        <ele>1659.85</ele>
        <time>2016-01-12T13:00:00Z</time>
      </trkpt>
      <trkpt lat="42.63872" lon="1.86615">
        <ele>1656.97</ele>
        <time>2016-01-12T13:00:11Z</time>
      </trkpt>
      <trkpt lat="42.63877" lon="1.86618">
        <ele>1655.05</ele>
        <time>2016-01-12T13:00:21Z</time>
      </trkpt>
      <trkpt lat="42.63875" lon="1.86615">
        <ele>1653.6</ele>
        <time>2016-01-12T13:00:30Z</time>
      </trkpt>
      <trkpt lat="42.63875" lon="1.86613">
        <ele>1653.6</ele>
        <time>2016-01-12T13:00:33Z</time>
      </trkpt>
      <trkpt lat="42.63878" lon="1.86611">
        <ele>1652.16</ele>
        <time>2016-01-12T13:00:36Z</time>
      </trkpt>
      <trkpt lat="42.63888" lon="1.8661">
        <ele>1649.76</ele>
        <time>2016-01-12T13:00:48Z</time>
      </trkpt>
      <trkpt lat="42.63892" lon="1.86609">
        <ele>1648.32</ele>
        <time>2016-01-12T13:00:57Z</time>
      </trkpt>
      <trkpt lat="42.63898" lon="1.86602">
        <ele>1646.4</ele>
        <time>2016-01-12T13:01:08Z</time>
      </trkpt>
      <trkpt lat="42.63903" lon="1.86597">
        <ele>1644.47</ele>
        <time>2016-01-12T13:01:19Z</time>
      </trkpt>
      <trkpt lat="42.63906" lon="1.86594">
        <ele>1642.55</ele>
        <time>2016-01-12T13:01:27Z</time>
      </trkpt>
      <trkpt lat="42.63911" lon="1.8659">
        <ele>1640.63</ele>
        <time>2016-01-12T13:01:38Z</time>
      </trkpt>
      <trkpt lat="42.63916" lon="1.86584">
        <ele>1638.7</ele>
        <time>2016-01-12T13:01:50Z</time>
      </trkpt>
      <trkpt lat="42.63918" lon="1.86582">
        <ele>1637.74</ele>
        <time>2016-01-12T13:01:58Z</time>
      </trkpt>
      <trkpt lat="42.63921" lon="1.86581">
        <ele>1635.34</ele>
        <time>2016-01-12T13:02:06Z</time>
      </trkpt>
      <trkpt lat="42.63924" lon="1.86578">
        <ele>1633.9</ele>
        <time>2016-01-12T13:02:17Z</time>
      </trkpt>
      <trkpt lat="42.63924" lon="1.86576">
        <ele>1632.94</ele>
        <time>2016-01-12T13:02:18Z</time>
      </trkpt>
      <trkpt lat="42.63926" lon="1.86571">
        <ele>1632.46</ele>
        <time>2016-01-12T13:02:22Z</time>
      </trkpt>
      <trkpt lat="42.63927" lon="1.86567">
        <ele>1631.49</ele>
        <time>2016-01-12T13:02:24Z</time>
      </trkpt>
      <trkpt lat="42.63933" lon="1.86556">
        <ele>1629.57</ele>
        <time>2016-01-12T13:02:34Z</time>
      </trkpt>
      <trkpt lat="42.63933" lon="1.86548">
        <ele>1627.65</ele>
        <time>2016-01-12T13:02:43Z</time>
      </trkpt>
      <trkpt lat="42.6394" lon="1.86537">
        <ele>1625.73</ele>
        <time>2016-01-12T13:02:56Z</time>
      </trkpt>
      <trkpt lat="42.63942" lon="1.86535">
        <ele>1625.73</ele>
        <time>2016-01-12T13:02:58Z</time>
      </trkpt>
      <trkpt lat="42.63944" lon="1.86531">
        <ele>1625.25</ele>
        <time>2016-01-12T13:03:08Z</time>
      </trkpt>
      <trkpt lat="42.63944" lon="1.86531">
        <ele>1625.25</ele>
        <time>2016-01-12T13:03:24Z</time>
      </trkpt>
      <trkpt lat="42.63946" lon="1.86528">
        <ele>1625.73</ele>
        <time>2016-01-12T13:03:27Z</time>
      </trkpt>
      <trkpt lat="42.63948" lon="1.86523">
        <ele>1625.25</ele>
        <time>2016-01-12T13:03:31Z</time>
      </trkpt>
      <trkpt lat="42.63949" lon="1.86518">
        <ele>1626.21</ele>
        <time>2016-01-12T13:03:35Z</time>
      </trkpt>
      <trkpt lat="42.63955" lon="1.86512">
        <ele>1624.77</ele>
        <time>2016-01-12T13:03:43Z</time>
      </trkpt>
      <trkpt lat="42.6396" lon="1.86502">
        <ele>1623.32</ele>
        <time>2016-01-12T13:03:52Z</time>
      </trkpt>
      <trkpt lat="42.63965" lon="1.86492">
        <ele>1622.84</ele>
        <time>2016-01-12T13:04:01Z</time>
      </trkpt>
      <trkpt lat="42.63966" lon="1.86487">
        <ele>1623.32</ele>
        <time>2016-01-12T13:04:06Z</time>
      </trkpt>
      <trkpt lat="42.63968" lon="1.86479">
        <ele>1621.88</ele>
        <time>2016-01-12T13:04:11Z</time>
      </trkpt>
      <trkpt lat="42.63968" lon="1.86469">
        <ele>1622.36</ele>
        <time>2016-01-12T13:04:19Z</time>
      </trkpt>
      <trkpt lat="42.6397" lon="1.86462">
        <ele>1620.44</ele>
        <time>2016-01-12T13:04:23Z</time>
      </trkpt>
      <trkpt lat="42.63972" lon="1.86458">
        <ele>1619.48</ele>
        <time>2016-01-12T13:04:33Z</time>
      </trkpt>
      <trkpt lat="42.63972" lon="1.86451">
        <ele>1616.59</ele>
        <time>2016-01-12T13:04:43Z</time>
      </trkpt>
      <trkpt lat="42.63977" lon="1.86445">
        <ele>1615.63</ele>
        <time>2016-01-12T13:04:52Z</time>
      </trkpt>
      <trkpt lat="42.63983" lon="1.86445">
        <ele>1613.23</ele>
        <time>2016-01-12T13:05:02Z</time>
      </trkpt>
      <trkpt lat="42.63984" lon="1.86443">
        <ele>1612.75</ele>
        <time>2016-01-12T13:05:07Z</time>
      </trkpt>
      <trkpt lat="42.63991" lon="1.86437">
        <ele>1610.83</ele>
        <time>2016-01-12T13:05:17Z</time>
      </trkpt>
      <trkpt lat="42.63999" lon="1.86435">
        <ele>1608.9</ele>
        <time>2016-01-12T13:05:28Z</time>
      </trkpt>
      <trkpt lat="42.64" lon="1.86434">
        <ele>1608.42</ele>
        <time>2016-01-12T13:05:31Z</time>
      </trkpt>
      <trkpt lat="42.64006" lon="1.86433">
        <ele>1606.98</ele>
        <time>2016-01-12T13:05:39Z</time>
      </trkpt>
      <trkpt lat="42.64012" lon="1.86432">
        <ele>1604.58</ele>
        <time>2016-01-12T13:05:48Z</time>
      </trkpt>
      <trkpt lat="42.64012" lon="1.86431">
        <ele>1605.06</ele>
        <time>2016-01-12T13:05:49Z</time>
      </trkpt>
      <trkpt lat="42.64017" lon="1.86431">
        <ele>1603.14</ele>
        <time>2016-01-12T13:05:58Z</time>
      </trkpt>
      <trkpt lat="42.64018" lon="1.86431">
        <ele>1602.66</ele>
        <time>2016-01-12T13:05:59Z</time>
      </trkpt>
      <trkpt lat="42.64022" lon="1.86429">
        <ele>1601.21</ele>
        <time>2016-01-12T13:06:07Z</time>
      </trkpt>
      <trkpt lat="42.64023" lon="1.86429">
        <ele>1601.69</ele>
        <time>2016-01-12T13:06:08Z</time>
      </trkpt>
      <trkpt lat="42.64027" lon="1.86431">
        <ele>1600.73</ele>
        <time>2016-01-12T13:06:12Z</time>
      </trkpt>
      <trkpt lat="42.64033" lon="1.86426">
        <ele>1599.77</ele>
        <time>2016-01-12T13:06:23Z</time>
      </trkpt>
      <trkpt lat="42.64038" lon="1.86425">
        <ele>1598.33</ele>
        <time>2016-01-12T13:06:31Z</time>
      </trkpt>
      <trkpt lat="42.64044" lon="1.86425">
        <ele>1595.45</ele>
        <time>2016-01-12T13:06:41Z</time>
      </trkpt>
      <trkpt lat="42.64049" lon="1.86423">
        <ele>1594</ele>
        <time>2016-01-12T13:06:51Z</time>
      </trkpt>
      <trkpt lat="42.64049" lon="1.86416">
        <ele>1592.56</ele>
        <time>2016-01-12T13:06:59Z</time>
      </trkpt>
      <trkpt lat="42.64054" lon="1.86411">
        <ele>1589.68</ele>
        <time>2016-01-12T13:07:09Z</time>
      </trkpt>
      <trkpt lat="42.6406" lon="1.86411">
        <ele>1588.72</ele>
        <time>2016-01-12T13:07:18Z</time>
      </trkpt>
      <trkpt lat="42.64064" lon="1.86408">
        <ele>1586.79</ele>
        <time>2016-01-12T13:07:28Z</time>
      </trkpt>
      <trkpt lat="42.64067" lon="1.86402">
        <ele>1584.87</ele>
        <time>2016-01-12T13:07:37Z</time>
      </trkpt>
      <trkpt lat="42.64071" lon="1.86402">
        <ele>1583.43</ele>
        <time>2016-01-12T13:07:44Z</time>
      </trkpt>
      <trkpt lat="42.64076" lon="1.86398">
        <ele>1581.99</ele>
        <time>2016-01-12T13:07:54Z</time>
      </trkpt>
      <trkpt lat="42.64082" lon="1.86393">
        <ele>1580.54</ele>
        <time>2016-01-12T13:08:05Z</time>
      </trkpt>
      <trkpt lat="42.64084" lon="1.86394">
        <ele>1580.06</ele>
        <time>2016-01-12T13:08:15Z</time>
      </trkpt>
      <trkpt lat="42.64085" lon="1.86396">
        <ele>1580.06</ele>
        <time>2016-01-12T13:08:30Z</time>
      </trkpt>
      <trkpt lat="42.64085" lon="1.86395">
        <ele>1580.06</ele>
        <time>2016-01-12T13:08:46Z</time>
      </trkpt>
      <trkpt lat="42.64085" lon="1.86397">
        <ele>1580.06</ele>
        <time>2016-01-12T13:09:07Z</time>
      </trkpt>
      <trkpt lat="42.64087" lon="1.86396">
        <ele>1580.54</ele>
        <time>2016-01-12T13:09:24Z</time>
      </trkpt>
      <trkpt lat="42.64088" lon="1.86396">
        <ele>1580.54</ele>
        <time>2016-01-12T13:09:42Z</time>
      </trkpt>
      <trkpt lat="42.64089" lon="1.86396">
        <ele>1580.06</ele>
        <time>2016-01-12T13:10:09Z</time>
      </trkpt>
      <trkpt lat="42.64089" lon="1.86395">
        <ele>1579.58</ele>
        <time>2016-01-12T13:10:28Z</time>
      </trkpt>
      <trkpt lat="42.6409" lon="1.86396">
        <ele>1579.58</ele>
        <time>2016-01-12T13:10:47Z</time>
      </trkpt>
      <trkpt lat="42.6409" lon="1.86395">
        <ele>1579.1</ele>
        <time>2016-01-12T13:11:09Z</time>
      </trkpt>
      <trkpt lat="42.64089" lon="1.86395">
        <ele>1579.58</ele>
        <time>2016-01-12T13:11:34Z</time>
      </trkpt>
      <trkpt lat="42.64089" lon="1.86395">
        <ele>1579.1</ele>
        <time>2016-01-12T13:11:57Z</time>
      </trkpt>
      <trkpt lat="42.64089" lon="1.86395">
        <ele>1579.1</ele>
        <time>2016-01-12T13:12:20Z</time>
      </trkpt>
      <trkpt lat="42.64089" lon="1.86393">
        <ele>1579.1</ele>
        <time>2016-01-12T13:12:44Z</time>
      </trkpt>
      <trkpt lat="42.64089" lon="1.86394">
        <ele>1579.1</ele>
        <time>2016-01-12T13:13:08Z</time>
      </trkpt>
      <trkpt lat="42.64088" lon="1.86394">
        <ele>1578.62</ele>
        <time>2016-01-12T13:13:33Z</time>
      </trkpt>
      <trkpt lat="42.64088" lon="1.86394">
        <ele>1578.14</ele>
        <time>2016-01-12T13:13:55Z</time>
      </trkpt>
      <trkpt lat="42.64088" lon="1.86394">
        <ele>1578.14</ele>
        <time>2016-01-12T13:14:02Z</time>
      </trkpt>
      <trkpt lat="42.64086" lon="1.86393">
        <ele>1577.66</ele>
        <time>2016-01-12T13:14:12Z</time>
      </trkpt>
      <trkpt lat="42.64087" lon="1.86386">
        <ele>1575.74</ele>
        <time>2016-01-12T13:14:21Z</time>
      </trkpt>
      <trkpt lat="42.64092" lon="1.86383">
        <ele>1574.3</ele>
        <time>2016-01-12T13:14:28Z</time>
      </trkpt>
      <trkpt lat="42.64096" lon="1.8638">
        <ele>1573.82</ele>
        <time>2016-01-12T13:14:32Z</time>
      </trkpt>
      <trkpt lat="42.64104" lon="1.86377">
        <ele>1573.82</ele>
        <time>2016-01-12T13:14:42Z</time>
      </trkpt>
      <trkpt lat="42.64106" lon="1.86375">
        <ele>1574.3</ele>
        <time>2016-01-12T13:14:44Z</time>
      </trkpt>
      <trkpt lat="42.64113" lon="1.86374">
        <ele>1573.33</ele>
        <time>2016-01-12T13:14:51Z</time>
      </trkpt>
      <trkpt lat="42.64117" lon="1.86366">
        <ele>1572.37</ele>
        <time>2016-01-12T13:15:01Z</time>
      </trkpt>
      <trkpt lat="42.6412" lon="1.86359">
        <ele>1569.97</ele>
        <time>2016-01-12T13:15:11Z</time>
      </trkpt>
      <trkpt lat="42.6412" lon="1.86355">
        <ele>1568.05</ele>
        <time>2016-01-12T13:15:20Z</time>
      </trkpt>
      <trkpt lat="42.64124" lon="1.8635">
        <ele>1566.61</ele>
        <time>2016-01-12T13:15:29Z</time>
      </trkpt>
      <trkpt lat="42.64124" lon="1.8635">
        <ele>1566.12</ele>
        <time>2016-01-12T13:15:30Z</time>
      </trkpt>
      <trkpt lat="42.64127" lon="1.86337">
        <ele>1564.2</ele>
        <time>2016-01-12T13:15:38Z</time>
      </trkpt>
      <trkpt lat="42.64129" lon="1.86329">
        <ele>1563.24</ele>
        <time>2016-01-12T13:15:43Z</time>
      </trkpt>
      <trkpt lat="42.64132" lon="1.86327">
        <ele>1562.76</ele>
        <time>2016-01-12T13:15:47Z</time>
      </trkpt>
      <trkpt lat="42.64138" lon="1.86327">
        <ele>1561.32</ele>
        <time>2016-01-12T13:15:54Z</time>
      </trkpt>
      <trkpt lat="42.64139" lon="1.86322">
        <ele>1560.36</ele>
        <time>2016-01-12T13:16:02Z</time>
      </trkpt>
      <trkpt lat="42.64139" lon="1.86319">
        <ele>1559.88</ele>
        <time>2016-01-12T13:16:05Z</time>
      </trkpt>
      <trkpt lat="42.64143" lon="1.86307">
        <ele>1556.99</ele>
        <time>2016-01-12T13:16:16Z</time>
      </trkpt>
      <trkpt lat="42.64144" lon="1.86308">
        <ele>1556.99</ele>
        <time>2016-01-12T13:16:17Z</time>
      </trkpt>
      <trkpt lat="42.64145" lon="1.86307">
        <ele>1555.55</ele>
        <time>2016-01-12T13:16:21Z</time>
      </trkpt>
      <trkpt lat="42.64147" lon="1.86306">
        <ele>1554.11</ele>
        <time>2016-01-12T13:16:29Z</time>
      </trkpt>
      <trkpt lat="42.64147" lon="1.86308">
        <ele>1554.59</ele>
        <time>2016-01-12T13:16:36Z</time>
      </trkpt>
      <trkpt lat="42.64148" lon="1.86305">
        <ele>1554.59</ele>
        <time>2016-01-12T13:16:44Z</time>
      </trkpt>
      <trkpt lat="42.64155" lon="1.86303">
        <ele>1553.63</ele>
        <time>2016-01-12T13:16:54Z</time>
      </trkpt>
      <trkpt lat="42.64162" lon="1.86307">
        <ele>1552.19</ele>
        <time>2016-01-12T13:17:04Z</time>
      </trkpt>
      <trkpt lat="42.64165" lon="1.86303">
        <ele>1551.71</ele>
        <time>2016-01-12T13:17:14Z</time>
      </trkpt>
      <trkpt lat="42.64163" lon="1.86299">
        <ele>1550.26</ele>
        <time>2016-01-12T13:17:24Z</time>
      </trkpt>
      <trkpt lat="42.64165" lon="1.86295">
        <ele>1548.82</ele>
        <time>2016-01-12T13:17:33Z</time>
      </trkpt>
      <trkpt lat="42.64167" lon="1.86289">
        <ele>1547.38</ele>
        <time>2016-01-12T13:17:41Z</time>
      </trkpt>
      <trkpt lat="42.64175" lon="1.86285">
        <ele>1546.42</ele>
        <time>2016-01-12T13:17:51Z</time>
      </trkpt>
      <trkpt lat="42.64181" lon="1.86284">
        <ele>1544.5</ele>
        <time>2016-01-12T13:18:00Z</time>
      </trkpt>
      <trkpt lat="42.64185" lon="1.86282">
        <ele>1544.01</ele>
        <time>2016-01-12T13:18:10Z</time>
      </trkpt>
      <trkpt lat="42.64185" lon="1.86284">
        <ele>1543.53</ele>
        <time>2016-01-12T13:18:23Z</time>
      </trkpt>
      <trkpt lat="42.64184" lon="1.86285">
        <ele>1544.01</ele>
        <time>2016-01-12T13:18:44Z</time>
      </trkpt>
      <trkpt lat="42.64184" lon="1.86286">
        <ele>1543.53</ele>
        <time>2016-01-12T13:19:02Z</time>
      </trkpt>
      <trkpt lat="42.64188" lon="1.86284">
        <ele>1543.05</ele>
        <time>2016-01-12T13:19:13Z</time>
      </trkpt>
      <trkpt lat="42.64194" lon="1.86281">
        <ele>1541.61</ele>
        <time>2016-01-12T13:19:24Z</time>
      </trkpt>
      <trkpt lat="42.64199" lon="1.86278">
        <ele>1540.65</ele>
        <time>2016-01-12T13:19:35Z</time>
      </trkpt>
      <trkpt lat="42.64206" lon="1.86278">
        <ele>1538.73</ele>
        <time>2016-01-12T13:19:44Z</time>
      </trkpt>
      <trkpt lat="42.64215" lon="1.86275">
        <ele>1537.29</ele>
        <time>2016-01-12T13:19:55Z</time>
      </trkpt>
      <trkpt lat="42.64222" lon="1.86272">
        <ele>1536.32</ele>
        <time>2016-01-12T13:20:06Z</time>
      </trkpt>
      <trkpt lat="42.64224" lon="1.86271">
        <ele>1535.84</ele>
        <time>2016-01-12T13:20:08Z</time>
      </trkpt>
      <trkpt lat="42.64227" lon="1.8627">
        <ele>1535.84</ele>
        <time>2016-01-12T13:20:11Z</time>
      </trkpt>
      <trkpt lat="42.64238" lon="1.86271">
        <ele>1533.92</ele>
        <time>2016-01-12T13:20:22Z</time>
      </trkpt>
      <trkpt lat="42.64246" lon="1.8627">
        <ele>1532.48</ele>
        <time>2016-01-12T13:20:31Z</time>
      </trkpt>
      <trkpt lat="42.64251" lon="1.86272">
        <ele>1531.52</ele>
        <time>2016-01-12T13:20:37Z</time>
      </trkpt>
      <trkpt lat="42.64252" lon="1.86273">
        <ele>1531.52</ele>
        <time>2016-01-12T13:20:39Z</time>
      </trkpt>
      <trkpt lat="42.64254" lon="1.86273">
        <ele>1531.04</ele>
        <time>2016-01-12T13:20:41Z</time>
      </trkpt>
      <trkpt lat="42.64262" lon="1.86275">
        <ele>1530.08</ele>
        <time>2016-01-12T13:20:50Z</time>
      </trkpt>
      <trkpt lat="42.64268" lon="1.86275">
        <ele>1529.11</ele>
        <time>2016-01-12T13:20:56Z</time>
      </trkpt>
      <trkpt lat="42.64272" lon="1.86272">
        <ele>1529.11</ele>
        <time>2016-01-12T13:21:00Z</time>
      </trkpt>
      <trkpt lat="42.64278" lon="1.86266">
        <ele>1527.19</ele>
        <time>2016-01-12T13:21:07Z</time>
      </trkpt>
      <trkpt lat="42.64283" lon="1.86264">
        <ele>1526.71</ele>
        <time>2016-01-12T13:21:11Z</time>
      </trkpt>
      <trkpt lat="42.64293" lon="1.86264">
        <ele>1525.27</ele>
        <time>2016-01-12T13:21:20Z</time>
      </trkpt>
      <trkpt lat="42.64297" lon="1.86264">
        <ele>1524.31</ele>
        <time>2016-01-12T13:21:24Z</time>
      </trkpt>
      <trkpt lat="42.64309" lon="1.86262">
        <ele>1522.39</ele>
        <time>2016-01-12T13:21:35Z</time>
      </trkpt>
      <trkpt lat="42.6431" lon="1.86261">
        <ele>1521.9</ele>
        <time>2016-01-12T13:21:37Z</time>
      </trkpt>
      <trkpt lat="42.64313" lon="1.86259">
        <ele>1521.42</ele>
        <time>2016-01-12T13:21:40Z</time>
      </trkpt>
      <trkpt lat="42.64326" lon="1.86255">
        <ele>1519.98</ele>
        <time>2016-01-12T13:21:53Z</time>
      </trkpt>
      <trkpt lat="42.64335" lon="1.86254">
        <ele>1519.02</ele>
        <time>2016-01-12T13:22:00Z</time>
      </trkpt>
      <trkpt lat="42.64337" lon="1.86255">
        <ele>1519.02</ele>
        <time>2016-01-12T13:22:02Z</time>
      </trkpt>
      <trkpt lat="42.64339" lon="1.86253">
        <ele>1518.54</ele>
        <time>2016-01-12T13:22:05Z</time>
      </trkpt>
      <trkpt lat="42.64348" lon="1.86245">
        <ele>1517.58</ele>
        <time>2016-01-12T13:22:14Z</time>
      </trkpt>
      <trkpt lat="42.64362" lon="1.86246">
        <ele>1517.58</ele>
        <time>2016-01-12T13:22:26Z</time>
      </trkpt>
      <trkpt lat="42.64372" lon="1.86247">
        <ele>1517.58</ele>
        <time>2016-01-12T13:22:34Z</time>
      </trkpt>
      <trkpt lat="42.64374" lon="1.86247">
        <ele>1517.58</ele>
        <time>2016-01-12T13:22:36Z</time>
      </trkpt>
      <trkpt lat="42.64383" lon="1.86242">
        <ele>1518.54</ele>
        <time>2016-01-12T13:22:44Z</time>
      </trkpt>
      <trkpt lat="42.64391" lon="1.86243">
        <ele>1517.1</ele>
        <time>2016-01-12T13:22:52Z</time>
      </trkpt>
      <trkpt lat="42.64395" lon="1.86244">
        <ele>1517.58</ele>
        <time>2016-01-12T13:22:56Z</time>
      </trkpt>
      <trkpt lat="42.64404" lon="1.86243">
        <ele>1517.1</ele>
        <time>2016-01-12T13:23:05Z</time>
      </trkpt>
      <trkpt lat="42.64415" lon="1.8624">
        <ele>1518.54</ele>
        <time>2016-01-12T13:23:15Z</time>
      </trkpt>
      <trkpt lat="42.64427" lon="1.86238">
        <ele>1518.54</ele>
        <time>2016-01-12T13:23:25Z</time>
      </trkpt>
      <trkpt lat="42.64435" lon="1.86234">
        <ele>1518.54</ele>
        <time>2016-01-12T13:23:32Z</time>
      </trkpt>
      <trkpt lat="42.6444" lon="1.86234">
        <ele>1518.54</ele>
        <time>2016-01-12T13:23:36Z</time>
      </trkpt>
      <trkpt lat="42.64448" lon="1.86238">
        <ele>1518.54</ele>
        <time>2016-01-12T13:23:45Z</time>
      </trkpt>
      <trkpt lat="42.64458" lon="1.86238">
        <ele>1518.54</ele>
        <time>2016-01-12T13:23:55Z</time>
      </trkpt>
      <trkpt lat="42.64462" lon="1.86238">
        <ele>1518.54</ele>
        <time>2016-01-12T13:23:59Z</time>
      </trkpt>
      <trkpt lat="42.64465" lon="1.86237">
        <ele>1518.06</ele>
        <time>2016-01-12T13:24:02Z</time>
      </trkpt>
      <trkpt lat="42.64468" lon="1.86237">
        <ele>1517.1</ele>
        <time>2016-01-12T13:24:04Z</time>
      </trkpt>
      <trkpt lat="42.64472" lon="1.86236">
        <ele>1517.1</ele>
        <time>2016-01-12T13:24:07Z</time>
      </trkpt>
      <trkpt lat="42.64476" lon="1.86233">
        <ele>1518.06</ele>
        <time>2016-01-12T13:24:12Z</time>
      </trkpt>
      <trkpt lat="42.64478" lon="1.86224">
        <ele>1518.54</ele>
        <time>2016-01-12T13:24:18Z</time>
      </trkpt>
      <trkpt lat="42.64479" lon="1.8622">
        <ele>1519.02</ele>
        <time>2016-01-12T13:24:21Z</time>
      </trkpt>
      <trkpt lat="42.6448" lon="1.86213">
        <ele>1519.5</ele>
        <time>2016-01-12T13:24:26Z</time>
      </trkpt>
      <trkpt lat="42.64489" lon="1.8621">
        <ele>1519.5</ele>
        <time>2016-01-12T13:24:35Z</time>
      </trkpt>
      <trkpt lat="42.64491" lon="1.86211">
        <ele>1518.54</ele>
        <time>2016-01-12T13:24:37Z</time>
      </trkpt>
      <trkpt lat="42.64493" lon="1.8621">
        <ele>1517.1</ele>
        <time>2016-01-12T13:24:40Z</time>
      </trkpt>
      <trkpt lat="42.64497" lon="1.86208">
        <ele>1516.14</ele>
        <time>2016-01-12T13:24:44Z</time>
      </trkpt>
      <trkpt lat="42.64505" lon="1.86203">
        <ele>1513.73</ele>
        <time>2016-01-12T13:24:54Z</time>
      </trkpt>
      <trkpt lat="42.6451" lon="1.86195">
        <ele>1511.81</ele>
        <time>2016-01-12T13:25:03Z</time>
      </trkpt>
      <trkpt lat="42.64511" lon="1.86194">
        <ele>1511.33</ele>
        <time>2016-01-12T13:25:05Z</time>
      </trkpt>
      <trkpt lat="42.64513" lon="1.8618">
        <ele>1507.97</ele>
        <time>2016-01-12T13:25:17Z</time>
      </trkpt>
      <trkpt lat="42.64516" lon="1.86175">
        <ele>1507.48</ele>
        <time>2016-01-12T13:25:22Z</time>
      </trkpt>
      <trkpt lat="42.64516" lon="1.86171">
        <ele>1506.04</ele>
        <time>2016-01-12T13:25:25Z</time>
      </trkpt>
      <trkpt lat="42.64518" lon="1.8616">
        <ele>1503.16</ele>
        <time>2016-01-12T13:25:34Z</time>
      </trkpt>
      <trkpt lat="42.64518" lon="1.86158">
        <ele>1503.16</ele>
        <time>2016-01-12T13:25:36Z</time>
      </trkpt>
      <trkpt lat="42.64523" lon="1.86151">
        <ele>1500.27</ele>
        <time>2016-01-12T13:25:44Z</time>
      </trkpt>
      <trkpt lat="42.64523" lon="1.86145">
        <ele>1499.31</ele>
        <time>2016-01-12T13:25:48Z</time>
      </trkpt>
      <trkpt lat="42.64523" lon="1.86143">
        <ele>1498.83</ele>
        <time>2016-01-12T13:25:50Z</time>
      </trkpt>
      <trkpt lat="42.6453" lon="1.86133">
        <ele>1496.43</ele>
        <time>2016-01-12T13:26:01Z</time>
      </trkpt>
      <trkpt lat="42.6453" lon="1.86131">
        <ele>1495.47</ele>
        <time>2016-01-12T13:26:03Z</time>
      </trkpt>
      <trkpt lat="42.64534" lon="1.86128">
        <ele>1494.51</ele>
        <time>2016-01-12T13:26:11Z</time>
      </trkpt>
      <trkpt lat="42.64534" lon="1.86127">
        <ele>1494.51</ele>
        <time>2016-01-12T13:26:29Z</time>
      </trkpt>
      <trkpt lat="42.64534" lon="1.86127">
        <ele>1495.47</ele>
        <time>2016-01-12T13:26:46Z</time>
      </trkpt>
      <trkpt lat="42.64534" lon="1.86127">
        <ele>1494.99</ele>
        <time>2016-01-12T13:27:03Z</time>
      </trkpt>
      <trkpt lat="42.64534" lon="1.86127">
        <ele>1494.51</ele>
        <time>2016-01-12T13:27:21Z</time>
      </trkpt>
      <trkpt lat="42.64534" lon="1.86128">
        <ele>1494.99</ele>
        <time>2016-01-12T13:27:41Z</time>
      </trkpt>
      <trkpt lat="42.6454" lon="1.86126">
        <ele>1493.06</ele>
        <time>2016-01-12T13:27:53Z</time>
      </trkpt>
      <trkpt lat="42.64541" lon="1.86123">
        <ele>1491.14</ele>
        <time>2016-01-12T13:27:58Z</time>
      </trkpt>
      <trkpt lat="42.64544" lon="1.86114">
        <ele>1488.74</ele>
        <time>2016-01-12T13:28:07Z</time>
      </trkpt>
      <trkpt lat="42.64546" lon="1.8611">
        <ele>1488.26</ele>
        <time>2016-01-12T13:28:12Z</time>
      </trkpt>
      <trkpt lat="42.64548" lon="1.86107">
        <ele>1487.3</ele>
        <time>2016-01-12T13:28:16Z</time>
      </trkpt>
      <trkpt lat="42.64551" lon="1.86105">
        <ele>1486.34</ele>
        <time>2016-01-12T13:28:23Z</time>
      </trkpt>
      <trkpt lat="42.64552" lon="1.86101">
        <ele>1485.37</ele>
        <time>2016-01-12T13:28:35Z</time>
      </trkpt>
      <trkpt lat="42.64556" lon="1.86094">
        <ele>1482.97</ele>
        <time>2016-01-12T13:28:44Z</time>
      </trkpt>
      <trkpt lat="42.64558" lon="1.86094">
        <ele>1482.97</ele>
        <time>2016-01-12T13:28:46Z</time>
      </trkpt>
      <trkpt lat="42.64559" lon="1.86092">
        <ele>1482.49</ele>
        <time>2016-01-12T13:28:57Z</time>
      </trkpt>
      <trkpt lat="42.64558" lon="1.86095">
        <ele>1482.97</ele>
        <time>2016-01-12T13:29:18Z</time>
      </trkpt>
      <trkpt lat="42.6456" lon="1.86094">
        <ele>1481.05</ele>
        <time>2016-01-12T13:29:28Z</time>
      </trkpt>
      <trkpt lat="42.64561" lon="1.86094">
        <ele>1480.57</ele>
        <time>2016-01-12T13:29:38Z</time>
      </trkpt>
      <trkpt lat="42.64562" lon="1.86093">
        <ele>1480.57</ele>
        <time>2016-01-12T13:29:57Z</time>
      </trkpt>
      <trkpt lat="42.64564" lon="1.86086">
        <ele>1479.13</ele>
        <time>2016-01-12T13:30:08Z</time>
      </trkpt>
      <trkpt lat="42.64568" lon="1.86081">
        <ele>1477.2</ele>
        <time>2016-01-12T13:30:16Z</time>
      </trkpt>
      <trkpt lat="42.6457" lon="1.86079">
        <ele>1476.72</ele>
        <time>2016-01-12T13:30:18Z</time>
      </trkpt>
      <trkpt lat="42.64576" lon="1.86072">
        <ele>1475.28</ele>
        <time>2016-01-12T13:30:29Z</time>
      </trkpt>
      <trkpt lat="42.64578" lon="1.86071">
        <ele>1473.84</ele>
        <time>2016-01-12T13:30:46Z</time>
      </trkpt>
      <trkpt lat="42.64579" lon="1.86065">
        <ele>1472.4</ele>
        <time>2016-01-12T13:30:52Z</time>
      </trkpt>
      <trkpt lat="42.64586" lon="1.86058">
        <ele>1470.95</ele>
        <time>2016-01-12T13:31:02Z</time>
      </trkpt>
      <trkpt lat="42.64589" lon="1.86053">
        <ele>1470.47</ele>
        <time>2016-01-12T13:31:10Z</time>
      </trkpt>
      <trkpt lat="42.64593" lon="1.86046">
        <ele>1468.07</ele>
        <time>2016-01-12T13:31:19Z</time>
      </trkpt>
      <trkpt lat="42.64592" lon="1.86045">
        <ele>1467.59</ele>
        <time>2016-01-12T13:31:22Z</time>
      </trkpt>
      <trkpt lat="42.64595" lon="1.86039">
        <ele>1465.67</ele>
        <time>2016-01-12T13:31:31Z</time>
      </trkpt>
      <trkpt lat="42.64594" lon="1.86038">
        <ele>1465.67</ele>
        <time>2016-01-12T13:31:32Z</time>
      </trkpt>
      <trkpt lat="42.64596" lon="1.86033">
        <ele>1463.26</ele>
        <time>2016-01-12T13:31:40Z</time>
      </trkpt>
      <trkpt lat="42.64596" lon="1.86032">
        <ele>1463.26</ele>
        <time>2016-01-12T13:31:41Z</time>
      </trkpt>
      <trkpt lat="42.64603" lon="1.8603">
        <ele>1461.34</ele>
        <time>2016-01-12T13:31:50Z</time>
      </trkpt>
      <trkpt lat="42.646" lon="1.86025">
        <ele>1459.9</ele>
        <time>2016-01-12T13:31:56Z</time>
      </trkpt>
      <trkpt lat="42.646" lon="1.86022">
        <ele>1459.42</ele>
        <time>2016-01-12T13:31:58Z</time>
      </trkpt>
      <trkpt lat="42.64604" lon="1.86019">
        <ele>1457.5</ele>
        <time>2016-01-12T13:32:06Z</time>
      </trkpt>
      <trkpt lat="42.64607" lon="1.86024">
        <ele>1456.05</ele>
        <time>2016-01-12T13:32:14Z</time>
      </trkpt>
      <trkpt lat="42.64612" lon="1.86022">
        <ele>1453.65</ele>
        <time>2016-01-12T13:32:20Z</time>
      </trkpt>
      <trkpt lat="42.64614" lon="1.86025">
        <ele>1453.17</ele>
        <time>2016-01-12T13:32:31Z</time>
      </trkpt>
      <trkpt lat="42.64617" lon="1.86025">
        <ele>1451.73</ele>
        <time>2016-01-12T13:32:38Z</time>
      </trkpt>
      <trkpt lat="42.6462" lon="1.86024">
        <ele>1450.77</ele>
        <time>2016-01-12T13:32:48Z</time>
      </trkpt>
      <trkpt lat="42.6462" lon="1.86021">
        <ele>1450.77</ele>
        <time>2016-01-12T13:32:50Z</time>
      </trkpt>
      <trkpt lat="42.64624" lon="1.86017">
        <ele>1450.77</ele>
        <time>2016-01-12T13:32:59Z</time>
      </trkpt>
      <trkpt lat="42.64624" lon="1.86018">
        <ele>1450.29</ele>
        <time>2016-01-12T13:33:07Z</time>
      </trkpt>
      <trkpt lat="42.64627" lon="1.86011">
        <ele>1450.29</ele>
        <time>2016-01-12T13:33:12Z</time>
      </trkpt>
      <trkpt lat="42.64629" lon="1.86004">
        <ele>1449.32</ele>
        <time>2016-01-12T13:33:17Z</time>
      </trkpt>
      <trkpt lat="42.64629" lon="1.85989">
        <ele>1448.36</ele>
        <time>2016-01-12T13:33:27Z</time>
      </trkpt>
      <trkpt lat="42.64636" lon="1.85982">
        <ele>1445.96</ele>
        <time>2016-01-12T13:33:36Z</time>
      </trkpt>
      <trkpt lat="42.64639" lon="1.85979">
        <ele>1445.96</ele>
        <time>2016-01-12T13:33:41Z</time>
      </trkpt>
      <trkpt lat="42.64641" lon="1.85972">
        <ele>1443.56</ele>
        <time>2016-01-12T13:33:49Z</time>
      </trkpt>
      <trkpt lat="42.64643" lon="1.85968">
        <ele>1442.6</ele>
        <time>2016-01-12T13:34:00Z</time>
      </trkpt>
      <trkpt lat="42.64644" lon="1.85965">
        <ele>1441.63</ele>
        <time>2016-01-12T13:34:11Z</time>
      </trkpt>
      <trkpt lat="42.64645" lon="1.85965">
        <ele>1440.67</ele>
        <time>2016-01-12T13:34:28Z</time>
      </trkpt>
      <trkpt lat="42.64646" lon="1.8596">
        <ele>1440.19</ele>
        <time>2016-01-12T13:34:32Z</time>
      </trkpt>
      <trkpt lat="42.6465" lon="1.85959">
        <ele>1439.23</ele>
        <time>2016-01-12T13:34:42Z</time>
      </trkpt>
      <trkpt lat="42.6465" lon="1.85961">
        <ele>1438.75</ele>
        <time>2016-01-12T13:34:51Z</time>
      </trkpt>
      <trkpt lat="42.64656" lon="1.85959">
        <ele>1438.27</ele>
        <time>2016-01-12T13:35:00Z</time>
      </trkpt>
      <trkpt lat="42.64657" lon="1.85956">
        <ele>1436.83</ele>
        <time>2016-01-12T13:35:04Z</time>
      </trkpt>
      <trkpt lat="42.6466" lon="1.85953">
        <ele>1436.35</ele>
        <time>2016-01-12T13:35:08Z</time>
      </trkpt>
      <trkpt lat="42.64663" lon="1.85951">
        <ele>1435.39</ele>
        <time>2016-01-12T13:35:11Z</time>
      </trkpt>
      <trkpt lat="42.64663" lon="1.85948">
        <ele>1435.39</ele>
        <time>2016-01-12T13:35:13Z</time>
      </trkpt>
      <trkpt lat="42.64667" lon="1.85938">
        <ele>1433.46</ele>
        <time>2016-01-12T13:35:21Z</time>
      </trkpt>
      <trkpt lat="42.64668" lon="1.85937">
        <ele>1433.46</ele>
        <time>2016-01-12T13:35:22Z</time>
      </trkpt>
      <trkpt lat="42.64671" lon="1.85933">
        <ele>1431.54</ele>
        <time>2016-01-12T13:35:29Z</time>
      </trkpt>
      <trkpt lat="42.64672" lon="1.85931">
        <ele>1431.06</ele>
        <time>2016-01-12T13:35:32Z</time>
      </trkpt>
      <trkpt lat="42.64674" lon="1.85926">
        <ele>1430.1</ele>
        <time>2016-01-12T13:35:36Z</time>
      </trkpt>
      <trkpt lat="42.64676" lon="1.85924">
        <ele>1429.14</ele>
        <time>2016-01-12T13:35:40Z</time>
      </trkpt>
      <trkpt lat="42.64679" lon="1.85922">
        <ele>1427.7</ele>
        <time>2016-01-12T13:35:44Z</time>
      </trkpt>
      <trkpt lat="42.64681" lon="1.85921">
        <ele>1426.73</ele>
        <time>2016-01-12T13:35:47Z</time>
      </trkpt>
      <trkpt lat="42.64684" lon="1.85919">
        <ele>1426.25</ele>
        <time>2016-01-12T13:35:51Z</time>
      </trkpt>
      <trkpt lat="42.64689" lon="1.85915">
        <ele>1423.37</ele>
        <time>2016-01-12T13:36:01Z</time>
      </trkpt>
      <trkpt lat="42.64696" lon="1.8591">
        <ele>1422.41</ele>
        <time>2016-01-12T13:36:10Z</time>
      </trkpt>
      <trkpt lat="42.64697" lon="1.85908">
        <ele>1421.45</ele>
        <time>2016-01-12T13:36:13Z</time>
      </trkpt>
      <trkpt lat="42.64705" lon="1.85904">
        <ele>1418.56</ele>
        <time>2016-01-12T13:36:22Z</time>
      </trkpt>
      <trkpt lat="42.64709" lon="1.85901">
        <ele>1418.08</ele>
        <time>2016-01-12T13:36:27Z</time>
      </trkpt>
      <trkpt lat="42.64716" lon="1.85893">
        <ele>1416.64</ele>
        <time>2016-01-12T13:36:35Z</time>
      </trkpt>
      <trkpt lat="42.64718" lon="1.85887">
        <ele>1416.64</ele>
        <time>2016-01-12T13:36:39Z</time>
      </trkpt>
      <trkpt lat="42.64719" lon="1.85886">
        <ele>1415.68</ele>
        <time>2016-01-12T13:36:41Z</time>
      </trkpt>
      <trkpt lat="42.64721" lon="1.85881">
        <ele>1416.16</ele>
        <time>2016-01-12T13:36:44Z</time>
      </trkpt>
      <trkpt lat="42.64723" lon="1.85879">
        <ele>1415.68</ele>
        <time>2016-01-12T13:36:46Z</time>
      </trkpt>
      <trkpt lat="42.64724" lon="1.85877">
        <ele>1415.2</ele>
        <time>2016-01-12T13:36:48Z</time>
      </trkpt>
      <trkpt lat="42.64728" lon="1.85866">
        <ele>1414.72</ele>
        <time>2016-01-12T13:36:57Z</time>
      </trkpt>
      <trkpt lat="42.64728" lon="1.85857">
        <ele>1412.31</ele>
        <time>2016-01-12T13:37:05Z</time>
      </trkpt>
      <trkpt lat="42.64729" lon="1.85856">
        <ele>1412.31</ele>
        <time>2016-01-12T13:37:06Z</time>
      </trkpt>
      <trkpt lat="42.64733" lon="1.85848">
        <ele>1409.91</ele>
        <time>2016-01-12T13:37:14Z</time>
      </trkpt>
      <trkpt lat="42.64734" lon="1.85844">
        <ele>1409.43</ele>
        <time>2016-01-12T13:37:19Z</time>
      </trkpt>
      <trkpt lat="42.64738" lon="1.8584">
        <ele>1407.99</ele>
        <time>2016-01-12T13:37:25Z</time>
      </trkpt>
      <trkpt lat="42.64739" lon="1.85836">
        <ele>1407.51</ele>
        <time>2016-01-12T13:37:28Z</time>
      </trkpt>
      <trkpt lat="42.64741" lon="1.85827">
        <ele>1405.1</ele>
        <time>2016-01-12T13:37:37Z</time>
      </trkpt>
      <trkpt lat="42.64744" lon="1.85822">
        <ele>1403.66</ele>
        <time>2016-01-12T13:37:43Z</time>
      </trkpt>
      <trkpt lat="42.6475" lon="1.85813">
        <ele>1403.18</ele>
        <time>2016-01-12T13:37:53Z</time>
      </trkpt>
      <trkpt lat="42.64753" lon="1.85809">
        <ele>1403.18</ele>
        <time>2016-01-12T13:37:57Z</time>
      </trkpt>
      <trkpt lat="42.64754" lon="1.85806">
        <ele>1402.22</ele>
        <time>2016-01-12T13:38:00Z</time>
      </trkpt>
      <trkpt lat="42.6476" lon="1.85803">
        <ele>1401.74</ele>
        <time>2016-01-12T13:38:06Z</time>
      </trkpt>
      <trkpt lat="42.64765" lon="1.85792">
        <ele>1399.82</ele>
        <time>2016-01-12T13:38:16Z</time>
      </trkpt>
      <trkpt lat="42.64766" lon="1.85786">
        <ele>1398.86</ele>
        <time>2016-01-12T13:38:22Z</time>
      </trkpt>
      <trkpt lat="42.64773" lon="1.85779">
        <ele>1396.93</ele>
        <time>2016-01-12T13:38:31Z</time>
      </trkpt>
      <trkpt lat="42.64784" lon="1.85776">
        <ele>1395.97</ele>
        <time>2016-01-12T13:38:41Z</time>
      </trkpt>
      <trkpt lat="42.64789" lon="1.85763">
        <ele>1394.53</ele>
        <time>2016-01-12T13:38:52Z</time>
      </trkpt>
      <trkpt lat="42.64791" lon="1.8576">
        <ele>1394.05</ele>
        <time>2016-01-12T13:38:55Z</time>
      </trkpt>
      <trkpt lat="42.64792" lon="1.8576">
        <ele>1394.05</ele>
        <time>2016-01-12T13:38:56Z</time>
      </trkpt>
      <trkpt lat="42.64795" lon="1.85754">
        <ele>1393.09</ele>
        <time>2016-01-12T13:39:01Z</time>
      </trkpt>
      <trkpt lat="42.64796" lon="1.85756">
        <ele>1393.09</ele>
        <time>2016-01-12T13:39:02Z</time>
      </trkpt>
      <trkpt lat="42.64803" lon="1.85751">
        <ele>1391.17</ele>
        <time>2016-01-12T13:39:10Z</time>
      </trkpt>
      <trkpt lat="42.64811" lon="1.85743">
        <ele>1389.72</ele>
        <time>2016-01-12T13:39:19Z</time>
      </trkpt>
      <trkpt lat="42.64814" lon="1.85739">
        <ele>1388.76</ele>
        <time>2016-01-12T13:39:24Z</time>
      </trkpt>
      <trkpt lat="42.64818" lon="1.85735">
        <ele>1387.32</ele>
        <time>2016-01-12T13:39:30Z</time>
      </trkpt>
      <trkpt lat="42.64821" lon="1.85732">
        <ele>1387.8</ele>
        <time>2016-01-12T13:39:33Z</time>
      </trkpt>
      <trkpt lat="42.64831" lon="1.85725">
        <ele>1386.84</ele>
        <time>2016-01-12T13:39:42Z</time>
      </trkpt>
      <trkpt lat="42.64836" lon="1.85724">
        <ele>1385.88</ele>
        <time>2016-01-12T13:39:47Z</time>
      </trkpt>
      <trkpt lat="42.64839" lon="1.8572">
        <ele>1385.88</ele>
        <time>2016-01-12T13:39:51Z</time>
      </trkpt>
      <trkpt lat="42.64843" lon="1.85717">
        <ele>1385.88</ele>
        <time>2016-01-12T13:39:54Z</time>
      </trkpt>
      <trkpt lat="42.64844" lon="1.85715">
        <ele>1385.88</ele>
        <time>2016-01-12T13:39:56Z</time>
      </trkpt>
      <trkpt lat="42.64851" lon="1.85707">
        <ele>1386.36</ele>
        <time>2016-01-12T13:40:05Z</time>
      </trkpt>
      <trkpt lat="42.64852" lon="1.85706">
        <ele>1385.4</ele>
        <time>2016-01-12T13:40:06Z</time>
      </trkpt>
      <trkpt lat="42.64855" lon="1.85706">
        <ele>1385.88</ele>
        <time>2016-01-12T13:40:14Z</time>
      </trkpt>
      <trkpt lat="42.64856" lon="1.85705">
        <ele>1386.36</ele>
        <time>2016-01-12T13:40:17Z</time>
      </trkpt>
      <trkpt lat="42.64858" lon="1.85704">
        <ele>1386.84</ele>
        <time>2016-01-12T13:40:28Z</time>
      </trkpt>
      <trkpt lat="42.64859" lon="1.85707">
        <ele>1386.84</ele>
        <time>2016-01-12T13:40:44Z</time>
      </trkpt>
      <trkpt lat="42.64862" lon="1.85705">
        <ele>1386.36</ele>
        <time>2016-01-12T13:40:57Z</time>
      </trkpt>
      <trkpt lat="42.64865" lon="1.85698">
        <ele>1386.84</ele>
        <time>2016-01-12T13:41:06Z</time>
      </trkpt>
      <trkpt lat="42.64866" lon="1.85694">
        <ele>1386.36</ele>
        <time>2016-01-12T13:41:09Z</time>
      </trkpt>
      <trkpt lat="42.64869" lon="1.85691">
        <ele>1386.84</ele>
        <time>2016-01-12T13:41:20Z</time>
      </trkpt>
      <trkpt lat="42.64869" lon="1.8569">
        <ele>1387.32</ele>
        <time>2016-01-12T13:41:30Z</time>
      </trkpt>
      <trkpt lat="42.64873" lon="1.85682">
        <ele>1387.32</ele>
        <time>2016-01-12T13:41:39Z</time>
      </trkpt>
      <trkpt lat="42.64875" lon="1.85681">
        <ele>1388.76</ele>
        <time>2016-01-12T13:41:48Z</time>
      </trkpt>
      <trkpt lat="42.64879" lon="1.85674">
        <ele>1388.28</ele>
        <time>2016-01-12T13:42:03Z</time>
      </trkpt>
      <trkpt lat="42.6488" lon="1.85664">
        <ele>1386.36</ele>
        <time>2016-01-12T13:42:13Z</time>
      </trkpt>
      <trkpt lat="42.64882" lon="1.85661">
        <ele>1386.36</ele>
        <time>2016-01-12T13:42:18Z</time>
      </trkpt>
      <trkpt lat="42.64886" lon="1.85655">
        <ele>1386.36</ele>
        <time>2016-01-12T13:42:25Z</time>
      </trkpt>
      <trkpt lat="42.64889" lon="1.85652">
        <ele>1387.32</ele>
        <time>2016-01-12T13:42:29Z</time>
      </trkpt>
      <trkpt lat="42.64891" lon="1.85649">
        <ele>1386.36</ele>
        <time>2016-01-12T13:42:39Z</time>
      </trkpt>
      <trkpt lat="42.64891" lon="1.85647">
        <ele>1386.84</ele>
        <time>2016-01-12T13:42:51Z</time>
      </trkpt>
      <trkpt lat="42.64893" lon="1.85644">
        <ele>1386.36</ele>
        <time>2016-01-12T13:42:54Z</time>
      </trkpt>
      <trkpt lat="42.64894" lon="1.85641">
        <ele>1385.88</ele>
        <time>2016-01-12T13:42:56Z</time>
      </trkpt>
      <trkpt lat="42.64897" lon="1.85637">
        <ele>1386.36</ele>
        <time>2016-01-12T13:43:00Z</time>
      </trkpt>
      <trkpt lat="42.64902" lon="1.85628">
        <ele>1386.84</ele>
        <time>2016-01-12T13:43:08Z</time>
      </trkpt>
      <trkpt lat="42.64908" lon="1.85615">
        <ele>1384.92</ele>
        <time>2016-01-12T13:43:19Z</time>
      </trkpt>
      <trkpt lat="42.64911" lon="1.85609">
        <ele>1384.44</ele>
        <time>2016-01-12T13:43:28Z</time>
      </trkpt>
      <trkpt lat="42.64911" lon="1.85609">
        <ele>1383.47</ele>
        <time>2016-01-12T13:43:44Z</time>
      </trkpt>
      <trkpt lat="42.64915" lon="1.85602">
        <ele>1382.99</ele>
        <time>2016-01-12T13:43:52Z</time>
      </trkpt>
      <trkpt lat="42.64919" lon="1.85595">
        <ele>1381.55</ele>
        <time>2016-01-12T13:43:58Z</time>
      </trkpt>
      <trkpt lat="42.64922" lon="1.85592">
        <ele>1381.55</ele>
        <time>2016-01-12T13:44:01Z</time>
      </trkpt>
      <trkpt lat="42.64924" lon="1.85589">
        <ele>1382.03</ele>
        <time>2016-01-12T13:44:04Z</time>
      </trkpt>
      <trkpt lat="42.64926" lon="1.85582">
        <ele>1380.11</ele>
        <time>2016-01-12T13:44:12Z</time>
      </trkpt>
      <trkpt lat="42.64929" lon="1.85579">
        <ele>1380.11</ele>
        <time>2016-01-12T13:44:15Z</time>
      </trkpt>
      <trkpt lat="42.64935" lon="1.85566">
        <ele>1380.59</ele>
        <time>2016-01-12T13:44:26Z</time>
      </trkpt>
      <trkpt lat="42.64936" lon="1.85564">
        <ele>1380.59</ele>
        <time>2016-01-12T13:44:28Z</time>
      </trkpt>
      <trkpt lat="42.64937" lon="1.85561">
        <ele>1379.63</ele>
        <time>2016-01-12T13:44:32Z</time>
      </trkpt>
      <trkpt lat="42.64939" lon="1.85554">
        <ele>1379.15</ele>
        <time>2016-01-12T13:44:41Z</time>
      </trkpt>
      <trkpt lat="42.64939" lon="1.85553">
        <ele>1379.15</ele>
        <time>2016-01-12T13:44:42Z</time>
      </trkpt>
      <trkpt lat="42.64939" lon="1.85547">
        <ele>1377.71</ele>
        <time>2016-01-12T13:44:49Z</time>
      </trkpt>
      <trkpt lat="42.64939" lon="1.85544">
        <ele>1377.71</ele>
        <time>2016-01-12T13:44:52Z</time>
      </trkpt>
      <trkpt lat="42.64939" lon="1.8554">
        <ele>1377.23</ele>
        <time>2016-01-12T13:44:54Z</time>
      </trkpt>
      <trkpt lat="42.64941" lon="1.85536">
        <ele>1376.75</ele>
        <time>2016-01-12T13:44:58Z</time>
      </trkpt>
      <trkpt lat="42.64942" lon="1.85525">
        <ele>1375.78</ele>
        <time>2016-01-12T13:45:07Z</time>
      </trkpt>
      <trkpt lat="42.64942" lon="1.85519">
        <ele>1375.78</ele>
        <time>2016-01-12T13:45:10Z</time>
      </trkpt>
      <trkpt lat="42.64944" lon="1.85512">
        <ele>1375.78</ele>
        <time>2016-01-12T13:45:17Z</time>
      </trkpt>
      <trkpt lat="42.64946" lon="1.85509">
        <ele>1375.78</ele>
        <time>2016-01-12T13:45:20Z</time>
      </trkpt>
      <trkpt lat="42.64951" lon="1.85503">
        <ele>1375.78</ele>
        <time>2016-01-12T13:45:27Z</time>
      </trkpt>
      <trkpt lat="42.64961" lon="1.85492">
        <ele>1375.3</ele>
        <time>2016-01-12T13:45:38Z</time>
      </trkpt>
      <trkpt lat="42.64963" lon="1.85489">
        <ele>1374.82</ele>
        <time>2016-01-12T13:45:43Z</time>
      </trkpt>
      <trkpt lat="42.64965" lon="1.85487">
        <ele>1374.34</ele>
        <time>2016-01-12T13:45:45Z</time>
      </trkpt>
      <trkpt lat="42.64974" lon="1.85479">
        <ele>1373.38</ele>
        <time>2016-01-12T13:45:55Z</time>
      </trkpt>
      <trkpt lat="42.64982" lon="1.85473">
        <ele>1373.86</ele>
        <time>2016-01-12T13:46:05Z</time>
      </trkpt>
      <trkpt lat="42.64982" lon="1.85473">
        <ele>1373.38</ele>
        <time>2016-01-12T13:46:06Z</time>
      </trkpt>
      <trkpt lat="42.64987" lon="1.85477">
        <ele>1375.3</ele>
        <time>2016-01-12T13:46:12Z</time>
      </trkpt>
      <trkpt lat="42.64993" lon="1.85477">
        <ele>1375.3</ele>
        <time>2016-01-12T13:46:19Z</time>
      </trkpt>
      <trkpt lat="42.65001" lon="1.85471">
        <ele>1374.34</ele>
        <time>2016-01-12T13:46:30Z</time>
      </trkpt>
      <trkpt lat="42.65001" lon="1.85469">
        <ele>1374.34</ele>
        <time>2016-01-12T13:46:38Z</time>
      </trkpt>
      <trkpt lat="42.65004" lon="1.85466">
        <ele>1374.34</ele>
        <time>2016-01-12T13:46:48Z</time>
      </trkpt>
      <trkpt lat="42.64999" lon="1.85474">
        <ele>1375.3</ele>
        <time>2016-01-12T13:47:00Z</time>
      </trkpt>
      <trkpt lat="42.64992" lon="1.85478">
        <ele>1374.82</ele>
        <time>2016-01-12T13:47:07Z</time>
      </trkpt>
      <trkpt lat="42.64984" lon="1.85479">
        <ele>1373.86</ele>
        <time>2016-01-12T13:47:17Z</time>
      </trkpt>
      <trkpt lat="42.64986" lon="1.85473">
        <ele>1372.9</ele>
        <time>2016-01-12T13:47:23Z</time>
      </trkpt>
      <trkpt lat="42.64989" lon="1.85472">
        <ele>1372.9</ele>
        <time>2016-01-12T13:47:26Z</time>
      </trkpt>
      <trkpt lat="42.64995" lon="1.85465">
        <ele>1371.46</ele>
        <time>2016-01-12T13:47:36Z</time>
      </trkpt>
      <trkpt lat="42.64996" lon="1.85461">
        <ele>1370.02</ele>
        <time>2016-01-12T13:47:39Z</time>
      </trkpt>
      <trkpt lat="42.64999" lon="1.85453">
        <ele>1369.05</ele>
        <time>2016-01-12T13:47:45Z</time>
      </trkpt>
      <trkpt lat="42.65005" lon="1.85441">
        <ele>1366.65</ele>
        <time>2016-01-12T13:47:57Z</time>
      </trkpt>
      <trkpt lat="42.65006" lon="1.85439">
        <ele>1366.65</ele>
        <time>2016-01-12T13:47:58Z</time>
      </trkpt>
      <trkpt lat="42.65008" lon="1.85437">
        <ele>1365.69</ele>
        <time>2016-01-12T13:48:07Z</time>
      </trkpt>
      <trkpt lat="42.65009" lon="1.85438">
        <ele>1366.17</ele>
        <time>2016-01-12T13:48:25Z</time>
      </trkpt>
      <trkpt lat="42.65009" lon="1.85439">
        <ele>1365.69</ele>
        <time>2016-01-12T13:48:40Z</time>
      </trkpt>
      <trkpt lat="42.65008" lon="1.85439">
        <ele>1366.65</ele>
        <time>2016-01-12T13:48:57Z</time>
      </trkpt>
      <trkpt lat="42.65011" lon="1.85431">
        <ele>1365.21</ele>
        <time>2016-01-12T13:49:07Z</time>
      </trkpt>
      <trkpt lat="42.65011" lon="1.8543">
        <ele>1365.69</ele>
        <time>2016-01-12T13:49:28Z</time>
      </trkpt>
      <trkpt lat="42.65012" lon="1.85424">
        <ele>1365.21</ele>
        <time>2016-01-12T13:49:38Z</time>
      </trkpt>
      <trkpt lat="42.65013" lon="1.85423">
        <ele>1365.21</ele>
        <time>2016-01-12T13:49:56Z</time>
      </trkpt>
      <trkpt lat="42.65013" lon="1.85423">
        <ele>1365.21</ele>
        <time>2016-01-12T13:50:11Z</time>
      </trkpt>
      <trkpt lat="42.65014" lon="1.85418">
        <ele>1364.25</ele>
        <time>2016-01-12T13:50:15Z</time>
      </trkpt>
      <trkpt lat="42.65018" lon="1.85409">
        <ele>1362.33</ele>
        <time>2016-01-12T13:50:25Z</time>
      </trkpt>
      <trkpt lat="42.65017" lon="1.85396">
        <ele>1360.4</ele>
        <time>2016-01-12T13:50:36Z</time>
      </trkpt>
      <trkpt lat="42.65019" lon="1.85386">
        <ele>1358.96</ele>
        <time>2016-01-12T13:50:45Z</time>
      </trkpt>
      <trkpt lat="42.65021" lon="1.85377">
        <ele>1358</ele>
        <time>2016-01-12T13:50:53Z</time>
      </trkpt>
      <trkpt lat="42.65024" lon="1.85369">
        <ele>1356.56</ele>
        <time>2016-01-12T13:50:59Z</time>
      </trkpt>
      <trkpt lat="42.65027" lon="1.85359">
        <ele>1354.63</ele>
        <time>2016-01-12T13:51:10Z</time>
      </trkpt>
      <trkpt lat="42.65029" lon="1.8536">
        <ele>1354.15</ele>
        <time>2016-01-12T13:51:21Z</time>
      </trkpt>
      <trkpt lat="42.65032" lon="1.85354">
        <ele>1352.71</ele>
        <time>2016-01-12T13:51:31Z</time>
      </trkpt>
      <trkpt lat="42.65035" lon="1.85346">
        <ele>1351.27</ele>
        <time>2016-01-12T13:51:41Z</time>
      </trkpt>
      <trkpt lat="42.65035" lon="1.85347">
        <ele>1351.75</ele>
        <time>2016-01-12T13:51:54Z</time>
      </trkpt>
      <trkpt lat="42.6504" lon="1.85341">
        <ele>1350.79</ele>
        <time>2016-01-12T13:52:01Z</time>
      </trkpt>
      <trkpt lat="42.65042" lon="1.85338">
        <ele>1349.83</ele>
        <time>2016-01-12T13:52:09Z</time>
      </trkpt>
      <trkpt lat="42.65043" lon="1.85331">
        <ele>1348.39</ele>
        <time>2016-01-12T13:52:18Z</time>
      </trkpt>
      <trkpt lat="42.65044" lon="1.85328">
        <ele>1348.39</ele>
        <time>2016-01-12T13:52:30Z</time>
      </trkpt>
      <trkpt lat="42.65046" lon="1.85321">
        <ele>1346.46</ele>
        <time>2016-01-12T13:52:38Z</time>
      </trkpt>
      <trkpt lat="42.6505" lon="1.85314">
        <ele>1345.02</ele>
        <time>2016-01-12T13:52:47Z</time>
      </trkpt>
      <trkpt lat="42.65052" lon="1.85305">
        <ele>1344.06</ele>
        <time>2016-01-12T13:52:56Z</time>
      </trkpt>
      <trkpt lat="42.65056" lon="1.85301">
        <ele>1343.58</ele>
        <time>2016-01-12T13:53:01Z</time>
      </trkpt>
      <trkpt lat="42.65057" lon="1.85299">
        <ele>1343.58</ele>
        <time>2016-01-12T13:53:03Z</time>
      </trkpt>
      <trkpt lat="42.65065" lon="1.85289">
        <ele>1341.66</ele>
        <time>2016-01-12T13:53:15Z</time>
      </trkpt>
      <trkpt lat="42.65066" lon="1.85288">
        <ele>1341.66</ele>
        <time>2016-01-12T13:53:16Z</time>
      </trkpt>
      <trkpt lat="42.65069" lon="1.85286">
        <ele>1341.18</ele>
        <time>2016-01-12T13:53:19Z</time>
      </trkpt>
      <trkpt lat="42.65072" lon="1.85283">
        <ele>1340.22</ele>
        <time>2016-01-12T13:53:23Z</time>
      </trkpt>
      <trkpt lat="42.6508" lon="1.85278">
        <ele>1338.77</ele>
        <time>2016-01-12T13:53:32Z</time>
      </trkpt>
      <trkpt lat="42.65084" lon="1.85275">
        <ele>1337.81</ele>
        <time>2016-01-12T13:53:37Z</time>
      </trkpt>
      <trkpt lat="42.65093" lon="1.85275">
        <ele>1337.33</ele>
        <time>2016-01-12T13:53:46Z</time>
      </trkpt>
      <trkpt lat="42.65099" lon="1.85268">
        <ele>1335.41</ele>
        <time>2016-01-12T13:53:55Z</time>
      </trkpt>
      <trkpt lat="42.65099" lon="1.85267">
        <ele>1335.41</ele>
        <time>2016-01-12T13:53:56Z</time>
      </trkpt>
      <trkpt lat="42.65103" lon="1.85259">
        <ele>1333.01</ele>
        <time>2016-01-12T13:54:05Z</time>
      </trkpt>
      <trkpt lat="42.65107" lon="1.85249">
        <ele>1331.08</ele>
        <time>2016-01-12T13:54:14Z</time>
      </trkpt>
      <trkpt lat="42.65115" lon="1.85244">
        <ele>1329.64</ele>
        <time>2016-01-12T13:54:23Z</time>
      </trkpt>
      <trkpt lat="42.6512" lon="1.85238">
        <ele>1328.2</ele>
        <time>2016-01-12T13:54:31Z</time>
      </trkpt>
      <trkpt lat="42.65121" lon="1.85237">
        <ele>1327.72</ele>
        <time>2016-01-12T13:54:33Z</time>
      </trkpt>
      <trkpt lat="42.6513" lon="1.85233">
        <ele>1325.31</ele>
        <time>2016-01-12T13:54:44Z</time>
      </trkpt>
      <trkpt lat="42.65135" lon="1.85232">
        <ele>1324.35</ele>
        <time>2016-01-12T13:54:49Z</time>
      </trkpt>
      <trkpt lat="42.65145" lon="1.8523">
        <ele>1323.39</ele>
        <time>2016-01-12T13:54:59Z</time>
      </trkpt>
      <trkpt lat="42.65146" lon="1.8523">
        <ele>1323.39</ele>
        <time>2016-01-12T13:55:00Z</time>
      </trkpt>
      <trkpt lat="42.65151" lon="1.85231">
        <ele>1322.91</ele>
        <time>2016-01-12T13:55:03Z</time>
      </trkpt>
      <trkpt lat="42.65155" lon="1.85232">
        <ele>1321.95</ele>
        <time>2016-01-12T13:55:07Z</time>
      </trkpt>
      <trkpt lat="42.65159" lon="1.85231">
        <ele>1322.43</ele>
        <time>2016-01-12T13:55:11Z</time>
      </trkpt>
      <trkpt lat="42.65167" lon="1.85228">
        <ele>1321.95</ele>
        <time>2016-01-12T13:55:19Z</time>
      </trkpt>
      <trkpt lat="42.65179" lon="1.85217">
        <ele>1320.99</ele>
        <time>2016-01-12T13:55:31Z</time>
      </trkpt>
      <trkpt lat="42.65182" lon="1.85215">
        <ele>1320.03</ele>
        <time>2016-01-12T13:55:34Z</time>
      </trkpt>
      <trkpt lat="42.65186" lon="1.85211">
        <ele>1318.59</ele>
        <time>2016-01-12T13:55:38Z</time>
      </trkpt>
      <trkpt lat="42.6519" lon="1.85209">
        <ele>1317.62</ele>
        <time>2016-01-12T13:55:49Z</time>
      </trkpt>
      <trkpt lat="42.65186" lon="1.85207">
        <ele>1316.18</ele>
        <time>2016-01-12T13:55:55Z</time>
      </trkpt>
      <trkpt lat="42.65179" lon="1.85206">
        <ele>1313.78</ele>
        <time>2016-01-12T13:56:04Z</time>
      </trkpt>
      <trkpt lat="42.65184" lon="1.85194">
        <ele>1311.86</ele>
        <time>2016-01-12T13:56:13Z</time>
      </trkpt>
      <trkpt lat="42.65185" lon="1.85187">
        <ele>1309.93</ele>
        <time>2016-01-12T13:56:22Z</time>
      </trkpt>
      <trkpt lat="42.65181" lon="1.85188">
        <ele>1308.01</ele>
        <time>2016-01-12T13:56:29Z</time>
      </trkpt>
      <trkpt lat="42.65182" lon="1.85181">
        <ele>1306.57</ele>
        <time>2016-01-12T13:56:37Z</time>
      </trkpt>
      <trkpt lat="42.65184" lon="1.85174">
        <ele>1304.65</ele>
        <time>2016-01-12T13:56:46Z</time>
      </trkpt>
      <trkpt lat="42.65186" lon="1.85173">
        <ele>1304.65</ele>
        <time>2016-01-12T13:56:55Z</time>
      </trkpt>
      <trkpt lat="42.65186" lon="1.85168">
        <ele>1302.72</ele>
        <time>2016-01-12T13:57:03Z</time>
      </trkpt>
      <trkpt lat="42.65185" lon="1.85162">
        <ele>1301.28</ele>
        <time>2016-01-12T13:57:11Z</time>
      </trkpt>
      <trkpt lat="42.65189" lon="1.85155">
        <ele>1299.36</ele>
        <time>2016-01-12T13:57:20Z</time>
      </trkpt>
      <trkpt lat="42.65191" lon="1.85149">
        <ele>1299.36</ele>
        <time>2016-01-12T13:57:27Z</time>
      </trkpt>
      <trkpt lat="42.6519" lon="1.85148">
        <ele>1298.4</ele>
        <time>2016-01-12T13:57:29Z</time>
      </trkpt>
      <trkpt lat="42.65185" lon="1.85141">
        <ele>1296.48</ele>
        <time>2016-01-12T13:57:39Z</time>
      </trkpt>
      <trkpt lat="42.65185" lon="1.85132">
        <ele>1295.03</ele>
        <time>2016-01-12T13:57:48Z</time>
      </trkpt>
      <trkpt lat="42.65183" lon="1.8513">
        <ele>1293.11</ele>
        <time>2016-01-12T13:57:56Z</time>
      </trkpt>
      <trkpt lat="42.65185" lon="1.85125">
        <ele>1291.67</ele>
        <time>2016-01-12T13:58:04Z</time>
      </trkpt>
      <trkpt lat="42.65187" lon="1.85122">
        <ele>1290.71</ele>
        <time>2016-01-12T13:58:12Z</time>
      </trkpt>
      <trkpt lat="42.65188" lon="1.8512">
        <ele>1289.75</ele>
        <time>2016-01-12T13:58:16Z</time>
      </trkpt>
      <trkpt lat="42.65192" lon="1.8512">
        <ele>1288.78</ele>
        <time>2016-01-12T13:58:21Z</time>
      </trkpt>
      <trkpt lat="42.65192" lon="1.85115">
        <ele>1286.38</ele>
        <time>2016-01-12T13:58:31Z</time>
      </trkpt>
      <trkpt lat="42.65194" lon="1.85113">
        <ele>1285.42</ele>
        <time>2016-01-12T13:58:38Z</time>
      </trkpt>
      <trkpt lat="42.65197" lon="1.8511">
        <ele>1282.54</ele>
        <time>2016-01-12T13:58:47Z</time>
      </trkpt>
      <trkpt lat="42.65198" lon="1.85107">
        <ele>1281.09</ele>
        <time>2016-01-12T13:58:56Z</time>
      </trkpt>
      <trkpt lat="42.652" lon="1.85106">
        <ele>1280.13</ele>
        <time>2016-01-12T13:59:04Z</time>
      </trkpt>
      <trkpt lat="42.65202" lon="1.85103">
        <ele>1279.17</ele>
        <time>2016-01-12T13:59:11Z</time>
      </trkpt>
      <trkpt lat="42.65203" lon="1.85096">
        <ele>1277.25</ele>
        <time>2016-01-12T13:59:22Z</time>
      </trkpt>
      <trkpt lat="42.65203" lon="1.85092">
        <ele>1277.25</ele>
        <time>2016-01-12T13:59:37Z</time>
      </trkpt>
      <trkpt lat="42.65202" lon="1.85089">
        <ele>1276.29</ele>
        <time>2016-01-12T13:59:54Z</time>
      </trkpt>
      <trkpt lat="42.65204" lon="1.85084">
        <ele>1273.88</ele>
        <time>2016-01-12T14:00:05Z</time>
      </trkpt>
      <trkpt lat="42.65208" lon="1.85079">
        <ele>1272.44</ele>
        <time>2016-01-12T14:00:15Z</time>
      </trkpt>
      <trkpt lat="42.65208" lon="1.85079">
        <ele>1271.96</ele>
        <time>2016-01-12T14:00:24Z</time>
      </trkpt>
      <trkpt lat="42.65208" lon="1.85077">
        <ele>1271.48</ele>
        <time>2016-01-12T14:00:30Z</time>
      </trkpt>
      <trkpt lat="42.6521" lon="1.85073">
        <ele>1269.56</ele>
        <time>2016-01-12T14:00:38Z</time>
      </trkpt>
      <trkpt lat="42.65214" lon="1.85073">
        <ele>1268.6</ele>
        <time>2016-01-12T14:00:46Z</time>
      </trkpt>
      <trkpt lat="42.65215" lon="1.85066">
        <ele>1267.16</ele>
        <time>2016-01-12T14:00:54Z</time>
      </trkpt>
      <trkpt lat="42.65218" lon="1.85059">
        <ele>1265.23</ele>
        <time>2016-01-12T14:01:04Z</time>
      </trkpt>
      <trkpt lat="42.65221" lon="1.85055">
        <ele>1263.31</ele>
        <time>2016-01-12T14:01:12Z</time>
      </trkpt>
      <trkpt lat="42.65221" lon="1.85053">
        <ele>1263.31</ele>
        <time>2016-01-12T14:01:14Z</time>
      </trkpt>
      <trkpt lat="42.65226" lon="1.8505">
        <ele>1261.39</ele>
        <time>2016-01-12T14:01:23Z</time>
      </trkpt>
      <trkpt lat="42.65231" lon="1.85046">
        <ele>1260.43</ele>
        <time>2016-01-12T14:01:29Z</time>
      </trkpt>
      <trkpt lat="42.65235" lon="1.85039">
        <ele>1258.02</ele>
        <time>2016-01-12T14:01:39Z</time>
      </trkpt>
      <trkpt lat="42.65242" lon="1.85031">
        <ele>1254.66</ele>
        <time>2016-01-12T14:01:50Z</time>
      </trkpt>
      <trkpt lat="42.65246" lon="1.85024">
        <ele>1254.18</ele>
        <time>2016-01-12T14:01:57Z</time>
      </trkpt>
      <trkpt lat="42.65249" lon="1.8502">
        <ele>1252.74</ele>
        <time>2016-01-12T14:02:02Z</time>
      </trkpt>
      <trkpt lat="42.65253" lon="1.85015">
        <ele>1251.29</ele>
        <time>2016-01-12T14:02:07Z</time>
      </trkpt>
      <trkpt lat="42.65262" lon="1.85006">
        <ele>1249.37</ele>
        <time>2016-01-12T14:02:18Z</time>
      </trkpt>
      <trkpt lat="42.65267" lon="1.84999">
        <ele>1247.93</ele>
        <time>2016-01-12T14:02:28Z</time>
      </trkpt>
      <trkpt lat="42.65274" lon="1.84991">
        <ele>1246.01</ele>
        <time>2016-01-12T14:02:36Z</time>
      </trkpt>
      <trkpt lat="42.65282" lon="1.84987">
        <ele>1244.56</ele>
        <time>2016-01-12T14:02:44Z</time>
      </trkpt>
      <trkpt lat="42.65287" lon="1.84983">
        <ele>1244.08</ele>
        <time>2016-01-12T14:02:49Z</time>
      </trkpt>
      <trkpt lat="42.6529" lon="1.84983">
        <ele>1243.12</ele>
        <time>2016-01-12T14:02:51Z</time>
      </trkpt>
      <trkpt lat="42.65297" lon="1.84977">
        <ele>1242.16</ele>
        <time>2016-01-12T14:03:00Z</time>
      </trkpt>
      <trkpt lat="42.65298" lon="1.84975">
        <ele>1241.2</ele>
        <time>2016-01-12T14:03:03Z</time>
      </trkpt>
      <trkpt lat="42.65303" lon="1.84972">
        <ele>1239.76</ele>
        <time>2016-01-12T14:03:12Z</time>
      </trkpt>
      <trkpt lat="42.65305" lon="1.84969">
        <ele>1238.8</ele>
        <time>2016-01-12T14:03:20Z</time>
      </trkpt>
      <trkpt lat="42.65306" lon="1.84967">
        <ele>1237.83</ele>
        <time>2016-01-12T14:03:22Z</time>
      </trkpt>
      <trkpt lat="42.65307" lon="1.84965">
        <ele>1237.35</ele>
        <time>2016-01-12T14:03:25Z</time>
      </trkpt>
      <trkpt lat="42.65312" lon="1.84961">
        <ele>1236.39</ele>
        <time>2016-01-12T14:03:31Z</time>
      </trkpt>
      <trkpt lat="42.65317" lon="1.84955">
        <ele>1234.95</ele>
        <time>2016-01-12T14:03:40Z</time>
      </trkpt>
      <trkpt lat="42.6532" lon="1.84947">
        <ele>1233.03</ele>
        <time>2016-01-12T14:03:51Z</time>
      </trkpt>
      <trkpt lat="42.65322" lon="1.8494">
        <ele>1230.62</ele>
        <time>2016-01-12T14:03:59Z</time>
      </trkpt>
      <trkpt lat="42.65327" lon="1.84933">
        <ele>1229.18</ele>
        <time>2016-01-12T14:04:08Z</time>
      </trkpt>
      <trkpt lat="42.6533" lon="1.84931">
        <ele>1228.22</ele>
        <time>2016-01-12T14:04:12Z</time>
      </trkpt>
      <trkpt lat="42.65335" lon="1.84924">
        <ele>1227.26</ele>
        <time>2016-01-12T14:04:18Z</time>
      </trkpt>
      <trkpt lat="42.65338" lon="1.8492">
        <ele>1226.3</ele>
        <time>2016-01-12T14:04:22Z</time>
      </trkpt>
      <trkpt lat="42.65343" lon="1.84916">
        <ele>1224.86</ele>
        <time>2016-01-12T14:04:29Z</time>
      </trkpt>
      <trkpt lat="42.65347" lon="1.84907">
        <ele>1223.42</ele>
        <time>2016-01-12T14:04:38Z</time>
      </trkpt>
      <trkpt lat="42.65356" lon="1.84901">
        <ele>1221.01</ele>
        <time>2016-01-12T14:04:48Z</time>
      </trkpt>
      <trkpt lat="42.65357" lon="1.84899">
        <ele>1221.49</ele>
        <time>2016-01-12T14:04:50Z</time>
      </trkpt>
      <trkpt lat="42.65366" lon="1.84888">
        <ele>1219.09</ele>
        <time>2016-01-12T14:05:01Z</time>
      </trkpt>
      <trkpt lat="42.65375" lon="1.84885">
        <ele>1217.65</ele>
        <time>2016-01-12T14:05:10Z</time>
      </trkpt>
      <trkpt lat="42.65381" lon="1.84881">
        <ele>1216.21</ele>
        <time>2016-01-12T14:05:16Z</time>
      </trkpt>
      <trkpt lat="42.65382" lon="1.84879">
        <ele>1216.21</ele>
        <time>2016-01-12T14:05:18Z</time>
      </trkpt>
      <trkpt lat="42.65385" lon="1.84874">
        <ele>1215.72</ele>
        <time>2016-01-12T14:05:23Z</time>
      </trkpt>
      <trkpt lat="42.65385" lon="1.84871">
        <ele>1215.24</ele>
        <time>2016-01-12T14:05:25Z</time>
      </trkpt>
      <trkpt lat="42.65385" lon="1.84866">
        <ele>1214.76</ele>
        <time>2016-01-12T14:05:28Z</time>
      </trkpt>
      <trkpt lat="42.6539" lon="1.84857">
        <ele>1213.8</ele>
        <time>2016-01-12T14:05:39Z</time>
      </trkpt>
      <trkpt lat="42.65391" lon="1.84856">
        <ele>1213.8</ele>
        <time>2016-01-12T14:05:51Z</time>
      </trkpt>
      <trkpt lat="42.65395" lon="1.8485">
        <ele>1212.84</ele>
        <time>2016-01-12T14:05:59Z</time>
      </trkpt>
      <trkpt lat="42.65403" lon="1.84838">
        <ele>1212.36</ele>
        <time>2016-01-12T14:06:10Z</time>
      </trkpt>
      <trkpt lat="42.65408" lon="1.84826">
        <ele>1210.44</ele>
        <time>2016-01-12T14:06:20Z</time>
      </trkpt>
      <trkpt lat="42.65411" lon="1.84818">
        <ele>1210.44</ele>
        <time>2016-01-12T14:06:28Z</time>
      </trkpt>
      <trkpt lat="42.6541" lon="1.84815">
        <ele>1209.48</ele>
        <time>2016-01-12T14:06:30Z</time>
      </trkpt>
      <trkpt lat="42.65413" lon="1.84805">
        <ele>1210.44</ele>
        <time>2016-01-12T14:06:39Z</time>
      </trkpt>
      <trkpt lat="42.65416" lon="1.84801">
        <ele>1210.92</ele>
        <time>2016-01-12T14:06:42Z</time>
      </trkpt>
      <trkpt lat="42.65424" lon="1.84795">
        <ele>1211.88</ele>
        <time>2016-01-12T14:06:48Z</time>
      </trkpt>
      <trkpt lat="42.65433" lon="1.84783">
        <ele>1211.4</ele>
        <time>2016-01-12T14:06:58Z</time>
      </trkpt>
      <trkpt lat="42.65438" lon="1.84778">
        <ele>1211.88</ele>
        <time>2016-01-12T14:07:03Z</time>
      </trkpt>
      <trkpt lat="42.65442" lon="1.84768">
        <ele>1210.44</ele>
        <time>2016-01-12T14:07:10Z</time>
      </trkpt>
      <trkpt lat="42.65443" lon="1.84762">
        <ele>1208.51</ele>
        <time>2016-01-12T14:07:13Z</time>
      </trkpt>
      <trkpt lat="42.65444" lon="1.84755">
        <ele>1210.92</ele>
        <time>2016-01-12T14:07:19Z</time>
      </trkpt>
      <trkpt lat="42.65444" lon="1.84752">
        <ele>1210.44</ele>
        <time>2016-01-12T14:07:20Z</time>
      </trkpt>
      <trkpt lat="42.65444" lon="1.84736">
        <ele>1208.03</ele>
        <time>2016-01-12T14:07:29Z</time>
      </trkpt>
      <trkpt lat="42.65443" lon="1.84731">
        <ele>1207.07</ele>
        <time>2016-01-12T14:07:33Z</time>
      </trkpt>
      <trkpt lat="42.65444" lon="1.84726">
        <ele>1207.07</ele>
        <time>2016-01-12T14:07:36Z</time>
      </trkpt>
      <trkpt lat="42.65443" lon="1.84716">
        <ele>1204.67</ele>
        <time>2016-01-12T14:07:44Z</time>
      </trkpt>
      <trkpt lat="42.65442" lon="1.84713">
        <ele>1204.19</ele>
        <time>2016-01-12T14:07:46Z</time>
      </trkpt>
      <trkpt lat="42.65441" lon="1.8471">
        <ele>1203.71</ele>
        <time>2016-01-12T14:07:48Z</time>
      </trkpt>
      <trkpt lat="42.6544" lon="1.84703">
        <ele>1202.75</ele>
        <time>2016-01-12T14:07:52Z</time>
      </trkpt>
      <trkpt lat="42.6544" lon="1.847">
        <ele>1202.75</ele>
        <time>2016-01-12T14:07:54Z</time>
      </trkpt>
      <trkpt lat="42.65441" lon="1.84694">
        <ele>1201.79</ele>
        <time>2016-01-12T14:08:04Z</time>
      </trkpt>
      <trkpt lat="42.6544" lon="1.84694">
        <ele>1202.27</ele>
        <time>2016-01-12T14:08:09Z</time>
      </trkpt>
      <trkpt lat="42.6544" lon="1.84691">
        <ele>1201.79</ele>
        <time>2016-01-12T14:08:11Z</time>
      </trkpt>
      <trkpt lat="42.65441" lon="1.84685">
        <ele>1201.3</ele>
        <time>2016-01-12T14:08:15Z</time>
      </trkpt>
      <trkpt lat="42.65444" lon="1.84672">
        <ele>1199.86</ele>
        <time>2016-01-12T14:08:23Z</time>
      </trkpt>
      <trkpt lat="42.65447" lon="1.84663">
        <ele>1198.9</ele>
        <time>2016-01-12T14:08:29Z</time>
      </trkpt>
      <trkpt lat="42.65447" lon="1.8466">
        <ele>1198.9</ele>
        <time>2016-01-12T14:08:32Z</time>
      </trkpt>
      <trkpt lat="42.65449" lon="1.84658">
        <ele>1198.9</ele>
        <time>2016-01-12T14:08:35Z</time>
      </trkpt>
      <trkpt lat="42.65451" lon="1.84656">
        <ele>1197.46</ele>
        <time>2016-01-12T14:08:37Z</time>
      </trkpt>
      <trkpt lat="42.65454" lon="1.84651">
        <ele>1196.98</ele>
        <time>2016-01-12T14:08:41Z</time>
      </trkpt>
      <trkpt lat="42.65456" lon="1.84646">
        <ele>1196.5</ele>
        <time>2016-01-12T14:08:45Z</time>
      </trkpt>
      <trkpt lat="42.65458" lon="1.84629">
        <ele>1193.13</ele>
        <time>2016-01-12T14:08:56Z</time>
      </trkpt>
      <trkpt lat="42.65458" lon="1.84629">
        <ele>1193.13</ele>
        <time>2016-01-12T14:09:07Z</time>
      </trkpt>
      <trkpt lat="42.65458" lon="1.84627">
        <ele>1192.65</ele>
        <time>2016-01-12T14:09:08Z</time>
      </trkpt>
      <trkpt lat="42.65458" lon="1.84624">
        <ele>1192.17</ele>
        <time>2016-01-12T14:09:10Z</time>
      </trkpt>
      <trkpt lat="42.65459" lon="1.84615">
        <ele>1191.21</ele>
        <time>2016-01-12T14:09:15Z</time>
      </trkpt>
      <trkpt lat="42.65455" lon="1.84604">
        <ele>1189.77</ele>
        <time>2016-01-12T14:09:25Z</time>
      </trkpt>
      <trkpt lat="42.65463" lon="1.84596">
        <ele>1189.29</ele>
        <time>2016-01-12T14:09:39Z</time>
      </trkpt>
      <trkpt lat="42.65463" lon="1.84595">
        <ele>1189.29</ele>
        <time>2016-01-12T14:09:40Z</time>
      </trkpt>
      <trkpt lat="42.65477" lon="1.84591">
        <ele>1189.29</ele>
        <time>2016-01-12T14:09:51Z</time>
      </trkpt>
      <trkpt lat="42.65488" lon="1.84588">
        <ele>1188.81</ele>
        <time>2016-01-12T14:10:01Z</time>
      </trkpt>
      <trkpt lat="42.65498" lon="1.84585">
        <ele>1189.29</ele>
        <time>2016-01-12T14:10:13Z</time>
      </trkpt>
      <trkpt lat="42.65503" lon="1.84586">
        <ele>1189.29</ele>
        <time>2016-01-12T14:10:19Z</time>
      </trkpt>
      <trkpt lat="42.65514" lon="1.84583">
        <ele>1188.81</ele>
        <time>2016-01-12T14:10:31Z</time>
      </trkpt>
      <trkpt lat="42.65516" lon="1.84583">
        <ele>1188.81</ele>
        <time>2016-01-12T14:10:34Z</time>
      </trkpt>
      <trkpt lat="42.65527" lon="1.84579">
        <ele>1187.85</ele>
        <time>2016-01-12T14:10:47Z</time>
      </trkpt>
      <trkpt lat="42.65528" lon="1.84579">
        <ele>1188.33</ele>
        <time>2016-01-12T14:10:48Z</time>
      </trkpt>
      <trkpt lat="42.65537" lon="1.84576">
        <ele>1187.85</ele>
        <time>2016-01-12T14:10:56Z</time>
      </trkpt>
      <trkpt lat="42.65546" lon="1.84583">
        <ele>1188.33</ele>
        <time>2016-01-12T14:11:08Z</time>
      </trkpt>
    </trkseg>
  </trk>
</gpx>